[[{"header":{"parameterUnit":"m.s-1","parameterCategory":1,"la1":30.6,"la2":29.2853,"lo1":-89.7004,"lo2":-87.6739,"dy":0.0162,"dx":0.0183,"nx":112,"ny":82,"refTime":"2023-06-08T06:00:00:Z","depth":0,"parameterNumber":2,"parameterNumberName":"U-component_of_WINDS"},"data":[0.0,0.0,0.0,0.0,0.0,0.0,0.0,0.0,0.0,0.0,0.0,0.0,0.0,0.0,0.0,0.0,0.0,0.0,0.0,0.0,0.0,0.0,0.0,0.0,0.0,0.0,0.0,0.0,0.0,0.0,0.0,0.0,0.0,0.0,0.0,0.0,0.0,0.0,0.0,0.0,0.0,0.0,0.0,0.0,0.0,0.0,0.0,0.0,0.0,0.0,0.0,0.0,0.0,0.0,0.0,0.0,0.0,0.0,0.0,0.0,0.0,0.0,0.0,0.0,0.0,0.0,0.0,0.0,0.0,0.0,0.0,0.0,0.0,0.0,0.0,0.0,0.0,0.0,0.0,0.0,0.0,0.0,0.0,0.0,0.0,0.0,0.0,0.0,0.0,0.0,2.2314,2.3139,2.4542,2.4786,2.3248,2.2743,2.2652,2.2989,0.0,0.0,0.0,0.0,0.0,0.0,0.0,0.0,0.0,0.0,0.0,0.0,0.0,0.0,0.0,0.0,0.0,0.0,0.0,0.0,0.0,0.0,0.0,0.0,0.0,0.0,0.0,0.0,0.0,0.0,0.0,0.0,0.0,0.0,0.0,0.0,0.0,0.0,0.0,0.0,0.0,0.0,0.0,0.0,0.0,0.0,0.0,0.0,0.0,0.0,0.0,0.0,0.0,0.0,0.0,0.0,0.0,0.0,0.0,0.0,0.0,0.0,0.0,0.0,0.0,0.0,0.0,0.0,0.0,0.0,0.0,0.0,0.0,0.0,0.0,0.0,0.0,0.0,0.0,0.0,0.0,0.0,0.0,0.0,0.0,0.0,0.0,0.0,0.0,0.0,0.0,0.0,0.0,0.0,0.0,0.0,0.0,0.0,0.0,0.0,0.0,0.0,0.0,0.0,2.3221,2.4098,2.4428,2.4209,2.3252,2.1147,2.0767,2.2878,0.0,0.0,0.0,0.0,0.0,0.0,0.0,0.0,0.0,0.0,0.0,0.0,0.0,0.0,0.0,0.0,0.0,0.0,0.0,0.0,0.0,0.0,0.0,0.0,0.0,0.0,0.0,0.0,0.0,0.0,0.0,0.0,0.0,0.0,0.0,0.0,0.0,0.0,0.0,0.0,0.0,0.0,0.0,0.0,0.0,0.0,0.0,0.0,0.0,0.0,0.0,0.0,0.0,0.0,0.0,0.0,0.0,0.0,0.0,0.0,0.0,0.0,0.0,0.0,0.0,0.0,0.0,0.0,0.0,0.0,0.0,0.0,0.0,0.0,0.0,0.0,0.0,0.0,0.0,0.0,0.0,0.0,0.0,0.0,0.0,0.0,0.0,0.0,0.0,0.0,0.0,0.0,0.0,0.0,0.0,0.0,0.0,0.0,0.0,0.0,0.0,0.0,0.0,2.2811,2.3395,2.4297,2.4785,2.4531,2.3242,2.1211,2.0851,2.2866,2.0914,0.0,0.0,0.0,0.0,0.0,0.0,0.0,0.0,0.0,0.0,0.0,0.0,0.0,0.0,0.0,0.0,0.0,0.0,0.0,0.0,0.0,0.0,0.0,0.0,0.0,0.0,0.0,0.0,0.0,0.0,0.0,0.0,0.0,0.0,0.0,0.0,0.0,0.0,0.0,0.0,0.0,0.0,0.0,0.0,0.0,0.0,0.0,0.0,0.0,0.0,0.0,0.0,0.0,0.0,0.0,0.0,0.0,0.0,0.0,0.0,0.0,0.0,0.0,0.0,0.0,0.0,0.0,0.0,0.0,0.0,0.0,0.0,0.0,0.0,0.0,0.0,0.0,0.0,0.0,0.0,0.0,0.0,0.0,0.0,0.0,0.0,0.0,0.0,0.0,0.0,0.0,0.0,0.0,0.0,0.0,0.0,0.0,0.0,0.0,0.0,0.0,0.0,2.3019,2.26,2.3957,2.4469,2.4219,2.293,2.1606,2.1471,2.2916,2.1297,0.0,0.0,0.0,0.0,0.0,0.0,0.0,0.0,0.0,0.0,0.0,0.0,0.0,0.0,0.0,0.0,0.0,0.0,0.0,0.0,0.0,0.0,0.0,0.0,0.0,0.0,0.0,0.0,0.0,0.0,0.0,0.0,0.0,0.0,0.0,0.0,0.0,0.0,0.0,0.0,0.0,0.0,0.0,0.0,0.0,0.0,0.0,0.0,0.0,0.0,0.0,0.0,0.0,0.0,0.0,0.0,0.0,0.0,0.0,0.0,0.0,0.0,0.0,0.0,0.0,0.0,0.0,0.0,0.0,0.0,0.0,0.0,0.0,0.0,0.0,0.0,0.0,0.0,0.0,0.0,0.0,0.0,0.0,0.0,0.0,0.0,0.0,0.0,0.0,0.0,0.0,0.0,0.0,0.0,0.0,0.0,0.0,0.0,0.0,0.0,0.0,0.0,2.1477,2.0415,2.2919,2.2574,2.2109,2.1992,2.1752,2.2018,2.2944,2.3535,0.0,0.0,0.0,0.0,0.0,0.0,0.0,0.0,0.0,0.0,0.0,0.0,0.0,0.0,0.0,0.0,0.0,0.0,0.0,0.0,0.0,0.0,0.0,0.0,0.0,0.0,0.0,0.0,0.0,0.0,0.0,0.0,0.0,0.0,0.0,0.0,0.0,0.0,0.0,0.0,0.0,0.0,0.0,0.0,0.0,0.0,0.0,0.0,0.0,0.0,0.0,0.0,0.0,0.0,0.0,0.0,0.0,0.0,0.0,0.0,0.0,0.0,0.0,0.0,0.0,0.0,0.0,0.0,0.0,0.0,0.0,0.0,0.0,0.0,0.0,0.0,0.0,0.0,0.0,0.0,0.0,0.0,0.0,0.0,0.0,0.0,0.0,0.0,0.0,0.0,0.0,0.0,0.0,0.0,0.0,0.0,0.0,0.0,0.0,0.0,0.0,0.0,2.1822,2.1066,0.0,2.2382,2.2101,2.1056,2.0917,2.1469,2.2851,0.0,0.0,0.0,0.0,0.0,0.0,0.0,0.0,0.0,0.0,0.0,0.0,0.0,0.0,0.0,0.0,0.0,0.0,0.0,0.0,0.0,0.0,0.0,0.0,0.0,0.0,0.0,0.0,0.0,0.0,0.0,0.0,0.0,0.0,0.0,0.0,0.0,0.0,0.0,0.0,0.0,0.0,0.0,0.0,0.0,0.0,0.0,0.0,0.0,0.0,0.0,0.0,0.0,0.0,0.0,0.0,0.0,0.0,0.0,0.0,0.0,0.0,0.0,0.0,0.0,0.0,0.0,0.0,0.0,0.0,0.0,0.0,0.0,0.0,0.0,0.0,0.0,0.0,0.0,0.0,0.0,0.0,0.0,0.0,0.0,0.0,0.0,0.0,0.0,0.0,0.0,0.0,0.0,0.0,0.0,0.0,0.0,0.0,0.0,0.0,0.0,0.0,2.2846,2.1441,2.0607,0.0,2.1514,2.1252,2.0122,2.049,2.1284,2.2442,0.0,0.0,0.0,0.0,0.0,0.0,0.0,0.0,0.0,0.0,0.0,0.0,0.0,0.0,0.0,0.0,0.0,0.0,0.0,0.0,0.0,0.0,0.0,0.0,0.0,0.0,0.0,0.0,0.0,0.0,0.0,0.0,0.0,0.0,0.0,0.0,0.0,0.0,0.0,0.0,0.0,0.0,0.0,0.0,0.0,0.0,0.0,0.0,0.0,0.0,0.0,0.0,0.0,0.0,0.0,0.0,0.0,0.0,0.0,0.0,0.0,0.0,0.0,0.0,0.0,0.0,0.0,0.0,0.0,0.0,0.0,0.0,0.0,0.0,0.0,0.0,0.0,0.0,0.0,0.0,0.0,0.0,0.0,0.0,0.0,0.0,0.0,0.0,0.0,0.0,0.0,0.0,0.0,0.0,0.0,0.0,0.0,0.0,0.0,0.0,0.0,0.0,2.2672,1.991,1.8443,2.0111,1.9649,1.9207,1.9207,2.0675,2.1621,0.0,0.0,0.0,0.0,0.0,0.0,0.0,0.0,0.0,0.0,0.0,0.0,0.0,0.0,0.0,0.0,0.0,0.0,0.0,0.0,0.0,0.0,0.0,0.0,0.0,0.0,0.0,0.0,0.0,0.0,0.0,0.0,0.0,0.0,0.0,0.0,0.0,0.0,0.0,0.0,0.0,0.0,0.0,0.0,0.0,0.0,0.0,0.0,0.0,0.0,0.0,0.0,0.0,0.0,0.0,0.0,0.0,0.0,0.0,0.0,0.0,0.0,0.0,0.0,0.0,0.0,0.0,0.0,0.0,0.0,0.0,0.0,0.0,0.0,0.0,0.0,0.0,0.0,0.0,0.0,0.0,0.0,0.0,0.0,0.0,0.0,0.0,0.0,0.0,0.0,0.0,0.0,0.0,0.0,0.0,0.0,0.0,0.0,0.0,0.0,0.0,0.0,0.0,2.2672,1.988,1.8381,2.0119,2.0108,1.9723,1.9107,2.0064,2.1477,2.3356,0.0,0.0,0.0,0.0,0.0,0.0,0.0,0.0,0.0,0.0,0.0,0.0,0.0,0.0,0.0,0.0,0.0,0.0,0.0,0.0,0.0,0.0,0.0,0.0,0.0,0.0,0.0,0.0,0.0,0.0,0.0,0.0,0.0,0.0,0.0,0.0,0.0,0.0,0.0,0.0,0.0,0.0,0.0,0.0,0.0,0.0,0.0,0.0,0.0,0.0,0.0,0.0,0.0,0.0,0.0,0.0,0.0,0.0,0.0,0.0,0.0,0.0,0.0,0.0,0.0,0.0,0.0,0.0,0.0,0.0,0.0,0.0,0.0,0.0,0.0,0.0,0.0,0.0,0.0,0.0,0.0,0.0,0.0,0.0,0.0,0.0,0.0,0.0,0.0,0.0,0.0,0.0,0.0,0.0,0.0,0.0,0.0,0.0,0.0,0.0,0.0,0.0,2.267,1.9856,1.8369,2.0119,1.9985,1.9561,1.9042,1.9427,2.0527,2.2437,0.0,0.0,0.0,0.0,0.0,0.0,0.0,0.0,0.0,0.0,0.0,0.0,0.0,0.0,0.0,0.0,0.0,0.0,0.0,0.0,0.0,0.0,0.0,0.0,0.0,0.0,0.0,0.0,0.0,0.0,0.0,0.0,0.0,0.0,0.0,0.0,0.0,0.0,0.0,0.0,0.0,0.0,0.0,0.0,0.0,0.0,0.0,0.0,0.0,0.0,0.0,0.0,0.0,0.0,0.0,0.0,0.0,0.0,0.0,0.0,0.0,0.0,0.0,0.0,0.0,0.0,0.0,0.0,0.0,0.0,0.0,0.0,0.0,0.0,0.0,0.0,0.0,0.0,0.0,0.0,0.0,0.0,0.0,0.0,0.0,0.0,0.0,0.0,0.0,0.0,0.0,0.0,0.0,0.0,0.0,0.0,0.0,0.0,0.0,0.0,0.0,0.0,2.2686,1.9896,1.8424,2.0111,1.9565,1.9085,1.9092,1.8969,1.9301,2.025,0.0,0.0,0.0,0.0,0.0,0.0,0.0,0.0,0.0,0.0,0.0,0.0,0.0,0.0,0.0,0.0,0.0,0.0,0.0,0.0,0.0,0.0,0.0,0.0,0.0,0.0,0.0,0.0,0.0,0.0,0.0,0.0,0.0,0.0,0.0,0.0,0.0,0.0,0.0,0.0,0.0,0.0,0.0,0.0,0.0,0.0,0.0,0.0,0.0,0.0,0.0,0.0,0.0,0.0,0.0,0.0,0.0,0.0,0.0,0.0,1.8247,1.8108,0.0,0.0,0.0,0.0,0.0,0.0,0.0,0.0,0.0,0.0,0.0,0.0,0.0,0.0,0.0,0.0,0.0,0.0,0.0,0.0,0.0,0.0,0.0,0.0,0.0,0.0,0.0,0.0,0.0,0.0,0.0,0.0,0.0,0.0,0.0,0.0,0.0,0.0,0.0,0.0,2.2742,2.0225,1.885,2.0153,1.9898,1.9667,1.9773,1.9656,2.025,2.1818,2.162,0.0,0.0,0.0,0.0,0.0,0.0,0.0,0.0,0.0,0.0,0.0,0.0,0.0,0.0,0.0,0.0,0.0,0.0,0.0,0.0,0.0,0.0,0.0,0.0,0.0,0.0,0.0,0.0,0.0,0.0,0.0,0.0,0.0,0.0,0.0,0.0,0.0,0.0,0.0,0.0,0.0,0.0,0.0,0.0,0.0,0.0,0.0,0.0,0.0,0.0,0.0,0.0,0.0,0.0,0.0,0.0,0.0,0.0,0.0,1.9933,1.9635,0.0,0.0,0.0,0.0,0.0,0.0,0.0,0.0,0.0,0.0,0.0,0.0,0.0,0.0,0.0,0.0,0.0,0.0,0.0,0.0,0.0,0.0,0.0,0.0,0.0,0.0,0.0,0.0,0.0,0.0,0.0,0.0,0.0,0.0,0.0,0.0,0.0,0.0,0.0,0.0,2.261,2.0318,1.9001,1.9964,1.9962,1.9901,1.9912,1.9786,2.0087,2.0999,2.1387,0.0,0.0,0.0,0.0,0.0,0.0,0.0,0.0,0.0,0.0,0.0,0.0,0.0,0.0,0.0,0.0,0.0,0.0,0.0,0.0,0.0,0.0,0.0,0.0,0.0,0.0,0.0,0.0,0.0,0.0,0.0,0.0,0.0,0.0,0.0,0.0,0.0,0.0,0.0,0.0,0.0,0.0,0.0,0.0,0.0,0.0,0.0,0.0,0.0,0.0,0.0,0.0,0.0,2.1711,2.1706,2.2217,2.2382,2.2476,2.2465,2.177,2.1541,2.1684,2.181,0.0,0.0,0.0,0.0,0.0,0.0,0.0,0.0,0.0,0.0,0.0,0.0,0.0,0.0,0.0,0.0,0.0,0.0,0.0,0.0,0.0,0.0,2.2759,2.2854,2.3508,2.3843,2.2707,0.0,0.0,0.0,0.0,0.0,0.0,0.0,0.0,0.0,0.0,0.0,2.2191,2.026,1.912,1.9726,1.9839,1.9896,1.9962,1.9836,1.982,1.9968,2.124,2.2056,0.0,0.0,0.0,0.0,0.0,0.0,0.0,0.0,0.0,0.0,0.0,0.0,0.0,0.0,0.0,0.0,0.0,0.0,0.0,0.0,0.0,0.0,0.0,0.0,0.0,0.0,0.0,0.0,0.0,0.0,0.0,0.0,1.3433,1.4538,0.0,0.0,0.0,0.0,0.0,0.0,0.0,0.0,0.0,0.0,0.0,0.0,0.0,2.1066,2.1666,2.1776,2.2182,2.29,2.2807,2.2438,2.1881,2.2715,2.2719,2.2073,2.2129,0.0,2.3176,2.2615,0.0,0.0,0.0,0.0,0.0,0.0,0.0,0.0,0.0,0.0,0.0,0.0,0.0,0.0,0.0,0.0,0.0,0.0,0.0,0.0,0.0,0.0,2.4263,2.3348,2.3702,2.4046,2.3235,2.3535,2.396,2.3995,2.4101,2.4596,0.0,0.0,0.0,0.0,0.0,0.0,2.1311,2.0082,1.9374,1.9767,1.9553,1.9744,2.0597,2.0477,2.0698,2.1469,2.1442,2.1844,2.2832,2.3048,0.0,0.0,0.0,0.0,0.0,0.0,0.0,0.0,0.0,0.0,0.0,0.0,0.0,0.0,0.0,0.0,0.0,0.0,0.0,0.0,0.0,0.0,0.0,0.0,0.0,0.0,0.0,0.0,0.0,1.4244,1.5154,1.6193,1.5795,1.5969,0.0,0.0,0.0,0.0,0.0,0.0,0.0,0.0,0.0,2.0462,2.1461,2.2092,2.2282,2.2508,2.297,2.3676,2.3235,2.3052,2.3144,2.3566,2.3617,2.3398,2.3506,2.3754,2.4009,2.3347,2.3167,2.3262,0.0,0.0,0.0,0.0,2.1855,2.1859,2.2142,2.2739,2.3318,2.2924,0.0,0.0,0.0,0.0,0.0,0.0,0.0,2.207,2.3051,2.3662,2.4069,2.4181,2.413,2.4042,2.394,2.3464,2.3189,2.3678,2.378,2.4167,2.5429,2.5145,0.0,0.0,0.0,2.2809,2.2002,2.126,2.0837,2.0916,2.0871,2.0973,2.1345,2.1112,2.1116,2.148,2.1624,2.1914,2.2419,2.3019,2.3657,0.0,0.0,0.0,0.0,0.0,0.0,0.0,0.0,0.0,0.0,0.0,0.0,0.0,0.0,0.0,0.0,0.0,0.0,0.0,0.0,0.0,0.0,0.0,0.0,0.0,0.0,0.0,0.0,1.5046,1.6309,1.7396,1.7035,1.7286,0.0,0.0,0.0,0.0,0.0,0.0,1.9452,2.0335,2.1231,2.2109,2.2761,2.3058,2.2966,2.3113,2.3489,2.4074,2.3546,2.3621,2.419,2.419,2.4284,2.4428,2.4632,2.4725,2.4668,2.4035,2.3829,2.3875,2.3558,2.3126,2.2682,2.2571,2.2491,2.2468,2.2651,2.3146,2.364,2.3498,2.3494,2.3478,2.3159,0.0,0.0,0.0,0.0,2.2222,2.356,2.4015,2.42,2.4728,2.4603,2.4362,2.4499,2.363,2.3011,2.3466,2.3406,2.3667,2.4847,2.4772,0.0,0.0,0.0,2.3162,2.2186,2.1917,2.178,2.1679,2.185,2.1957,2.199,2.175,2.1648,2.1785,2.202,2.2224,2.2293,2.3043,2.357,2.3862,0.0,0.0,0.0,0.0,0.0,0.0,0.0,0.0,0.0,0.0,0.0,0.0,0.0,0.0,0.0,0.0,0.0,0.0,0.0,0.0,0.0,0.0,0.0,0.0,0.0,0.0,0.0,0.0,0.0,1.637,1.7165,0.0,0.0,0.0,0.0,1.7446,1.8537,1.9858,2.1283,2.2417,2.3726,2.5243,2.4572,2.4226,2.4201,2.3845,2.3678,2.3714,2.3999,2.4153,2.419,2.419,2.4227,2.4264,2.5017,2.5349,2.5314,2.4705,2.48,2.5148,2.3754,2.3652,2.418,2.3425,2.3145,2.3231,2.3879,2.4136,2.4154,2.4154,2.3943,2.3524,2.2622,2.2333,0.0,0.0,2.3492,2.3605,2.495,2.5614,2.5712,2.4734,2.5031,2.5336,2.4659,2.4455,2.4201,2.3553,2.2829,2.2807,2.4212,0.0,2.2735,2.3642,2.2551,2.1446,2.0943,2.1151,2.1329,2.1329,2.1625,2.199,2.2431,2.2445,2.2625,2.3076,2.2835,2.282,2.3136,2.2905,2.2923,2.3236,2.3495,0.0,0.0,0.0,0.0,0.0,0.0,0.0,0.0,0.0,0.0,0.0,0.0,0.0,0.0,0.0,0.0,0.0,0.0,0.0,0.0,0.0,0.0,0.0,0.0,0.0,0.0,0.0,0.0,1.7055,1.7432,0.0,1.8884,1.9107,1.9202,1.9244,2.0501,2.1371,2.1683,2.2578,2.3445,2.4309,2.4279,2.4391,2.4739,2.4819,2.4871,2.4871,2.4676,2.4596,2.4577,2.4312,2.419,2.4245,2.5054,2.5403,2.5421,2.5721,2.5978,2.6137,2.5574,2.5558,2.5758,2.5191,2.4999,2.5011,2.5026,2.47,2.418,2.3705,2.3477,2.3382,2.3347,2.3327,2.3467,2.4093,2.42,2.4323,2.5259,2.5647,2.5802,2.5878,2.5744,2.5659,2.5862,2.5152,2.4543,2.478,2.3849,2.3016,2.3028,2.2649,2.2411,2.2735,2.2496,2.2218,2.2038,2.2329,2.2615,2.2824,2.2944,2.3091,2.3259,2.307,2.2929,2.288,2.2616,2.249,2.2624,2.2678,2.2772,2.2873,2.2965,2.3397,0.0,0.0,0.0,0.0,0.0,0.0,0.0,0.0,0.0,0.0,0.0,0.0,0.0,0.0,0.0,0.0,0.0,0.0,0.0,0.0,0.0,0.0,0.0,0.0,0.0,0.0,1.7655,1.811,1.8595,1.9185,1.9993,2.0133,2.0422,2.1005,2.2033,2.2661,2.2692,2.3518,2.4083,2.4202,2.453,2.4792,2.4934,2.5195,2.5339,2.5339,2.5123,2.5046,2.5028,2.4757,2.465,2.4686,2.5484,2.5895,2.606,2.6749,2.7095,2.7132,2.6626,2.6655,2.6918,2.6235,2.608,2.6144,2.579,2.525,2.4617,2.4013,2.3829,2.3841,2.405,2.411,2.4207,2.4737,2.4864,2.5033,2.5778,2.5981,2.6099,2.6573,2.6336,2.6099,2.659,2.5913,2.5304,2.5558,2.4408,2.3485,2.375,2.3357,2.3363,2.4441,2.4492,2.454,2.4815,2.4464,2.4292,2.452,2.3949,2.35,2.3369,2.3875,2.3721,2.2634,2.3127,2.3119,2.2327,2.292,2.328,2.3257,2.377,2.4293,2.4842,0.0,0.0,0.0,0.0,0.0,0.0,0.0,0.0,0.0,0.0,0.0,0.0,0.0,0.0,0.0,0.0,0.0,0.0,0.0,0.0,0.0,0.0,0.0,1.7318,1.7942,1.8641,1.9343,2.0616,2.1192,2.0669,2.1209,2.1867,2.248,2.3026,2.3665,2.4379,2.5428,2.5759,2.5262,2.5594,2.5524,2.4888,2.5002,2.5046,2.5046,2.5365,2.5509,2.5509,2.5517,2.55,2.5553,2.6392,2.6925,2.727,2.7753,2.8174,2.8304,2.6693,2.6758,2.7647,2.6465,2.6281,2.6542,2.6134,2.5758,2.5455,2.509,2.4977,2.4936,2.4632,2.4557,2.4712,2.5456,2.5693,2.5879,2.659,2.6742,2.6725,2.6725,2.6708,2.6691,2.6691,2.6691,2.6488,2.5745,2.4428,2.4151,2.6316,2.539,2.536,2.842,2.8198,0.0,2.879,2.7251,2.6149,2.6206,2.4414,2.3122,2.2816,2.4845,2.5015,2.2468,2.4378,2.4607,2.2378,2.3614,2.4331,2.4326,2.5737,2.6127,2.54,0.0,0.0,0.0,0.0,0.0,0.0,0.0,0.0,0.0,0.0,0.0,0.0,0.0,0.0,0.0,0.0,0.0,0.0,0.0,0.0,0.0,0.0,1.6922,1.7398,1.8741,1.9836,2.0312,2.0991,2.144,2.1285,2.1811,2.2481,2.3228,2.3842,2.4486,2.5259,2.5561,2.583,2.6065,2.6061,2.6183,2.6311,2.6253,2.6228,2.6228,2.6036,2.5924,2.5936,2.563,2.55,2.557,2.6911,2.755,2.7733,2.8983,2.9757,2.9971,2.8112,2.7576,2.779,2.7173,2.6824,2.6576,2.5949,2.5657,2.5466,2.4829,2.4658,2.473,2.5167,2.5659,2.6251,2.6996,2.7621,2.8095,2.8298,2.7926,2.752,2.752,2.7097,2.6624,2.6262,2.647,2.6522,2.6012,2.5095,2.4396,2.4326,2.3526,2.3172,2.4033,2.4417,0.0,2.4208,2.4164,2.4689,2.6069,2.4711,2.4121,2.5151,2.4804,2.389,2.2389,2.2892,2.2943,2.2327,2.2664,2.2873,2.2892,2.3375,2.3526,0.0,0.0,0.0,0.0,0.0,0.0,0.0,0.0,0.0,0.0,0.0,0.0,0.0,0.0,0.0,0.0,0.0,0.0,0.0,0.0,0.0,0.0,1.7342,1.792,1.8557,1.9842,2.0797,2.1037,2.1707,2.2083,2.1857,2.2411,2.3204,2.4281,2.4722,2.5232,2.5971,2.6288,2.6311,2.6047,2.6489,2.6824,2.7088,2.723,2.741,2.7655,2.7435,2.7329,2.7312,2.7072,2.6974,2.7009,2.7924,2.8383,2.8561,2.9308,2.9869,3.014,0.0,0.0,0.0,0.0,2.784,2.6922,2.6802,2.6655,2.6454,2.6031,2.5879,2.6031,2.6793,2.7097,2.7334,2.8095,2.8636,2.9011,2.9011,2.8399,2.7789,2.7789,2.7249,2.659,2.612,2.6227,2.6262,2.5762,2.5029,0.0,2.3786,2.3563,2.3922,2.523,2.5684,2.5849,2.5783,2.5482,2.5561,2.6375,2.4787,2.3947,2.4515,2.4627,0.0,0.0,0.0,2.3485,2.2963,2.3093,0.0,0.0,0.0,2.3703,2.3232,2.3274,0.0,0.0,2.3728,2.3699,0.0,0.0,0.0,0.0,0.0,0.0,0.0,0.0,0.0,0.0,0.0,0.0,0.0,0.0,0.0,0.0,1.8022,1.9319,2.0332,2.1153,2.1693,2.1681,2.2598,2.3037,2.2548,2.3103,2.4066,2.5508,2.5675,2.6054,2.6867,0.0,0.0,0.0,0.0,2.7404,2.7406,2.7891,2.84,2.9011,2.9011,2.9011,2.9011,2.9011,2.9011,2.9011,2.9076,2.9276,2.9558,2.9428,2.9568,2.9782,2.9541,2.9934,3.0552,3.0123,2.8879,2.7466,2.8211,0.0,0.0,2.7926,2.796,2.8078,2.8772,2.8569,2.823,2.8907,2.9161,2.9228,2.9228,2.8653,2.8043,2.8043,2.7503,2.6774,2.6181,2.6158,2.6028,2.5349,2.4764,2.436,2.436,2.463,2.5803,2.8627,2.8851,2.8983,2.9721,2.8494,2.7389,2.6965,2.4975,0.0,2.2869,2.4505,2.462,2.2367,2.4082,2.4642,2.3527,2.3811,2.4259,2.4813,2.5105,2.4809,2.3832,2.3698,2.334,2.278,2.2728,2.2819,0.0,0.0,0.0,0.0,0.0,0.0,0.0,0.0,0.0,0.0,0.0,0.0,0.0,0.0,0.0,1.8205,1.8895,1.9887,2.1816,2.2543,2.2889,2.2792,2.3414,2.3791,2.369,2.4192,2.5143,2.6717,2.6854,2.7485,2.8943,2.8622,2.8293,2.8023,2.7636,2.7639,2.8099,2.8095,2.84,2.9011,2.9011,0.0,2.9011,2.9011,2.9011,2.9008,2.9634,2.9909,3.0068,3.1196,3.171,3.1601,2.9799,2.9193,2.9333,2.9263,2.8578,2.781,2.8626,2.8403,2.7926,2.8552,2.8755,2.8789,2.8941,2.9313,0.0,2.9837,3.0311,3.0768,3.0768,3.0226,2.9668,2.9668,2.9093,2.8115,2.6568,2.7026,2.7232,2.567,2.5668,2.5963,2.5963,2.4528,2.3594,2.4207,2.4759,2.5096,2.5057,2.527,2.5992,2.7509,2.6162,2.5377,2.5875,2.5185,2.3883,2.1847,2.1847,2.1804,2.157,2.1611,2.1722,2.1823,2.1533,2.1262,2.1064,2.0708,2.0627,2.0889,2.2061,2.2635,0.0,0.0,0.0,0.0,0.0,0.0,0.0,0.0,0.0,0.0,0.0,1.5542,0.0,0.0,1.7799,1.9504,2.0369,2.1275,2.2798,2.3827,2.4239,2.3629,2.4067,2.4406,2.4406,2.4657,2.5294,2.6459,2.6955,2.7736,2.8861,2.9035,2.9086,2.9086,2.8722,2.8778,2.9375,2.9656,3.0107,3.0716,3.1015,3.119,3.119,3.119,3.119,3.1207,3.1596,3.1765,3.1816,3.2544,3.2995,3.3139,3.2025,3.0762,2.9583,2.9956,2.9381,2.8518,2.9279,2.9296,2.9025,2.9414,2.955,2.9617,2.9973,3.0091,3.026,3.0987,3.1461,3.1732,3.1732,3.119,3.0565,3.0192,2.9533,2.8673,2.7502,2.7501,2.7364,2.6174,2.5968,2.6001,2.6001,2.5065,2.4164,2.3866,2.462,2.5075,2.4621,2.5297,2.6101,2.6792,2.61,2.5603,2.5661,2.4377,2.3031,2.1678,2.1213,2.0894,2.0649,2.0862,2.0797,2.0345,2.033,2.0177,2.0,2.0,2.0089,2.0314,2.1343,2.181,0.0,0.0,0.0,0.0,0.0,0.0,0.0,0.0,1.5179,1.4858,1.6056,1.7215,1.7409,1.8505,1.9727,2.0728,2.1822,2.2845,2.3546,2.4633,2.5037,2.428,2.4644,2.4971,2.4971,2.5071,2.5434,2.6185,2.7054,2.7851,2.8627,2.9348,2.9759,2.9759,2.9639,2.9872,3.049,3.1146,3.1819,3.2422,3.3074,3.3406,3.3406,3.3406,3.3406,3.3406,3.3406,3.3491,3.3609,3.3457,3.3765,3.4236,3.4216,3.2788,3.0818,3.1511,3.0942,2.9904,3.0518,3.0649,3.0548,3.07,3.0751,3.0852,3.1444,3.1207,3.0987,3.2171,3.2493,3.2493,3.2493,3.1952,3.1258,3.0666,2.9956,2.9235,2.8578,2.803,2.7492,2.6829,2.6321,2.5989,2.5989,2.5989,2.5719,2.4881,2.5606,2.6103,2.5636,2.6406,2.6722,2.6061,2.6015,2.5576,2.4483,2.3175,2.2101,2.1401,2.0959,2.0565,2.0177,2.0565,2.0413,1.9711,2.0035,2.0019,1.969,2.0172,2.0316,2.0193,2.0848,2.1178,1.5827,1.5511,1.5146,1.5565,1.5285,1.4918,0.0,0.0,1.6174,1.5979,1.6967,1.7957,1.8385,2.031,2.186,2.1829,2.3075,2.4073,2.4129,2.4265,2.4425,2.4666,2.5197,2.5511,2.5511,2.5975,2.6659,2.7407,2.8302,2.917,3.0053,3.029,3.0402,3.0402,2.9864,2.9872,3.049,3.1146,3.1819,3.2422,3.3074,3.3406,3.3406,3.3406,3.3406,3.3406,3.3406,3.3778,3.432,3.3677,3.3821,3.4457,3.4266,3.3711,3.3093,3.3653,3.3329,3.2668,3.2927,3.2594,3.2138,3.2814,3.3034,3.3051,3.3136,3.3102,3.3085,3.3237,3.3288,3.3288,3.3288,3.273,3.2178,3.2053,3.1478,3.0634,2.944,2.9166,2.8796,2.764,2.7387,2.74,2.74,2.74,2.6931,2.5689,2.5601,2.5833,2.624,2.6846,2.7139,2.6831,2.7234,2.6589,2.4182,2.2431,2.1167,2.0481,2.007,1.9818,1.9782,1.9818,1.9782,1.969,1.9747,1.9747,1.969,2.0325,2.0347,1.9812,2.1054,2.1716,1.5608,1.5616,1.5717,0.0,1.6225,1.6464,1.7221,1.7857,1.8452,1.8811,1.9736,2.0567,2.1021,2.2115,2.3158,0.0,2.4292,2.4872,2.5465,2.5259,2.4932,2.4818,2.5008,2.5259,2.5573,2.6126,2.6658,2.6973,2.8247,2.9192,2.9504,3.0865,3.1674,3.1674,3.142,3.1384,3.1637,3.233,3.2796,3.3129,3.4195,3.491,3.5368,3.5368,3.5368,3.5368,3.5368,3.5537,3.5791,3.5504,3.5742,3.6182,3.5693,3.5543,3.5501,3.4554,3.38,3.3276,3.3371,3.3203,3.2983,3.3305,3.3406,3.3406,3.3406,3.3406,3.3491,3.3914,3.4032,3.4032,3.4032,3.3795,3.3457,3.3034,3.2374,3.1692,3.1153,3.0189,2.922,2.8709,2.8394,2.8038,2.7685,2.7904,2.7844,2.6901,2.6752,2.6699,2.6546,2.7009,2.7304,2.7106,2.6932,2.6243,2.4705,2.3333,2.2236,2.1497,2.1091,2.0857,2.0857,2.0857,2.0857,2.0857,2.0857,2.0857,2.0857,2.1141,2.1141,2.0872,2.144,2.1961,1.6106,1.6375,0.0,1.7294,1.7601,1.8024,1.897,1.9576,2.0049,2.0521,2.1545,2.2419,2.2772,2.3677,2.4487,2.5087,2.5445,2.5773,2.6195,2.5598,2.5008,2.4644,2.4456,2.4632,2.531,2.5887,2.6289,2.6521,2.8,2.8981,2.9251,3.1257,3.2436,3.2512,3.2512,3.2512,3.2512,3.3181,3.3725,3.4174,3.5114,3.614,3.7094,3.7094,3.7094,3.7094,3.7094,3.7094,3.7094,3.7094,3.732,3.7558,3.7162,3.7165,3.7231,3.5913,3.4909,3.421,3.4058,3.4015,3.4015,3.4015,3.4015,3.4015,3.4015,3.4167,3.4404,3.4726,3.4945,3.5064,3.4861,3.4641,3.437,3.3829,3.3136,3.2594,3.2594,3.11,2.9694,2.9694,2.894,2.8158,2.7664,2.7979,2.8143,2.7649,2.7625,2.7395,2.6916,2.7191,2.7423,2.7492,2.6767,2.5907,2.4989,2.402,2.3069,2.2202,2.1877,2.1695,2.1695,2.1695,2.1695,2.1695,2.1695,2.1695,2.1695,2.1874,2.1874,2.171,2.2054,2.2383,1.7828,0.0,1.861,1.9319,1.9354,1.9223,1.9272,1.9938,2.0419,2.0007,2.1431,2.2678,2.2688,2.47,2.621,2.5678,2.6504,2.6866,2.5774,2.472,2.4042,2.4029,2.3527,2.3566,0.0,2.531,2.585,2.6483,2.7777,2.8933,2.9938,3.1304,3.2232,3.2467,3.2512,3.2512,3.2512,3.3181,3.421,3.563,3.5603,3.6406,3.7872,3.7872,3.7872,3.7872,3.7872,3.7872,3.7872,3.7872,3.7872,3.795,3.835,3.8294,3.7916,3.8343,3.7551,3.6222,3.5715,3.5554,3.5554,3.5554,3.5554,3.5554,3.5554,3.6079,3.6518,3.5791,3.6129,3.6535,3.5774,3.5047,3.4489,3.4455,3.3897,3.3372,3.3372,3.1841,3.0491,3.0491,2.8945,2.764,2.7625,2.764,2.764,2.7625,2.7625,2.761,2.7595,2.7481,2.764,2.8188,2.7133,2.5834,2.4539,2.3891,2.3068,2.1809,2.1695,2.1695,2.1695,2.1695,2.1695,2.1695,2.1695,2.1695,2.1695,2.2338,2.2323,2.1724,2.2966,2.3236,1.7735,1.865,1.9645,1.976,2.0015,2.0434,2.1303,2.1517,2.1761,2.2601,2.3391,2.4174,2.4998,2.598,2.6666,2.6748,2.6991,2.7023,2.6266,2.5862,2.5234,2.413,2.4456,0.0,0.0,0.0,0.0,2.6483,2.7721,2.8946,2.9965,3.1758,3.3106,3.3814,3.3814,3.3814,3.3814,3.403,3.4406,3.4898,3.6351,3.7312,3.7834,3.8403,3.8633,3.8633,3.8633,3.8633,3.8633,3.8633,3.8633,3.8582,3.8278,3.8061,3.7905,3.8091,3.7814,3.7388,3.7174,3.7144,3.7144,3.7144,3.7144,3.7144,3.7144,3.733,3.7466,3.7212,3.733,3.7347,3.6586,3.6197,3.5876,3.5368,3.4675,3.403,3.3556,3.2245,3.1023,3.0568,2.9959,2.925,2.8397,2.8607,2.8659,2.7745,2.7625,2.7625,2.7625,2.7564,2.761,2.7821,2.6655,2.5682,2.5213,2.4235,2.3415,2.2981,2.2951,2.2951,2.2951,2.2951,2.2951,2.2951,2.2951,2.2951,2.2951,2.3176,2.3176,2.2966,2.2995,2.3128,1.8815,1.9794,2.0839,2.0851,2.1162,2.1637,2.231,2.2022,2.1975,2.3039,2.3511,2.4227,2.5692,2.6367,2.672,2.6722,2.6647,2.642,2.5701,2.5398,2.5096,2.4619,2.5008,2.5285,0.0,0.0,0.0,2.6496,2.7844,2.8956,2.9766,3.18,3.3269,3.4011,3.4345,3.4472,3.4472,3.4472,3.459,3.4898,3.6894,3.778,3.7817,3.8637,3.9143,3.9377,3.9377,3.9377,3.9377,3.9377,3.9377,3.9343,3.887,3.8684,3.8684,3.8684,3.8684,3.8616,3.8091,3.7905,3.7905,3.7905,3.7905,3.7905,3.7905,3.8091,3.8244,3.7973,3.8091,3.8125,3.7381,3.7178,3.706,3.6552,3.5859,3.5211,3.4768,3.3223,3.1756,3.1341,3.0464,2.9639,2.9056,2.9101,2.8936,2.8068,2.7934,2.7934,2.7934,2.7775,2.7715,2.7919,2.6961,2.6213,2.5974,2.4956,2.4223,2.3984,2.3729,2.3595,2.3595,2.3595,2.3595,2.3595,2.3377,2.329,2.329,2.3039,2.2935,2.2935,2.2529,2.2575,2.0911,2.1461,2.2226,2.2456,2.2812,2.2861,2.2041,2.1526,2.1303,2.1453,2.1999,2.3023,0.0,0.0,2.6503,2.5839,2.5701,2.53,2.4315,2.374,2.3991,0.0,0.0,0.0,0.0,0.0,0.0,2.6609,0.0,2.9081,2.9531,3.1466,3.2709,3.3059,3.3977,3.4454,3.4454,3.4532,3.4878,3.5505,3.7022,3.7738,3.7761,3.8504,3.9262,4.002,4.002,4.007,4.007,4.007,4.007,4.007,4.007,4.007,4.007,4.007,4.007,3.9884,3.8497,3.8024,3.8024,3.8024,3.8024,3.8024,3.8024,3.8497,3.8903,3.821,3.8514,3.8886,3.8159,3.7973,3.7956,3.7922,3.733,3.6772,3.6772,3.4592,3.264,3.2606,3.049,2.8891,2.952,2.9086,2.8652,2.8652,2.8652,2.8637,2.8607,2.8053,2.7919,2.8532,2.7979,2.7355,2.6647,2.5989,2.5345,2.4672,2.4014,2.3656,2.3656,2.3612,2.3598,2.3598,2.3022,2.2749,2.2749,2.2063,2.1752,2.1752,2.1663,2.1649,2.1094,2.1698,2.2501,2.285,2.2588,2.206,2.1523,2.1333,2.1416,2.1461,2.2396,2.38,0.0,0.0,0.0,2.7268,2.707,0.0,2.6515,2.703,0.0,2.6904,0.0,2.772,2.7318,2.7896,0.0,0.0,2.8084,2.8851,3.0111,3.1076,3.1893,3.2667,3.3647,3.4132,3.4132,3.4866,3.5299,3.554,3.643,3.693,3.6936,3.771,3.8469,3.9209,3.9209,3.9542,4.007,4.007,4.007,4.007,4.007,4.007,4.007,4.007,4.007,4.002,3.9648,3.9529,3.9529,3.9529,3.9529,3.9529,3.9529,3.9648,3.9766,3.958,3.9648,3.9631,3.8903,3.8717,3.8582,3.8041,3.733,3.6662,3.6121,3.461,3.3173,3.2682,3.1213,3.0073,3.0238,2.9744,2.934,2.934,2.934,2.9146,2.8667,2.8876,2.8951,2.8637,2.7979,2.7355,2.6647,2.5989,2.554,2.5375,2.4684,2.4283,2.4283,2.3737,2.3427,2.3427,2.3292,2.3242,2.3242,2.2636,2.2366,2.2352,2.1475,2.1245,2.183,2.2285,2.2842,2.3076,2.2646,2.2093,2.1946,2.1685,2.157,2.2186,2.2768,0.0,2.5471,0.0,0.0,0.0,0.0,0.0,2.654,2.7293,2.7883,0.0,2.8549,0.0,2.8423,2.8712,2.8913,0.0,2.885,2.9087,2.9718,3.0668,3.1462,3.196,3.289,3.3602,3.4027,3.4986,3.5504,3.5504,3.5958,3.6275,3.6615,3.71,3.7674,3.8414,3.8414,3.887,3.9558,3.9558,3.9782,4.007,4.007,4.007,4.007,4.007,4.007,4.007,4.007,4.007,4.007,4.007,4.007,4.007,4.007,4.007,4.007,4.007,4.007,3.9986,3.958,3.9462,3.9377,3.8954,3.8294,3.7641,3.7234,3.5761,3.4076,3.246,3.149,3.0866,3.0552,3.0223,2.9983,2.9983,2.9983,2.9849,2.9475,2.952,2.9445,2.9071,2.8427,2.7754,2.7081,2.6149,2.557,2.557,2.4576,2.4019,2.4019,2.3598,2.3393,2.3393,2.308,2.2989,2.2989,2.2138,2.1756,2.1743,2.0807,2.0534,2.2679,2.29,2.3203,2.3086,2.2695,2.2412,2.2565,2.2028,2.1877,2.3016,0.0,2.3358,2.4322,2.4569,2.4547,2.4263,0.0,2.5189,2.5866,2.6427,2.7356,2.8863,2.9038,2.9239,2.9741,2.934,2.9252,2.9754,2.9792,2.9578,2.9063,3.0274,3.1031,3.118,3.2105,3.3031,3.4027,3.4986,3.5504,3.5504,3.5504,3.5846,3.6446,3.6446,3.6859,3.7632,3.7632,3.8076,3.8745,3.8745,3.9156,3.9799,3.9901,3.9952,3.9952,4.007,4.007,4.007,4.007,4.007,4.007,4.007,4.007,4.007,4.007,4.007,4.007,4.007,4.007,4.007,4.007,4.007,4.007,4.007,3.9529,3.8988,3.8988,3.7252,3.492,3.2254,3.1668,3.1444,3.0746,3.0642,3.0642,3.0642,3.0642,3.0642,3.0642,3.0178,2.9774,2.9609,2.9071,2.8412,2.7634,2.6389,2.5646,2.5646,2.4295,2.3535,2.3535,2.343,2.3377,2.3377,2.2802,2.2489,2.2489,2.1339,2.0869,2.092,2.0137,1.9849,2.2756,2.335,2.3506,2.2803,2.2031,2.1487,2.1663,2.1716,0.0,0.0,2.348,2.4094,2.4498,2.4423,2.453,2.5276,0.0,0.0,0.0,0.0,2.8787,0.0,0.0,0.0,0.0,0.0,0.0,0.0,2.9792,2.9741,2.9641,2.9871,3.0419,3.118,3.2105,3.3031,3.4027,3.4986,3.5504,3.5504,3.5504,3.5569,3.5668,3.5668,3.6117,3.6783,3.6783,3.7263,3.7978,3.7978,3.8092,3.8262,3.887,3.9086,3.9193,3.9833,4.007,4.007,4.007,4.007,4.007,4.007,4.007,4.007,4.007,4.007,4.007,4.007,4.007,4.007,4.007,4.007,4.007,4.007,3.9529,3.8988,3.8988,3.7252,3.5067,3.2879,3.2415,3.2185,3.1417,3.136,3.136,3.136,3.136,3.136,3.136,3.127,3.0776,2.9699,2.949,2.8906,2.773,2.6828,2.6337,2.6337,2.497,2.4146,2.4146,2.3528,2.3178,2.3178,2.3014,2.2955,2.2955,2.1889,2.1581,2.1995,2.0501,2.0062,2.2849,2.3402,2.3633,2.2998,2.1855,2.121,2.2372,0.0,0.0,0.0,2.3898,2.4114,2.3858,0.0,0.0,0.0,0.0,0.0,0.0,0.0,0.0,0.0,0.0,0.0,0.0,0.0,0.0,2.9792,2.9792,2.9792,2.9792,2.9792,2.9998,3.0495,3.1829,3.282,3.3241,3.4773,3.5504,3.5504,3.5504,3.5504,3.5504,3.5504,3.5668,3.6054,3.6054,3.6461,3.716,3.716,3.7456,3.7822,3.8206,3.858,3.8962,3.9315,3.9731,4.007,4.007,4.007,4.007,4.007,4.007,4.007,4.007,4.007,4.007,4.007,4.007,4.007,4.007,4.007,4.007,4.007,3.9817,3.9462,3.9073,3.7285,3.5457,3.439,3.3305,3.2531,3.2541,3.2557,3.2557,3.2557,3.2258,3.2048,3.2048,3.1749,3.115,3.0163,2.9774,2.919,2.8188,2.6751,2.596,2.596,2.4496,2.3649,2.3649,2.3305,2.3078,2.3078,2.3078,2.3078,2.3078,2.2309,2.2058,2.2284,2.1192,2.0828,2.3012,2.3608,2.3799,2.3271,2.1768,2.098,2.3085,2.2221,0.0,0.0,2.4044,2.371,2.3172,0.0,0.0,0.0,0.0,0.0,0.0,0.0,0.0,0.0,0.0,0.0,0.0,0.0,0.0,2.9792,2.9792,2.9792,2.9792,2.9792,2.9792,2.9792,3.1415,3.2393,3.2593,3.4327,3.5279,3.5504,3.5504,3.5504,3.5504,3.5504,3.5504,3.5504,3.5504,3.5831,3.6384,3.6384,3.6753,3.7294,3.7456,3.7905,3.8453,3.8799,3.9315,3.985,4.002,4.007,4.007,4.007,4.007,4.007,4.007,4.007,4.007,4.007,4.007,4.007,4.007,4.007,4.007,4.007,4.007,3.9884,3.9157,3.7513,3.6142,3.578,3.4224,3.3036,3.3395,3.3499,3.3499,3.3499,3.3051,3.2677,3.2527,3.2063,3.148,3.0806,3.0163,2.9406,2.8441,2.6659,2.548,2.5189,2.3872,2.3078,2.3078,2.3078,2.3078,2.3078,2.3078,2.3078,2.3078,2.2585,2.2255,2.2225,2.1555,2.1193,2.3355,2.4067,2.416,2.334,2.1543,2.0544,2.2592,0.0,0.0,2.3665,2.3466,2.2833,2.2911,2.2959,0.0,0.0,0.0,2.6315,0.0,0.0,0.0,0.0,0.0,0.0,0.0,0.0,0.0,2.9792,2.9792,2.9792,2.9792,2.9792,2.9792,2.9792,3.0758,3.1742,3.2593,3.3602,3.461,3.5504,3.5504,3.5504,3.5504,3.5504,3.5504,3.5504,3.5504,3.5569,3.5619,3.5619,3.5619,3.5797,3.6461,3.6722,3.7008,3.8381,3.8962,3.9086,3.985,4.007,4.007,4.007,4.007,4.007,4.007,4.007,4.007,4.007,4.007,4.007,4.007,4.007,4.007,4.007,4.007,3.9884,3.9157,3.8252,3.7241,3.5931,3.4965,3.4173,3.3592,3.3499,3.3499,3.3499,3.344,3.3185,3.2587,3.2467,3.2168,3.1452,3.0821,2.9618,2.7781,2.6821,2.575,2.4492,2.359,2.3078,2.3078,2.3078,2.3078,2.3078,2.3078,2.3078,2.3078,2.2585,2.2194,2.1906,2.0819,2.0193,2.2284,2.3297,2.3896,2.3291,2.1318,2.0201,2.2834,0.0,2.0437,2.2807,2.2841,2.2497,2.264,2.2679,2.3207,2.4795,2.4681,0.0,0.0,0.0,0.0,0.0,0.0,0.0,0.0,0.0,2.9792,2.9792,2.9792,2.9792,2.9792,2.9792,2.9792,2.9792,3.0696,3.1389,3.1742,3.2678,3.3671,3.461,3.461,3.4905,3.5504,3.5504,3.5504,3.5504,3.5504,3.5504,3.5504,3.5504,3.5504,3.5504,3.5831,3.6228,3.6722,3.7847,3.8525,3.9032,3.9833,4.007,4.007,4.007,4.007,4.007,4.007,4.007,4.007,4.007,4.007,4.007,4.007,4.007,4.007,4.007,4.007,3.9885,3.9122,3.8044,3.6989,3.6353,3.5305,3.4545,3.4685,3.4696,3.4696,3.4696,3.4352,3.3844,3.3185,3.2766,3.2258,3.1541,3.0911,3.0022,2.8857,2.7314,2.599,2.5048,2.3767,2.3078,2.3078,2.3078,2.3078,2.3078,2.3078,2.3078,2.3078,2.2419,2.1982,2.1877,2.0885,2.0359,2.1762,2.2739,2.3328,2.3163,2.1497,2.0512,0.0,0.0,2.0416,2.2152,2.2139,2.1846,2.1918,2.2008,2.2643,2.4414,2.4194,2.4471,2.6383,0.0,0.0,0.0,0.0,0.0,0.0,2.9897,2.9792,2.9792,2.9792,2.9792,2.9792,2.9792,2.9792,2.9792,3.0419,3.0895,3.118,3.1888,3.282,3.4027,3.4027,3.4543,3.5504,3.5504,3.5504,3.5504,3.5504,3.5504,3.5504,3.5504,3.5504,3.5504,3.5504,3.5846,3.6399,3.7397,3.8149,3.869,3.9731,4.007,4.007,4.007,4.007,4.007,4.007,4.007,4.007,4.007,4.007,4.007,4.007,4.007,4.007,4.007,4.007,3.9901,3.9086,3.7952,3.7026,3.6689,3.5596,3.4936,3.5429,3.5504,3.5504,3.5504,3.51,3.4472,3.3604,3.3095,3.2482,3.1556,3.1106,3.0425,2.9603,2.7769,2.6295,2.5406,2.3903,2.3078,2.3078,2.3078,2.3078,2.3078,2.3078,2.3078,2.3078,2.2322,2.1753,2.1491,2.059,2.0074,2.2147,2.2619,2.2637,2.3008,2.2172,2.1571,0.0,0.0,2.1373,2.1978,2.138,2.0689,2.0632,2.0834,2.1567,2.3239,2.4334,2.5437,2.6792,0.0,0.0,0.0,0.0,0.0,0.0,3.0157,2.9792,2.9792,2.9792,0.0,2.9792,2.9792,2.9792,2.9792,2.9792,3.0279,3.118,3.118,3.2177,3.4027,3.4027,3.4543,3.5504,3.5504,3.5504,3.5504,3.5504,3.5504,3.5504,3.5504,3.5504,3.5504,3.5504,3.5504,3.5683,3.7235,3.7806,3.8035,3.9575,4.007,4.007,4.007,4.007,4.007,4.007,4.007,4.007,4.007,4.007,4.007,4.007,4.007,4.007,4.007,4.007,3.9901,3.9086,3.8302,3.7557,3.6722,3.6006,3.5489,3.5504,3.5504,3.5504,3.5504,3.5489,3.5011,3.3664,3.3484,3.2976,3.1616,3.1467,3.0923,2.9508,2.809,2.6699,2.5302,2.3885,2.3078,2.3078,2.3078,2.3078,2.3078,2.3078,2.3078,2.3078,2.2322,2.1428,2.059,1.9694,1.8854,2.0261,2.0824,2.144,2.2162,2.1386,2.0736,2.1899,0.0,2.0785,2.0237,2.0218,2.0142,1.9669,2.0179,2.1011,2.2157,2.3667,2.4611,0.0,0.0,0.0,0.0,0.0,0.0,0.0,0.0,2.9792,2.9792,2.9792,2.9792,2.9792,3.0419,3.0482,2.9792,2.9792,2.9934,3.0203,3.0908,3.1815,3.3031,3.3671,3.4543,3.5504,3.5504,3.5504,3.5504,3.5504,3.5504,3.5504,3.5504,3.5504,3.5504,3.5504,3.5846,3.6399,3.7397,3.8149,3.869,3.9731,4.007,4.007,4.007,4.007,4.007,4.007,4.007,4.007,4.007,4.007,4.007,4.007,4.007,4.007,4.007,4.007,3.9901,3.9086,3.8302,3.7573,3.6737,3.6006,3.5504,3.5504,3.5504,3.5504,3.5504,3.5504,3.5026,3.3664,3.3499,3.2991,3.1616,3.1029,3.0322,2.942,2.8454,2.7133,2.5263,2.4221,2.3552,2.309,2.3078,2.3078,2.3078,2.3078,2.2823,2.2261,2.1428,2.0268,1.8854,1.8529,1.8269,0.0,1.9781,2.0317,2.1037,2.0711,0.0,0.0,0.0,2.0286,1.9261,1.931,1.9278,1.8488,1.9446,2.0511,2.1045,2.2712,2.3833,0.0,0.0,0.0,0.0,0.0,0.0,0.0,2.9795,2.9792,2.9792,3.0139,3.0355,3.0355,3.118,3.1476,3.0846,3.0859,3.0859,3.0859,3.1476,3.2177,3.3171,3.3739,3.4543,3.5504,3.5504,3.5504,3.5504,3.5504,3.5504,0.0,3.5504,3.5504,3.5504,3.5504,3.5782,3.6352,3.7397,3.8092,3.8635,3.9731,4.007,4.007,4.007,4.007,4.007,4.007,4.007,4.007,4.007,4.007,4.007,4.007,4.007,4.007,4.007,4.007,3.9782,3.8707,3.8133,3.7456,3.6399,3.5831,3.5504,3.5504,3.5504,3.5504,3.5504,3.5504,3.5115,3.4008,3.3649,3.3048,3.1839,3.0875,2.994,2.9094,2.8229,2.7174,2.5849,2.463,2.3841,2.3477,2.3251,2.3078,2.3078,2.2823,2.2384,2.1877,2.0719,1.9365,1.8008,1.8008,1.8008,0.0,1.9411,0.0,0.0,0.0,0.0,0.0,0.0,0.0,1.8904,1.8634,1.8273,1.7264,1.8709,2.0034,1.997,2.1579,0.0,0.0,0.0,0.0,0.0,0.0,0.0,2.9512,2.9691,2.9792,2.9792,3.0696,3.118,3.118,3.2177,3.2678,3.2678,3.2749,3.2749,3.2593,3.2664,3.3171,3.4027,3.4095,3.461,3.5504,3.5504,3.5504,3.5504,3.5504,3.5504,3.5504,3.5504,3.5504,3.5504,3.5504,3.5569,3.5861,3.7294,3.7879,3.8149,3.961,4.007,4.007,4.007,4.007,4.007,4.007,4.007,4.007,4.007,4.007,4.007,4.007,4.007,4.007,4.007,4.007,3.9679,3.8206,3.7806,3.7354,3.5846,3.5569,3.5504,3.5504,3.5504,3.5504,3.5504,3.5504,3.5235,3.4502,3.3873,3.3117,3.2089,3.0898,2.9729,2.8516,2.7538,2.6918,2.6801,2.5064,2.4042,2.4004,2.3439,2.3078,2.3078,2.2249,2.1765,2.1737,2.0064,1.8849,1.8105,1.8066,1.8057,1.8009,0.0,1.8692,1.936,1.95,1.9409,0.0,0.0,0.0,0.0,0.0,1.806,1.7245,1.848,1.9623,1.956,2.1078,0.0,0.0,0.0,0.0,0.0,0.0,2.9774,2.9121,2.9479,2.9792,2.9792,3.0696,3.118,3.118,3.2749,3.3671,3.3671,3.4409,3.4124,3.2593,3.331,3.3808,3.4027,3.4758,3.5279,3.5504,3.5504,3.5504,3.5504,3.5504,3.5504,3.5504,3.5504,3.5504,3.5504,3.5504,3.6196,3.7294,3.7648,3.8557,3.961,3.9969,4.007,4.007,4.007,4.007,4.007,4.007,4.007,4.007,4.007,4.007,4.007,4.007,4.007,4.007,4.007,4.007,3.985,3.887,3.8189,3.7515,3.6508,3.5894,3.5504,3.5504,3.5504,3.5504,3.5504,3.5504,3.507,3.3888,3.3589,3.2776,3.0939,2.9874,2.8931,2.7974,2.7683,2.7013,2.5942,2.5113,2.4443,2.4017,2.3439,2.3078,2.3078,2.1678,2.0705,2.0342,1.9287,1.8863,1.8984,1.8643,1.8486,1.7408,1.7794,1.822,1.8612,1.8557,1.8386,0.0,0.0,0.0,0.0,0.0,0.0,1.7003,0.0,0.0,1.9151,2.0448,0.0,0.0,0.0,0.0,0.0,0.0,2.8324,0.0,2.9102,2.9275,2.9792,3.1057,3.1815,3.1815,3.3685,3.4691,3.4691,3.5213,3.5001,3.3905,3.4409,3.4691,3.4691,3.5213,3.5504,3.5504,3.5504,3.5504,3.5504,3.5504,3.5504,3.5504,3.5504,3.5504,3.5504,3.5894,3.6523,3.7338,3.8019,3.8816,3.961,3.9952,4.007,4.007,4.007,4.007,4.007,4.007,4.007,4.007,4.007,4.007,4.007,4.007,4.007,4.007,4.007,3.9833,3.9332,3.858,3.779,3.704,3.6228,3.5782,3.5504,3.5504,3.5504,3.5504,3.5504,3.5504,3.525,3.4517,3.3873,3.2859,3.1133,2.982,2.86,2.7592,2.7317,2.6832,2.608,2.5473,2.5046,2.4745,2.3553,2.2428,2.1353,2.0462,1.9786,1.9302,1.8834,1.8857,1.9277,1.9043,1.8936,1.7043,1.7408,1.7755,1.7861,1.7726,1.7526,1.7462,0.0,0.0,0.0,0.0,0.0,0.0,0.0,0.0,0.0,0.0,0.0,0.0,0.0,0.0,0.0,0.0,0.0,2.8959,2.856,2.8518,2.9456,3.1328,3.2464,3.2593,3.4274,3.5359,3.5504,3.5504,3.5504,3.5504,3.5504,3.5504,3.5504,3.5504,3.5504,3.5504,3.5504,3.5504,3.5504,3.5504,3.5504,3.5504,3.5504,3.5504,3.5554,3.6337,3.6676,3.6964,3.8398,3.8962,3.9193,3.985,4.007,4.007,4.007,4.007,4.007,4.007,4.002,3.9901,3.9901,4.002,4.007,4.007,4.002,3.9901,3.9901,3.9315,3.8525,3.7806,3.7084,3.6384,3.5604,3.5504,3.5504,3.5504,3.5504,3.5504,3.5504,3.5504,3.5474,3.5355,3.4122,3.2855,3.165,2.9904,2.8383,2.7246,2.6728,2.6533,2.6533,2.5912,2.5457,2.5149,2.3381,2.1407,1.9309,1.9372,1.9172,1.874,1.8799,1.9053,1.9482,1.9414,1.9385,1.649,1.6773,1.7199,1.7755,1.7618,1.732,1.7199,0.0,0.0,0.0,0.0,0.0,0.0,0.0,0.0,0.0,0.0,0.0,0.0,0.0,0.0,0.0,0.0,2.6389,2.6268,2.7345,2.8176,2.8347,3.0253,3.1742,3.2522,3.3671,3.461,3.5439,3.5504,3.5504,3.5504,3.5504,3.5504,3.5504,3.5504,3.5504,3.5504,3.5504,3.5504,3.5504,3.5504,3.5504,3.5504,3.5504,3.5504,3.5554,3.6337,3.704,3.7748,3.858,3.9315,3.9952,4.007,4.007,4.007,4.007,4.007,4.007,4.007,3.961,3.9086,3.9086,3.9542,4.007,4.007,3.961,3.9086,3.9086,3.8525,3.7748,3.6964,3.6661,3.6384,3.5604,3.5504,3.5504,3.5504,3.5504,3.5504,3.5504,3.5504,3.5295,3.4711,3.3338,3.184,3.0415,2.8822,2.7577,2.6716,2.6584,2.6533,2.6533,2.5912,2.4843,2.3195,2.1719,2.041,1.9299,1.9609,1.9633,1.9189,1.9541,1.9941,2.0361,1.999,1.9814,1.5661,1.5987,1.6263,1.6527,1.686,1.7125,1.7068,0.0,0.0,0.0,0.0,0.0,0.0,0.0,0.0,0.0,0.0,0.0,0.0,0.0,0.0,0.0,0.0,2.4785,2.5962,2.6816,2.7452,2.8084,3.0025,3.1389,3.1815,3.3241,3.4245,3.4691,3.4857,3.513,3.5504,3.513,3.513,3.5504,3.5504,3.5504,3.5504,3.5504,3.5504,3.5504,3.5504,3.5504,3.5504,3.5504,3.5504,3.5619,3.6814,3.7456,3.7921,3.9102,3.9782,4.002,3.961,3.9437,3.9385,3.8995,3.8832,3.8832,3.8832,3.8596,3.8318,3.8318,3.887,3.9385,3.8941,3.887,3.8799,3.8414,3.7732,3.7024,3.6661,3.6275,3.5894,3.5569,3.5504,3.5504,3.5504,3.5504,3.5504,3.5504,3.5504,3.5175,3.4332,3.3021,3.1559,2.9889,2.8519,2.7351,2.6589,2.6533,2.6533,2.6533,2.5709,2.4498,2.2844,2.1696,2.0504,1.9313,1.9505,1.9613,1.9629,1.9814,2.0137,2.0557,2.0361,2.0264,1.498,1.5412,1.5668,1.5647,1.6039,1.645,1.6458,0.0,0.0,0.0,0.0,0.0,0.0,0.0,0.0,0.0,0.0,0.0,0.0,2.1172,2.1888,2.3278,2.2848,2.3297,2.5362,2.6157,2.6837,2.7519,2.9655,3.0917,3.0995,3.24,3.3317,3.3595,3.3818,3.4297,3.5026,3.4666,3.4816,3.5504,3.5504,3.5504,3.5504,3.5504,3.5504,3.5504,3.5504,3.5504,3.5504,3.5668,3.5782,3.5894,3.7456,3.8149,3.843,3.9437,3.9952,4.002,3.9368,3.9086,3.8799,3.8246,3.7921,3.7822,3.7822,3.769,3.7515,3.7515,3.7962,3.8286,3.7921,3.8076,3.823,3.7674,3.6919,3.6337,3.6337,3.5894,3.5504,3.5504,3.5504,3.5504,3.5504,3.5504,3.5504,3.5504,3.5294,3.4861,3.3893,3.2487,3.101,2.9462,2.8153,2.7162,2.6521,2.6314,2.6164,2.6164,2.5109,2.3989,2.2962,2.1613,2.0398,1.9297,1.9385,1.959,1.9912,2.0019,2.0244,2.0566,2.0566,2.0566,1.4698,1.5287,1.5896,1.6044,1.5472,0.0,1.4858,1.5291,0.0,0.0,0.0,0.0,0.0,0.0,0.0,0.0,0.0,0.0,2.166,0.0,2.2139,2.3026,2.2725,2.2605,2.2804,2.5059,2.6363,2.5983,2.8409,3.0062,3.0454,3.0559,3.1198,3.2299,3.237,3.2781,3.3634,3.4188,3.4816,3.5504,3.5504,3.5504,3.5504,3.5504,3.5504,3.5504,3.5504,3.5504,3.5554,3.6228,3.6492,3.6661,3.823,3.9262,3.985,3.9209,3.9437,4.007,4.002,3.9542,3.8908,3.8854,3.8358,3.7822,3.7822,3.7279,3.6661,3.6661,3.6722,3.6904,3.7632,3.7279,3.6783,3.6737,3.6117,3.5554,3.5554,3.5569,3.5504,3.5504,3.5504,3.5504,3.5504,3.5504,3.5504,3.5504,3.4691,3.3893,3.3368,3.1198,2.9449,2.8836,2.7468,2.6589,2.6533,2.5664,2.5087,2.5087,2.3826,2.2984,2.288,2.0669,1.9389,1.9287,1.9668,1.9883,1.9912,2.0322,2.0537,2.0566,2.0566,2.0566,1.4035,1.4645,1.5128,1.4771,0.0,0.0,0.0,0.0,0.0,0.0,0.0,0.0,0.0,0.0,0.0,0.0,0.0,2.0879,2.1758,2.1885,2.2002,2.2324,2.2762,2.2961,2.2961,2.5123,2.6453,2.6256,2.7761,2.8785,2.8997,2.9523,3.0027,3.0542,3.1211,3.1927,3.2679,3.3075,3.3589,3.4262,3.51,3.5504,3.5504,3.5504,3.5265,3.4861,3.4861,3.4637,3.4247,3.4575,3.4896,3.5494,3.7442,3.8718,3.9395,3.9043,3.9086,3.9209,3.8286,3.77,3.7408,3.6919,3.66,3.6368,3.6368,3.6133,3.5894,3.5894,3.5894,3.6006,3.6321,3.6461,3.6492,3.5991,3.5733,3.5504,3.5504,3.5504,3.5504,3.5504,3.4986,3.4773,3.5359,3.4491,3.3891,3.4476,3.3479,3.2387,3.1556,3.0048,2.8707,2.7901,2.7056,2.6533,2.6533,2.6164,2.5664,2.5004,2.3346,2.2368,2.2368,2.0893,2.0088,2.0088,2.0234,2.0322,2.0322,2.0478,2.0566,2.0566,2.0566,2.0566,1.362,1.419,1.4743,0.0,0.0,0.0,0.0,0.0,0.0,0.0,0.0,0.0,0.0,0.0,0.0,0.0,2.0108,2.0664,2.1562,2.1553,2.1725,2.2309,2.2827,2.3271,2.3577,2.5378,2.6427,2.6249,2.7385,2.8034,2.7858,2.8453,2.883,2.8924,2.9673,3.0446,3.1155,3.1769,3.233,3.2773,3.4196,3.4981,3.5175,3.5175,3.4921,3.4472,3.4262,3.3903,3.3499,3.3774,3.4266,3.5059,3.6535,3.7472,3.8001,3.8154,3.8237,3.8089,3.7286,3.6783,3.6492,3.6006,3.5668,3.5504,3.5504,3.5504,3.5504,3.5504,3.5504,3.5439,3.5133,3.5672,3.6117,3.5619,3.5504,3.5504,3.5504,3.5504,3.5504,3.5504,3.492,3.4691,3.5359,3.4109,3.3241,3.3876,3.2667,3.1297,3.0519,2.928,2.8131,2.7125,2.6747,2.6533,2.6533,2.6233,2.5734,2.5004,2.3147,2.2027,2.2027,2.1078,2.0566,2.0566,2.0566,2.0566,2.0566,2.0566,2.0566,2.0566,2.0566,2.0566,1.353,1.4081,0.0,0.0,0.0,0.0,0.0,0.0,0.0,0.0,0.0,0.0,0.0,0.0,0.0,1.9433,1.9728,2.0215,2.1103,2.084,2.1252,2.3127,2.2993,2.3107,2.4102,2.564,2.6336,2.585,2.7225,2.7846,2.7306,2.7268,2.7411,2.7696,2.767,2.8117,2.9002,3.0458,3.1209,3.1224,3.2744,3.3829,3.4472,3.4472,3.4472,3.4427,3.3769,3.3484,3.3531,3.434,3.5084,3.5754,3.5732,3.5732,3.5867,3.6478,3.6718,3.687,3.7534,3.7247,3.6584,3.6584,3.6102,3.5489,3.5489,3.5489,3.5489,3.5489,3.5489,3.5279,3.4245,3.4758,3.5504,3.5504,3.5504,3.5504,3.5504,3.5504,3.5439,3.5439,3.5439,3.5439,3.5439,3.461,3.3959,3.3959,3.2379,3.0969,3.0428,2.907,2.7682,2.6647,2.6533,2.6533,2.6533,2.5594,2.5004,2.5004,2.3147,2.2027,2.2027,2.1078,2.0566,2.0566,2.0566,2.0566,2.0566,2.0566,2.0566,2.0566,2.0566,2.0566,1.3816,1.4036,0.0,0.0,0.0,0.0,0.0,0.0,0.0,0.0,0.0,0.0,1.849,0.0,0.0,1.9314,1.9426,1.9979,2.1522,2.1686,2.2067,2.3318,2.3976,2.4411,2.4714,2.5816,2.6433,2.633,2.6702,2.6879,2.6716,2.6703,2.6754,2.685,2.7417,2.7802,2.8051,2.9104,2.9631,2.9645,3.1147,3.2529,3.3784,3.3784,3.3529,3.308,3.2886,3.2542,3.2167,3.2926,3.3357,3.3661,3.4622,3.5011,3.5038,3.5219,3.5316,3.529,3.4922,3.4638,3.4409,3.4409,3.4254,3.3958,3.3328,3.32,3.3143,3.2968,3.2894,3.2925,3.2989,3.3255,3.3616,3.4327,3.4461,3.4461,3.4461,3.3891,3.3463,3.3463,3.2904,3.2692,3.3325,3.2132,3.1267,3.196,3.0616,2.94,2.8839,2.8075,2.7406,2.708,2.676,2.6533,2.6533,2.6245,2.5734,2.5004,2.4409,2.3452,2.2027,2.1078,2.0566,2.0566,2.0566,2.0566,2.0566,2.0566,2.0566,2.0566,2.0566,2.0566,1.3517,0.0,0.0,0.0,0.0,0.0,0.0,0.0,0.0,0.0,0.0,0.0,1.8448,1.8335,0.0,1.8955,1.9023,1.9476,2.0744,2.091,2.1281,2.2295,2.3228,2.3956,2.4386,2.5247,2.5812,2.5812,2.5812,2.5812,2.5812,2.5812,2.59,2.6113,2.6614,2.6984,2.7217,2.8051,2.8492,2.8505,2.9554,3.0506,3.1431,3.2599,3.2886,3.2497,3.2243,3.1898,3.1524,3.1951,3.2176,3.2262,3.3403,3.3669,3.3443,3.3783,3.3825,3.378,3.3276,3.3275,3.3499,3.3499,3.3285,3.2882,3.2347,3.2012,3.1678,3.1511,3.1473,3.1557,3.1673,3.1858,3.2208,3.3198,3.3449,3.3449,3.3449,3.3031,3.2593,3.2593,3.2177,3.196,3.2536,3.1328,3.0558,3.1106,3.011,2.9063,2.8499,2.7946,2.7532,2.7306,2.6791,2.6533,2.6533,2.6533,2.6245,2.5652,2.5229,2.448,2.322,2.1897,2.1155,2.1155,2.0789,2.0566,2.0566,2.0566,2.0566,2.0566,2.0566,2.0566,0.0,0.0,0.0,0.0,0.0,0.0,0.0,0.0,0.0,0.0,0.0,1.9126,1.8586,1.8282,1.8184,1.8525,1.8613,1.8769,1.9315,1.9403,1.9775,2.0825,2.1644,2.2525,2.3435,2.4263,2.4795,2.4745,2.4795,2.4795,2.4745,2.4795,2.5034,2.5511,2.5523,2.5774,2.637,2.7074,2.7459,2.7446,2.7849,2.8022,2.8111,3.0804,3.205,3.202,3.1367,3.1099,3.1099,3.1174,3.1217,3.1287,3.2038,3.1926,3.1402,3.2087,3.2262,3.2109,3.2109,3.2497,3.2943,3.2943,3.2405,3.1746,3.1739,3.1222,3.0643,3.0687,3.0648,3.0596,3.0268,3.0398,3.0856,3.1799,3.2129,3.2214,3.2299,3.2214,3.2072,3.2143,3.2228,3.2242,3.2225,3.1529,3.0979,3.1031,3.0343,2.9578,2.9001,2.8448,2.7896,2.7344,2.6791,2.6533,2.6533,2.6533,2.6452,2.6383,2.5523,2.4933,2.4862,2.2999,2.2027,2.2027,2.1078,2.0566,2.0566,2.0566,2.0566,2.0566,2.0566,2.0566,0.0,0.0,0.0,0.0,0.0,0.0,0.0,0.0,0.0,0.0,0.0,1.9008,1.7988,1.8193,1.8428,1.8184,1.8418,1.8943,1.9782,2.0253,2.0825,2.1782,2.2672,2.3223,2.3501,2.4263,2.4644,2.4205,2.4569,2.4632,2.4192,2.4582,2.487,2.4983,2.4983,2.5046,2.5172,2.5355,2.542,2.5407,2.6196,2.6564,2.6564,2.7875,2.8403,2.8403,2.8262,2.8205,2.8248,2.8697,2.8983,2.9101,2.9783,2.9994,3.0053,3.0202,2.9863,2.926,2.926,2.8986,2.8601,2.8601,2.8482,2.8326,2.8094,2.7924,2.7814,2.8075,2.8125,2.8184,2.8486,2.8036,2.757,2.7817,2.8505,2.9301,3.0007,2.898,2.8114,2.8912,2.9083,2.9211,2.9587,2.9527,2.9542,2.9999,2.9934,2.9578,2.9001,2.8448,2.7896,2.7344,2.6791,2.6533,2.6533,2.6533,2.6164,2.537,2.5158,2.4636,2.3891,2.2627,2.2027,2.2027,2.1078,2.0566,2.0566,2.0566,2.0566,2.0566,2.0566,2.0167,0.0,0.0,0.0,0.0,0.0,0.0,0.0,0.0,0.0,0.0,0.0,1.7969,1.7605,1.7785,1.7969,1.7744,1.8057,1.84,1.8782,1.9206,1.962,2.016,2.0951,2.1395,2.1147,2.2242,2.28,2.2333,2.287,2.31,2.2811,2.3075,2.3477,2.3991,2.4017,2.428,2.4808,2.482,2.482,2.482,2.4681,2.4503,2.4331,2.6353,2.7329,2.7329,2.7329,2.7329,2.7298,2.7631,2.7813,2.7896,2.8236,2.8411,2.8438,2.8163,2.7996,2.7825,2.7541,2.7397,2.7329,2.7329,2.7047,2.6695,2.6552,2.6216,2.5974,2.6375,2.6188,2.6024,2.6797,2.6041,2.5159,2.5402,2.6151,2.6841,2.7311,2.6653,2.6235,2.7162,2.7385,2.7483,2.7765,2.7814,2.7912,2.8206,2.8884,2.9176,2.8612,2.8285,2.7896,2.7344,2.6791,2.6314,2.5804,2.5804,2.5358,2.4337,2.4264,2.4047,2.3514,2.2553,2.2027,2.2027,2.1078,2.0566,2.0566,2.0566,2.0323,1.9835,1.9835,1.9274,0.0,0.0,0.0,0.0,0.0,0.0,0.0,0.0,0.0,0.0,1.6009,1.6822,1.7223,1.7275,1.7246,1.7168,1.751,1.7666,1.7324,1.7637,1.79,1.79,1.8675,1.9059,1.8712,2.0011,2.0783,2.0442,2.1082,2.1443,2.1355,2.1443,2.1907,2.2824,2.2849,2.3301,2.4243,2.4243,2.4243,2.4243,2.3288,2.2611,2.2266,2.5052,2.6407,2.6613,2.6613,2.6613,2.6553,2.6663,2.6768,2.6803,2.69,2.6945,2.6909,2.6438,2.6434,2.672,2.6194,2.6274,2.6613,2.6613,2.6089,2.5608,2.5713,2.5216,2.4718,2.5099,2.4701,2.4246,2.5087,2.4196,2.3294,2.3782,2.4139,2.4526,2.4835,2.4758,2.4901,2.5878,2.6174,2.6233,2.6233,2.6304,2.6375,2.6375,2.7463,2.8038,2.7496,2.7422,2.7212,2.667,2.6284,2.5652,2.4779,2.4707,2.4337,2.3294,2.3062,2.2903,2.2754,2.178,2.1171,2.1171,2.0605,2.0323,2.0323,2.0157,1.959,1.8718,1.8718,1.8069,0.0,0.0,0.0,0.0,0.0,0.0,0.0,0.0,0.0,0.0,1.5887,1.6723,1.6768,1.6816,1.6689,1.6299,1.6611,1.6821,1.6826,1.7197,1.7471,1.7471,1.8206,1.8754,1.9017,1.9924,2.0544,2.064,2.1162,2.128,2.0857,2.123,2.1556,2.1707,2.1707,2.1782,2.1933,2.1933,2.1933,2.1933,2.1782,2.1669,2.1606,2.2089,2.277,2.3628,2.3628,2.3628,2.3726,2.4249,2.4572,2.4731,2.5236,2.5526,2.5619,2.555,2.5184,2.4678,2.4598,2.4158,2.3628,2.3628,2.358,2.3621,2.4128,2.423,2.4079,2.3874,2.3676,2.3538,2.3349,2.2512,2.1786,2.2242,2.1737,2.1712,2.3345,2.3036,2.2735,2.3705,2.4276,2.4582,2.4582,2.502,2.5404,2.5404,2.5538,2.5467,2.4865,2.4808,2.4614,2.4039,2.3925,2.3818,2.3745,2.3672,2.3294,2.2253,2.1293,2.0449,1.964,1.8523,1.7963,1.7963,1.8789,1.9195,1.9195,1.823,1.7658,1.7496,1.7496,1.6927,0.0,0.0,0.0,0.0,0.0,0.0,0.0,0.0,0.0,1.4953,1.5429,1.5762,1.6292,1.6357,1.6289,1.6154,1.6445,1.6641,1.6396,1.6738,1.7021,1.7021,1.7312,1.7688,1.7997,1.8767,1.9305,1.9551,2.0176,2.0439,2.02,2.0413,2.069,2.1016,2.1029,2.1179,2.1493,2.1493,2.133,2.1029,2.0619,2.0674,2.1029,2.0619,2.128,2.2673,2.2673,2.2849,2.309,2.3414,2.3533,2.3628,2.3872,2.4046,2.4092,2.4092,2.393,2.3662,2.3662,2.3424,2.3078,2.3078,2.3078,2.3055,2.2862,2.2811,2.2732,2.2449,2.1912,2.1552,2.1701,2.0988,2.0313,2.0747,2.0301,2.0202,2.1236,2.1148,2.1148,2.2166,2.2691,2.3005,2.3005,2.3264,2.3416,2.3416,2.4182,2.4487,2.3906,2.4086,2.4063,2.357,2.3514,2.3051,2.1889,2.1738,2.1054,1.9455,1.8894,1.8514,1.8069,1.7577,1.7342,1.7342,1.7827,1.8069,1.8069,1.7577,1.7009,1.6437,1.6437,1.5433,0.0,0.0,0.0,0.0,0.0,0.0,0.0,0.0,0.0,0.0,1.4674,1.4828,1.5498,1.5752,1.5898,1.5898,1.6172,1.6318,1.6154,1.6357,1.6562,1.6562,1.6562,1.6747,1.7281,1.7794,1.836,1.8963,1.9475,1.9798,1.9798,1.9798,1.9999,2.0439,2.0451,2.0639,2.1054,2.1054,2.079,2.025,1.9829,1.9932,2.0439,1.9878,2.0459,2.1895,2.2046,2.2334,2.2723,2.2874,2.2924,2.2924,2.2924,2.2924,2.2924,2.2924,2.2924,2.2949,2.3027,2.3078,2.3078,2.2884,2.2823,2.2628,2.1815,2.1553,2.1446,2.1027,2.0342,1.9839,2.018,1.9676,1.9228,1.9658,1.9512,1.9375,1.9687,1.9756,1.9999,2.0831,2.1267,2.1525,2.1638,2.1659,2.1659,2.1659,2.2626,2.3178,2.282,2.3091,2.3091,2.2414,2.2382,2.1597,1.974,1.9584,1.8964,1.7415,1.7009,1.6927,1.6927,1.6609,1.6527,1.6527,1.6527,1.6609,1.6927,1.6609,1.6116,1.5296,1.4942,1.3931,0.0,0.0,0.0,0.0,0.0,0.0,0.0,0.0,0.0,1.3015,1.3623,1.417,1.4228,1.4893,1.5449,1.5449,1.5459,1.5615,1.6066,1.6145,1.6154,1.6154,1.6154,1.6505,1.7501,1.7611,1.8201,1.9643,1.9798,1.9798,1.9798,1.9798,1.9811,1.9849,1.9849,1.9861,1.9886,1.9886,1.9623,1.9071,1.9559,1.9797,1.9849,1.9797,2.0175,2.0832,2.1305,2.1543,2.1606,2.2133,2.2347,2.2347,2.2347,2.2347,2.2347,2.2347,2.2347,2.2422,2.289,2.3078,2.2944,2.2199,2.1939,2.1815,2.091,2.0655,2.0473,1.966,1.9407,1.9245,1.8824,1.8672,1.8779,1.9219,1.9307,1.9297,1.9316,1.9316,1.9434,1.9909,2.0007,2.0154,2.0566,2.0634,2.0634,2.0634,2.0731,2.0819,2.0712,2.0809,2.0411,1.9353,1.9265,1.8789,1.7577,1.7496,1.7415,1.7342,1.6355,1.5779,1.5779,1.4817,1.425,1.425,1.425,1.4734,1.5779,1.4734,1.425,1.4166,1.3021,1.2407,0.0,0.0,0.0,0.0,0.0,0.0,0.0,0.0,1.3514,1.4424,1.4144,1.3818,1.4029,1.4609,1.501,1.501,1.5234,1.5371,1.5264,1.5244,1.5137,1.4853,1.4824,1.5134,1.5956,1.6431,1.7117,1.814,1.8884,1.9309,1.9309,1.9623,1.9798,1.9798,1.9472,1.9133,1.8781,1.9133,1.9208,1.8983,1.8582,1.8661,1.9097,1.8608,1.8768,1.9454,2.0101,2.0815,2.1506,2.1707,2.1782,2.1782,2.1782,2.1782,2.1782,2.1782,2.1782,2.1807,2.2008,2.2309,2.2421,2.1608,2.1592,2.1616,2.0204,1.9759,1.9552,1.8721,1.8462,1.8434,1.8262,1.8232,1.8271,1.8437,1.8672,1.8789,1.8525,1.8896,1.9248,1.9121,1.9541,1.9873,1.9766,1.9746,1.9834,2.0107,2.0146,2.0014,1.965,1.9599,1.9116,1.8069,1.7908,1.7496,1.6355,1.6273,1.5951,1.5311,1.4901,1.465,1.465,1.4334,1.4088,1.4088,1.4088,1.425,1.465,1.3542,1.2942,1.2942,1.1729,1.0783,1.4932,0.0,0.0,0.0,0.0,0.0,0.0,0.0,1.3326,1.4642,1.4037,1.3379,1.3662,1.4062,1.4404,1.4541,1.4805,1.4883,1.4609,1.457,1.4463,1.4116,1.4077,1.4387,1.5133,1.5596,1.6266,1.723,1.802,1.8536,1.8695,1.9083,1.9258,1.9258,1.8932,1.848,1.794,1.848,1.8656,1.8432,1.8195,1.8307,1.879,1.8205,1.8232,1.8703,1.8799,1.967,2.0941,2.0896,2.0859,2.0859,2.0568,2.0511,2.0511,2.0748,2.0859,2.094,2.1362,2.1661,2.1746,2.0889,2.0811,2.0782,1.9299,1.8844,1.8721,1.8134,1.8008,1.8008,1.8008,1.8008,1.8008,1.8008,1.8223,1.835,1.8076,1.8457,1.8818,1.8592,1.9209,1.9619,1.9336,1.9521,1.9756,1.9893,1.9726,1.9446,1.9079,1.9036,1.8559,1.7415,1.7666,1.7253,1.5861,1.5696,1.5213,1.4173,1.4088,1.4088,1.4088,1.4088,1.4088,1.4088,1.4088,1.4088,1.4088,1.2857,1.2328,1.2242,1.0783,0.9405,0.0,0.0,0.0,0.0,0.0,0.0,0.0,0.0,1.259,1.3365,1.3215,1.292,1.2929,1.3213,1.3623,1.398,1.4058,1.4077,1.4058,1.4058,1.4058,1.4048,1.4048,1.4347,1.5039,1.5142,1.5756,1.7085,1.7242,1.7509,1.8131,1.8191,1.8191,1.8179,1.8179,1.7915,1.7363,1.7903,1.7915,1.74,1.8445,1.897,1.8921,1.8738,1.8626,1.859,1.7466,1.7996,1.9683,1.9588,1.9543,1.9432,1.8771,1.8487,1.8544,1.9277,1.9567,1.9749,2.0952,2.1198,2.0781,2.0014,1.9532,1.909,1.8269,1.8008,1.8008,1.8008,1.8008,1.8008,1.8008,1.8008,1.8008,1.8008,1.8008,1.8008,1.8008,1.8008,1.8135,1.8545,1.8965,1.9268,1.9248,1.9951,2.0371,1.9876,1.9319,1.8948,1.8877,1.8957,1.847,1.7342,1.823,1.798,1.5861,1.5613,1.522,1.4173,1.4088,1.4088,1.4088,1.4088,1.4088,1.4088,1.4088,1.4088,1.4088,1.2857,1.2242,1.2151,0.9923,0.8189,1.5027,0.0,0.0,0.0,0.0,0.0,0.0,0.0,1.4324,1.4123,1.3974,1.3732,1.3017,1.2978,1.3096,1.3213,1.374,1.397,1.3721,1.3682,1.3574,1.3262,1.3232,1.3322,1.3511,1.3924,1.4339,0.0,1.595,1.6739,1.6892,1.7718,1.8028,1.7614,1.7614,1.7338,1.676,1.7325,1.7539,1.74,1.7971,1.8003,1.7604,1.7508,1.7283,1.6877,1.6661,1.6825,1.728,1.7594,1.7695,1.7741,1.7822,1.7846,1.7957,1.867,1.8604,1.8299,1.9161,1.9333,1.9088,1.8549,1.8543,1.8674,1.817,1.8008,1.8008,1.8008,1.8008,1.8008,1.8008,1.8008,1.8008,1.8008,1.8008,1.8008,1.8008,1.8008,1.8047,1.8154,1.8525,1.8721,1.8418,1.8809,1.8937,1.8369,1.8434,1.8066,1.6806,1.7253,1.709,1.5144,1.5951,1.6026,1.465,1.4573,1.4412,1.4088,1.4088,1.4088,1.4088,1.4088,1.4088,1.4088,1.4088,1.4088,1.4088,1.2857,1.1895,1.1042,0.8707,0.7404,1.5179,1.5043,0.0,0.0,0.0,0.0,1.5021,1.5108,1.498,1.4334,1.4393,1.4248,1.3233,1.3642,1.3835,1.3154,1.3667,1.3892,1.3322,1.3242,1.3154,1.291,1.2881,1.2881,1.2881,1.3238,1.3552,1.3768,1.4758,1.5533,1.6039,1.6971,1.735,1.7036,1.7024,1.6861,1.6522,1.6861,1.7024,1.7036,1.7194,1.7387,1.7533,1.6672,1.6351,1.6468,1.556,1.5185,1.5145,1.5423,1.5922,1.6525,1.6674,1.6687,1.68,1.7512,1.7523,1.7257,1.8015,1.8205,1.8154,1.7891,1.8049,1.8309,1.8055,1.8008,1.8008,1.8008,1.8008,1.8008,1.8008,1.8008,1.8008,1.8008,1.8008,1.8008,1.8008,1.8008,1.8008,1.8008,1.8496,1.8721,1.8115,1.8289,1.8311,1.7624,1.7095,1.6534,1.5619,1.6064,1.6044,1.4887,1.5703,1.5951,1.4894,1.4734,1.4573,1.4173,1.4088,1.4088,1.4088,1.4088,1.4088,1.4088,1.4088,1.4088,1.4088,1.2857,1.1466,0.9836,0.8009,0.7139,1.5328,1.5163,1.4951,0.0,0.0,0.0,1.4938,1.5046,1.5075,1.4296,1.466,1.4783,1.3816,1.476,1.5274,1.3828,1.39,1.3841,1.3017,1.2881,1.2881,1.2881,1.2881,1.2881,1.2881,1.2881,1.3104,1.3637,1.3779,1.4318,1.5454,1.6051,1.638,1.638,1.6466,1.6522,1.6522,1.6522,1.6522,1.6479,1.6454,1.701,1.8056,1.6014,1.5747,1.6703,1.443,1.3437,1.3447,1.3535,1.4395,1.5623,1.5432,1.5342,1.54,1.6187,1.6436,1.6482,1.7191,1.7528,1.7533,1.7585,1.7654,1.7803,1.7852,1.7871,1.7881,1.793,1.7978,1.8008,1.8008,1.8008,1.8008,1.8008,1.8008,1.8008,1.8008,1.8008,1.8008,1.8008,1.8623,1.8906,1.8144,1.8253,1.8218,1.7288,1.6046,1.5194,1.5253,1.5408,1.5544,1.5508,1.6519,1.6683,1.5621,1.5538,1.5137,1.4166,1.4088,1.4088,1.4088,1.4088,1.4088,1.4088,1.4088,1.4088,1.4088,1.2857,1.1214,0.9061,0.7841,0.7234,1.5389,0.0,0.0,0.0,0.0,0.0,1.4422,1.5128,1.5674,1.5031,1.5628,1.6166,1.5793,1.5862,1.5868,1.5617,1.4878,1.3996,1.3055,1.2881,1.2881,1.2881,1.2881,1.2881,1.2881,1.2881,1.2978,1.3065,1.3552,1.4097,1.4835,1.5454,1.5776,1.5776,1.6238,1.6522,1.6522,1.6522,1.6522,1.6479,1.6454,1.6827,1.7493,1.5572,1.5088,1.5695,1.3836,1.2998,1.3057,1.374,1.3959,1.4027,1.4655,1.4902,1.5064,1.6131,1.6151,1.569,1.6482,1.6311,1.595,1.6307,1.6422,1.6504,1.6875,1.6982,1.7051,1.7412,1.7744,1.8008,1.8008,1.8008,1.8008,1.8008,1.8008,1.8008,1.8008,1.8008,1.8008,1.8008,1.8144,1.8203,1.8037,1.8356,1.8237,1.7207,1.7336,1.7019,1.537,1.6171,1.6293,1.4566,1.5387,1.5545,1.4489,1.4412,1.4328,1.4088,1.4088,1.4088,1.4088,1.4088,1.4088,1.4088,1.4088,1.4088,1.4088,1.2857,1.1638,1.0269,0.9061,0.8089,0.0,0.0,0.0,1.5117,0.0,0.0,0.0,1.5227,1.5618,1.4862,1.5546,1.6218,1.5932,1.6441,1.6771,1.641,1.6019,1.5469,1.4563,1.3532,1.2881,1.2881,1.2881,1.2881,1.2881,1.2881,1.2881,1.2881,1.3467,1.3909,1.4236,1.4824,1.5276,1.5588,1.5908,1.6194,1.6522,1.6522,1.6522,1.6479,1.5873,1.6043,1.6812,1.4703,1.4213,1.4969,1.3527,1.2881,1.293,1.3555,1.3691,1.3613,1.4678,1.5098,1.5174,1.5726,1.57,1.5468,1.5806,1.584,1.5771,1.5986,1.6211,1.6436,1.667,1.6665,1.6826,1.7256,1.7539,1.7744,1.7959,1.8008,1.8008,1.8008,1.8008,1.8008,1.8008,1.8008,1.8008,1.8008,1.8008,1.8008,1.8008,1.7932,1.7617,1.6901,1.6931,1.6539,1.5027,1.5736,1.5777,1.423,1.4573,1.465,1.4173,1.4088,1.4088,1.4088,1.4088,1.4088,1.4088,1.4088,1.4088,1.4088,1.4088,1.4088,1.4088,1.347,1.2595,1.1381,0.9666,0.8593,0.0,0.0,0.0,0.0,0.0,1.5691,0.0,0.0,0.0,1.4768,0.0,0.0,0.0,0.0,0.0,1.7037,0.0,0.0,0.0,1.4665,0.0,1.3457,1.3409,1.3324,1.32,1.3017,1.2881,1.2881,1.3324,1.3637,1.3637,1.419,1.4732,1.5219,1.5499,1.582,1.6337,1.6423,1.6522,1.6479,1.5287,1.528,1.6302,1.3951,1.3528,1.4528,1.339,1.2881,1.292,1.3418,1.3633,1.374,1.4853,1.5293,1.5303,1.5381,1.541,1.541,1.541,1.5644,1.5998,1.5998,1.6182,1.6475,1.6475,1.6533,1.667,1.7031,1.7256,1.7461,1.7803,1.7949,1.8008,1.8008,1.8008,1.8008,1.8008,1.8008,1.8008,1.8008,1.8008,1.8008,1.8008,1.7647,1.7238,1.6899,1.6546,1.5971,1.4981,1.5245,1.5183,1.4223,1.4088,1.4088,1.4088,1.4088,1.4088,1.4088,1.4088,1.4088,1.4088,1.4088,1.4088,1.4088,1.4088,1.4088,1.4088,1.4088,1.347,1.2242,1.0438,0.9428,0.0,0.0,0.0,0.0,1.5342,0.0,0.0,0.0,1.5449,1.5731,0.0,0.0,0.0,0.0,0.0,0.0,0.0,0.0,1.7316,1.6243,1.5384,1.5481,1.5316,1.4937,1.4215,1.3372,1.2881,1.2881,1.2968,1.3017,1.3017,1.3552,1.3909,1.3993,1.5039,1.5632,1.572,1.6238,1.6522,1.6479,1.5287,1.528,1.6302,1.3951,1.3528,1.4528,1.339,1.2881,1.2939,1.374,1.4009,1.4111,1.4648,1.4853,1.4902,1.5273,1.541,1.541,1.541,1.5439,1.5488,1.5488,1.5518,1.5566,1.5566,1.583,1.6213,1.6262,1.6777,1.7393,1.7441,1.7734,1.8008,1.8008,1.8008,1.8008,1.8008,1.8008,1.8008,1.8008,1.8008,1.8008,1.8008,1.7979,1.792,1.7872,1.8072,1.7677,1.6027,1.6239,1.5885,1.43,1.4088,1.4088,1.4088,1.4088,1.4088,1.4088,1.4088,1.4088,1.4088,1.4088,1.4088,1.4088,1.4088,1.4088,1.4088,1.4088,1.347,1.2322,1.2066,1.1413,0.0,0.0,0.0,0.0,0.0,0.0,1.5134,0.0,1.5655,0.0,0.0,0.0,0.0,0.0,0.0,0.0,1.727,0.0,0.0,0.0,1.6716,1.5911,0.0,0.0,1.4389,1.4435,1.4297,1.3768,1.3721,1.3721,1.3721,1.342,1.342,1.3779,1.4272,1.4732,1.505,1.5332,1.5478,1.5433,1.4606,1.4428,1.4838,1.3511,1.3164,1.3598,1.3096,1.2881,1.293,1.3525,1.3916,1.418,1.4619,1.4932,1.5176,1.5352,1.541,1.541,1.541,1.541,1.541,1.541,1.541,1.541,1.541,1.5537,1.5732,1.5986,1.6328,1.6738,1.7256,1.7519,1.7705,1.7949,1.8008,1.8008,1.8008,1.8008,1.8008,1.8008,1.8008,1.8008,1.8008,1.8008,1.8008,1.8008,1.8369,1.8114,1.6729,1.7009,1.684,1.5706,1.5027,1.4778,1.5039,1.4496,1.4088,1.4088,1.4088,1.4088,1.4088,1.4088,1.4088,1.4088,1.4088,1.4088,1.4088,1.4088,1.3822,1.3294,1.2589,1.2037,1.5582,0.0,0.0,0.0,0.0,0.0,0.0,0.0,0.0,0.0,0.0,0.0,0.0,0.0,1.6215,1.7016,0.0,1.6978,0.0,1.7488,0.0,0.0,0.0,0.0,0.0,1.544,1.544,1.4733,1.4699,1.4562,1.4297,1.3637,1.3372,1.3552,1.3732,1.4003,1.4468,1.4617,1.4698,1.4698,1.4097,1.3815,1.3779,1.32,1.2881,1.2881,1.2881,1.2881,1.291,1.334,1.3691,1.4014,1.457,1.4971,1.5254,1.5371,1.541,1.541,1.541,1.541,1.541,1.541,1.541,1.541,1.541,1.541,1.5478,1.5791,1.6027,1.6272,1.6855,1.7109,1.7305,1.7734,1.7842,1.7871,1.7988,1.8008,1.8008,1.8008,1.8008,1.8008,1.8008,1.8008,1.8008,1.8008,1.8271,1.8075,1.709,1.7295,1.7269,1.6723,1.5992,1.5587,1.5666,1.4977,1.4412,1.4088,1.4088,1.4088,1.4088,1.4088,1.4088,1.4088,1.4088,1.4088,1.4088,1.4088,1.4088,1.4088,1.3203,1.2766,0.0,0.0,0.0,1.4377,0.0,0.0,0.0,0.0,1.6123,0.0,0.0,0.0,1.5428,1.5281,1.5514,1.6388,1.6317,0.0,0.0,0.0,0.0,0.0,0.0,0.0,0.0,1.6127,1.5704,1.566,1.566,1.5262,1.4343,1.425,1.3862,1.2978,1.3515,1.3815,1.3815,1.4422,1.4698,1.4698,1.4097,1.3815,1.3779,1.32,1.2881,1.2881,1.2881,1.2881,1.291,1.334,1.3516,1.3613,1.4453,1.4795,1.4853,1.5264,1.541,1.541,1.541,1.541,1.541,1.541,1.541,1.541,1.541,1.541,1.541,1.543,1.5732,1.6135,1.6154,1.6426,1.6865,1.7305,1.7402,1.7519,1.793,1.8008,1.8008,1.8008,1.8008,1.8008,1.8008,1.8008,1.8008,1.8008,1.8018,1.7751,1.7063,1.6973,1.6972,1.6698,1.6694,1.6365,1.5749,1.5703,1.522,1.4173,1.4088,1.4088,1.4088,1.4088,1.4088,1.4088,1.4088,1.4088,1.4088,1.4088,1.4088,1.4088,1.4088,1.3997,1.5468,1.564,1.5672,1.4452,1.5143,0.0,0.0,0.0,0.0,0.0,0.0,0.0,0.0,1.5527,1.5355,1.5664,1.5632,1.5674,0.0,1.6074,0.0,0.0,0.0,0.0,0.0,0.0,1.7286,1.6663,1.6621,1.6225,1.5262,1.4653,1.3862,1.2929,1.3113,1.319,1.319,1.343,1.3525,1.3525,1.3286,1.319,1.32,1.2968,1.2881,1.2881,1.2881,1.2881,1.2891,1.3037,1.3418,1.3955,1.4238,1.4697,1.5215,1.5361,1.541,1.541,1.541,1.541,1.541,1.541,1.541,1.541,1.541,1.541,1.541,1.541,1.5518,1.5693,1.6047,1.6172,1.6475,1.7207,1.7383,1.75,1.792,1.8008,1.8008,1.8008,1.8008,1.8008,1.8008,1.8008,1.8008,1.8008,1.8008,1.792,1.771,1.765,1.7718,1.7962,1.7347,1.6899,1.7055,1.5967,1.4996,1.4159,1.4088,1.4088,1.4088,1.4088,1.4088,1.4088,1.4088,1.4088,1.4088,1.4088,1.4088,1.4088,1.4088,1.4088,1.5295,1.5624,1.5777,1.4445,1.5127,1.6133,1.5936,1.6501,1.7063,0.0,0.0,0.0,0.0,1.5641,1.5482,1.5312,1.5328,1.5328,0.0,1.5367,0.0,0.0,0.0,0.0,0.0,1.7772,1.8018,1.7626,1.7585,1.7024,1.5748,1.5139,1.4215,1.2929,1.2881,1.2881,1.2881,1.2881,1.2881,1.2881,1.2881,1.2881,1.2881,1.2881,1.2881,1.2881,1.2881,1.2881,1.2881,1.2881,1.3281,1.3926,1.4019,1.457,1.5205,1.5352,1.541,1.541,1.541,1.541,1.541,1.541,1.541,1.541,1.541,1.541,1.5478,1.5791,1.5654,1.5547,1.6143,1.6064,1.6055,1.6943,1.7148,1.7305,1.7881,1.8008,1.8008,1.8008,1.8008,1.8008,1.8008,1.8008,1.8008,1.8008,1.8008,1.8008,1.8008,1.8008,1.8164,1.8594,1.7986,1.747,1.7392,1.6063,1.5003,1.4159,1.4088,1.4088,1.4088,1.4088,1.4135,1.4242,1.4142,1.4135,1.4242,1.4135,1.3906,1.347,1.347,1.3209]},{"header":{"parameterUnit":"m.s-1","parameterCategory":1,"la1":30.6,"la2":29.2853,"lo1":-89.7004,"lo2":-87.6739,"dy":0.0162,"dx":0.0183,"nx":112,"ny":82,"refTime":"2023-06-08T06:00:00:Z","depth":0,"parameterNumber":3,"parameterNumberName":"V-component_of_WINDS"},"data":[0.0,0.0,0.0,0.0,0.0,0.0,0.0,0.0,0.0,0.0,0.0,0.0,0.0,0.0,0.0,0.0,0.0,0.0,0.0,0.0,0.0,0.0,0.0,0.0,0.0,0.0,0.0,0.0,0.0,0.0,0.0,0.0,0.0,0.0,0.0,0.0,0.0,0.0,0.0,0.0,0.0,0.0,0.0,0.0,0.0,0.0,0.0,0.0,0.0,0.0,0.0,0.0,0.0,0.0,0.0,0.0,0.0,0.0,0.0,0.0,0.0,0.0,0.0,0.0,0.0,0.0,0.0,0.0,0.0,0.0,0.0,0.0,0.0,0.0,0.0,0.0,0.0,0.0,0.0,0.0,0.0,0.0,0.0,0.0,0.0,0.0,0.0,0.0,0.0,0.0,0.2888,0.1974,0.3013,0.3815,0.3786,0.2591,0.1932,0.2112,0.0,0.0,0.0,0.0,0.0,0.0,0.0,0.0,0.0,0.0,0.0,0.0,0.0,0.0,0.0,0.0,0.0,0.0,0.0,0.0,0.0,0.0,0.0,0.0,0.0,0.0,0.0,0.0,0.0,0.0,0.0,0.0,0.0,0.0,0.0,0.0,0.0,0.0,0.0,0.0,0.0,0.0,0.0,0.0,0.0,0.0,0.0,0.0,0.0,0.0,0.0,0.0,0.0,0.0,0.0,0.0,0.0,0.0,0.0,0.0,0.0,0.0,0.0,0.0,0.0,0.0,0.0,0.0,0.0,0.0,0.0,0.0,0.0,0.0,0.0,0.0,0.0,0.0,0.0,0.0,0.0,0.0,0.0,0.0,0.0,0.0,0.0,0.0,0.0,0.0,0.0,0.0,0.0,0.0,0.0,0.0,0.0,0.0,0.0,0.0,0.0,0.0,0.0,0.0,0.1369,0.0421,0.0533,0.0687,0.066,0.0461,0.0771,0.1801,0.0,0.0,0.0,0.0,0.0,0.0,0.0,0.0,0.0,0.0,0.0,0.0,0.0,0.0,0.0,0.0,0.0,0.0,0.0,0.0,0.0,0.0,0.0,0.0,0.0,0.0,0.0,0.0,0.0,0.0,0.0,0.0,0.0,0.0,0.0,0.0,0.0,0.0,0.0,0.0,0.0,0.0,0.0,0.0,0.0,0.0,0.0,0.0,0.0,0.0,0.0,0.0,0.0,0.0,0.0,0.0,0.0,0.0,0.0,0.0,0.0,0.0,0.0,0.0,0.0,0.0,0.0,0.0,0.0,0.0,0.0,0.0,0.0,0.0,0.0,0.0,0.0,0.0,0.0,0.0,0.0,0.0,0.0,0.0,0.0,0.0,0.0,0.0,0.0,0.0,0.0,0.0,0.0,0.0,0.0,0.0,0.0,0.0,0.0,0.0,0.0,0.0,0.0,-0.0249,-0.0408,-0.0053,0.0,0.0,0.0,0.0,0.0592,0.195,0.3032,0.0,0.0,0.0,0.0,0.0,0.0,0.0,0.0,0.0,0.0,0.0,0.0,0.0,0.0,0.0,0.0,0.0,0.0,0.0,0.0,0.0,0.0,0.0,0.0,0.0,0.0,0.0,0.0,0.0,0.0,0.0,0.0,0.0,0.0,0.0,0.0,0.0,0.0,0.0,0.0,0.0,0.0,0.0,0.0,0.0,0.0,0.0,0.0,0.0,0.0,0.0,0.0,0.0,0.0,0.0,0.0,0.0,0.0,0.0,0.0,0.0,0.0,0.0,0.0,0.0,0.0,0.0,0.0,0.0,0.0,0.0,0.0,0.0,0.0,0.0,0.0,0.0,0.0,0.0,0.0,0.0,0.0,0.0,0.0,0.0,0.0,0.0,0.0,0.0,0.0,0.0,0.0,0.0,0.0,0.0,0.0,0.0,0.0,0.0,0.0,0.0,0.0,-0.1761,-0.2077,-0.1151,-0.0427,0.0,0.0,0.0802,0.1501,0.2055,0.3373,0.0,0.0,0.0,0.0,0.0,0.0,0.0,0.0,0.0,0.0,0.0,0.0,0.0,0.0,0.0,0.0,0.0,0.0,0.0,0.0,0.0,0.0,0.0,0.0,0.0,0.0,0.0,0.0,0.0,0.0,0.0,0.0,0.0,0.0,0.0,0.0,0.0,0.0,0.0,0.0,0.0,0.0,0.0,0.0,0.0,0.0,0.0,0.0,0.0,0.0,0.0,0.0,0.0,0.0,0.0,0.0,0.0,0.0,0.0,0.0,0.0,0.0,0.0,0.0,0.0,0.0,0.0,0.0,0.0,0.0,0.0,0.0,0.0,0.0,0.0,0.0,0.0,0.0,0.0,0.0,0.0,0.0,0.0,0.0,0.0,0.0,0.0,0.0,0.0,0.0,0.0,0.0,0.0,0.0,0.0,0.0,0.0,0.0,0.0,0.0,0.0,0.0,-0.169,-0.3325,-0.4093,-0.1678,0.0,0.0,0.3105,0.4131,0.1957,0.3465,0.0,0.0,0.0,0.0,0.0,0.0,0.0,0.0,0.0,0.0,0.0,0.0,0.0,0.0,0.0,0.0,0.0,0.0,0.0,0.0,0.0,0.0,0.0,0.0,0.0,0.0,0.0,0.0,0.0,0.0,0.0,0.0,0.0,0.0,0.0,0.0,0.0,0.0,0.0,0.0,0.0,0.0,0.0,0.0,0.0,0.0,0.0,0.0,0.0,0.0,0.0,0.0,0.0,0.0,0.0,0.0,0.0,0.0,0.0,0.0,0.0,0.0,0.0,0.0,0.0,0.0,0.0,0.0,0.0,0.0,0.0,0.0,0.0,0.0,0.0,0.0,0.0,0.0,0.0,0.0,0.0,0.0,0.0,0.0,0.0,0.0,0.0,0.0,0.0,0.0,0.0,0.0,0.0,0.0,0.0,0.0,0.0,0.0,0.0,0.0,0.0,0.0,-0.1526,-0.2633,0.0,-0.2303,-0.1449,-0.0873,0.0228,0.1219,0.1899,0.0,0.0,0.0,0.0,0.0,0.0,0.0,0.0,0.0,0.0,0.0,0.0,0.0,0.0,0.0,0.0,0.0,0.0,0.0,0.0,0.0,0.0,0.0,0.0,0.0,0.0,0.0,0.0,0.0,0.0,0.0,0.0,0.0,0.0,0.0,0.0,0.0,0.0,0.0,0.0,0.0,0.0,0.0,0.0,0.0,0.0,0.0,0.0,0.0,0.0,0.0,0.0,0.0,0.0,0.0,0.0,0.0,0.0,0.0,0.0,0.0,0.0,0.0,0.0,0.0,0.0,0.0,0.0,0.0,0.0,0.0,0.0,0.0,0.0,0.0,0.0,0.0,0.0,0.0,0.0,0.0,0.0,0.0,0.0,0.0,0.0,0.0,0.0,0.0,0.0,0.0,0.0,0.0,0.0,0.0,0.0,0.0,0.0,0.0,0.0,0.0,0.0,-0.0499,-0.164,-0.253,0.0,-0.2832,-0.2562,-0.1938,-0.1523,-0.0464,0.1618,0.0,0.0,0.0,0.0,0.0,0.0,0.0,0.0,0.0,0.0,0.0,0.0,0.0,0.0,0.0,0.0,0.0,0.0,0.0,0.0,0.0,0.0,0.0,0.0,0.0,0.0,0.0,0.0,0.0,0.0,0.0,0.0,0.0,0.0,0.0,0.0,0.0,0.0,0.0,0.0,0.0,0.0,0.0,0.0,0.0,0.0,0.0,0.0,0.0,0.0,0.0,0.0,0.0,0.0,0.0,0.0,0.0,0.0,0.0,0.0,0.0,0.0,0.0,0.0,0.0,0.0,0.0,0.0,0.0,0.0,0.0,0.0,0.0,0.0,0.0,0.0,0.0,0.0,0.0,0.0,0.0,0.0,0.0,0.0,0.0,0.0,0.0,0.0,0.0,0.0,0.0,0.0,0.0,0.0,0.0,0.0,0.0,0.0,0.0,0.0,0.0,0.0,-0.0396,-0.2093,-0.3377,-0.3591,-0.3288,-0.3085,-0.3085,-0.14,0.0094,0.0,0.0,0.0,0.0,0.0,0.0,0.0,0.0,0.0,0.0,0.0,0.0,0.0,0.0,0.0,0.0,0.0,0.0,0.0,0.0,0.0,0.0,0.0,0.0,0.0,0.0,0.0,0.0,0.0,0.0,0.0,0.0,0.0,0.0,0.0,0.0,0.0,0.0,0.0,0.0,0.0,0.0,0.0,0.0,0.0,0.0,0.0,0.0,0.0,0.0,0.0,0.0,0.0,0.0,0.0,0.0,0.0,0.0,0.0,0.0,0.0,0.0,0.0,0.0,0.0,0.0,0.0,0.0,0.0,0.0,0.0,0.0,0.0,0.0,0.0,0.0,0.0,0.0,0.0,0.0,0.0,0.0,0.0,0.0,0.0,0.0,0.0,0.0,0.0,0.0,0.0,0.0,0.0,0.0,0.0,0.0,0.0,0.0,0.0,0.0,0.0,0.0,0.0,-0.0396,-0.2002,-0.3282,-0.3548,-0.35,-0.3433,-0.3326,-0.2909,-0.169,0.0408,0.0,0.0,0.0,0.0,0.0,0.0,0.0,0.0,0.0,0.0,0.0,0.0,0.0,0.0,0.0,0.0,0.0,0.0,0.0,0.0,0.0,0.0,0.0,0.0,0.0,0.0,0.0,0.0,0.0,0.0,0.0,0.0,0.0,0.0,0.0,0.0,0.0,0.0,0.0,0.0,0.0,0.0,0.0,0.0,0.0,0.0,0.0,0.0,0.0,0.0,0.0,0.0,0.0,0.0,0.0,0.0,0.0,0.0,0.0,0.0,0.0,0.0,0.0,0.0,0.0,0.0,0.0,0.0,0.0,0.0,0.0,0.0,0.0,0.0,0.0,0.0,0.0,0.0,0.0,0.0,0.0,0.0,0.0,0.0,0.0,0.0,0.0,0.0,0.0,0.0,0.0,0.0,0.0,0.0,0.0,0.0,0.0,0.0,0.0,0.0,0.0,0.0,-0.0495,-0.2043,-0.3239,-0.3548,-0.3524,-0.3449,-0.3358,-0.3644,-0.2976,-0.1029,0.0,0.0,0.0,0.0,0.0,0.0,0.0,0.0,0.0,0.0,0.0,0.0,0.0,0.0,0.0,0.0,0.0,0.0,0.0,0.0,0.0,0.0,0.0,0.0,0.0,0.0,0.0,0.0,0.0,0.0,0.0,0.0,0.0,0.0,0.0,0.0,0.0,0.0,0.0,0.0,0.0,0.0,0.0,0.0,0.0,0.0,0.0,0.0,0.0,0.0,0.0,0.0,0.0,0.0,0.0,0.0,0.0,0.0,0.0,0.0,0.0,0.0,0.0,0.0,0.0,0.0,0.0,0.0,0.0,0.0,0.0,0.0,0.0,0.0,0.0,0.0,0.0,0.0,0.0,0.0,0.0,0.0,0.0,0.0,0.0,0.0,0.0,0.0,0.0,0.0,0.0,0.0,0.0,0.0,0.0,0.0,0.0,0.0,0.0,0.0,0.0,0.0,-0.0644,-0.2223,-0.3373,-0.3591,-0.3538,-0.3451,-0.3409,-0.3946,-0.3883,-0.2846,0.0,0.0,0.0,0.0,0.0,0.0,0.0,0.0,0.0,0.0,0.0,0.0,0.0,0.0,0.0,0.0,0.0,0.0,0.0,0.0,0.0,0.0,0.0,0.0,0.0,0.0,0.0,0.0,0.0,0.0,0.0,0.0,0.0,0.0,0.0,0.0,0.0,0.0,0.0,0.0,0.0,0.0,0.0,0.0,0.0,0.0,0.0,0.0,0.0,0.0,0.0,0.0,0.0,0.0,0.0,0.0,0.0,0.0,0.0,0.0,-0.3962,-0.3767,0.0,0.0,0.0,0.0,0.0,0.0,0.0,0.0,0.0,0.0,0.0,0.0,0.0,0.0,0.0,0.0,0.0,0.0,0.0,0.0,0.0,0.0,0.0,0.0,0.0,0.0,0.0,0.0,0.0,0.0,0.0,0.0,0.0,0.0,0.0,0.0,0.0,0.0,0.0,0.0,-0.0744,-0.3023,-0.4395,-0.369,-0.4366,-0.4676,-0.4203,-0.4719,-0.4582,-0.3456,-0.3328,0.0,0.0,0.0,0.0,0.0,0.0,0.0,0.0,0.0,0.0,0.0,0.0,0.0,0.0,0.0,0.0,0.0,0.0,0.0,0.0,0.0,0.0,0.0,0.0,0.0,0.0,0.0,0.0,0.0,0.0,0.0,0.0,0.0,0.0,0.0,0.0,0.0,0.0,0.0,0.0,0.0,0.0,0.0,0.0,0.0,0.0,0.0,0.0,0.0,0.0,0.0,0.0,0.0,0.0,0.0,0.0,0.0,0.0,0.0,-0.401,-0.3906,0.0,0.0,0.0,0.0,0.0,0.0,0.0,0.0,0.0,0.0,0.0,0.0,0.0,0.0,0.0,0.0,0.0,0.0,0.0,0.0,0.0,0.0,0.0,0.0,0.0,0.0,0.0,0.0,0.0,0.0,0.0,0.0,0.0,0.0,0.0,0.0,0.0,0.0,0.0,0.0,-0.2376,-0.3766,-0.4605,-0.4426,-0.47,-0.487,-0.4826,-0.5394,-0.5476,-0.4896,-0.4595,0.0,0.0,0.0,0.0,0.0,0.0,0.0,0.0,0.0,0.0,0.0,0.0,0.0,0.0,0.0,0.0,0.0,0.0,0.0,0.0,0.0,0.0,0.0,0.0,0.0,0.0,0.0,0.0,0.0,0.0,0.0,0.0,0.0,0.0,0.0,0.0,0.0,0.0,0.0,0.0,0.0,0.0,0.0,0.0,0.0,0.0,0.0,0.0,0.0,0.0,0.0,0.0,0.0,-0.5112,-0.4961,-0.518,-0.5736,-0.5604,-0.4878,-0.4578,-0.4529,-0.451,-0.3503,0.0,0.0,0.0,0.0,0.0,0.0,0.0,0.0,0.0,0.0,0.0,0.0,0.0,0.0,0.0,0.0,0.0,0.0,0.0,0.0,0.0,0.0,-0.6365,-0.7591,-0.8037,-0.7518,-0.5399,0.0,0.0,0.0,0.0,0.0,0.0,0.0,0.0,0.0,0.0,0.0,-0.4163,-0.4538,-0.4856,-0.524,-0.5038,-0.5053,-0.5489,-0.6064,-0.644,-0.6488,-0.6141,-0.6481,0.0,0.0,0.0,0.0,0.0,0.0,0.0,0.0,0.0,0.0,0.0,0.0,0.0,0.0,0.0,0.0,0.0,0.0,0.0,0.0,0.0,0.0,0.0,0.0,0.0,0.0,0.0,0.0,0.0,0.0,0.0,0.0,-0.5841,-0.773,0.0,0.0,0.0,0.0,0.0,0.0,0.0,0.0,0.0,0.0,0.0,0.0,0.0,-0.5204,-0.6624,-0.6039,-0.6466,-0.7941,-0.7853,-0.7726,-0.7481,-0.7326,-0.7054,-0.6696,-0.593,0.0,-0.5618,-0.5014,0.0,0.0,0.0,0.0,0.0,0.0,0.0,0.0,0.0,0.0,0.0,0.0,0.0,0.0,0.0,0.0,0.0,0.0,0.0,0.0,0.0,0.0,-0.9864,-1.0273,-1.0677,-1.0769,-1.0043,-0.7647,-0.6029,-0.7222,-0.6345,-0.4892,0.0,0.0,0.0,0.0,0.0,0.0,-0.4191,-0.5569,-0.6295,-0.5389,-0.6118,-0.6606,-0.6445,-0.7001,-0.7432,-0.7655,-0.8124,-0.8385,-0.831,-0.7992,0.0,0.0,0.0,0.0,0.0,0.0,0.0,0.0,0.0,0.0,0.0,0.0,0.0,0.0,0.0,0.0,0.0,0.0,0.0,0.0,0.0,0.0,0.0,0.0,0.0,0.0,0.0,0.0,0.0,-0.6794,-0.8314,-1.0168,-0.9397,-0.8491,0.0,0.0,0.0,0.0,0.0,0.0,0.0,0.0,0.0,-0.7397,-0.7077,-0.7285,-0.822,-0.764,-0.7797,-0.8617,-0.8457,-0.839,-0.8424,-0.8287,-0.7959,-0.7434,-0.7019,-0.6867,-0.6828,-0.5984,-0.6208,-0.6946,0.0,0.0,0.0,0.0,-0.5096,-0.5248,-0.5572,-0.6146,-0.6686,-0.6573,0.0,0.0,0.0,0.0,0.0,0.0,0.0,-0.6906,-0.8276,-0.9261,-1.0279,-1.1728,-1.2097,-1.2184,-1.2595,-1.1192,-0.9903,-1.0051,-0.9547,-0.9036,-0.8756,-0.7868,0.0,0.0,0.0,-0.6756,-0.699,-0.7062,-0.6972,-0.6796,-0.6933,-0.7119,-0.7298,-0.7893,-0.8318,-0.8461,-0.929,-0.97,-0.9516,-0.9242,-0.8669,0.0,0.0,0.0,0.0,0.0,0.0,0.0,0.0,0.0,0.0,0.0,0.0,0.0,0.0,0.0,0.0,0.0,0.0,0.0,0.0,0.0,0.0,0.0,0.0,0.0,0.0,0.0,0.0,-0.8469,-1.0241,-1.2068,-1.1383,-1.0593,0.0,0.0,0.0,0.0,0.0,0.0,-0.8458,-0.8579,-0.9067,-1.0076,-0.9661,-0.961,-0.9926,-0.9163,-0.8841,-0.9061,-0.8687,-0.8597,-0.8804,-0.8804,-0.848,-0.7996,-0.8063,-0.8093,-0.8015,-0.6949,-0.6889,-0.7414,-0.67,-0.6577,-0.6773,-0.6313,-0.6237,-0.639,-0.6602,-0.6856,-0.7115,-0.7635,-0.752,-0.7178,-0.7413,0.0,0.0,0.0,0.0,-0.7869,-0.9519,-1.0256,-1.1092,-1.2941,-1.322,-1.3296,-1.3932,-1.3643,-1.2953,-1.2151,-1.1926,-1.2059,-1.2797,-1.0964,0.0,0.0,0.0,-0.843,-0.9417,-0.8358,-0.7713,-0.8105,-0.7631,-0.7561,-0.8222,-0.8732,-0.9133,-0.936,-1.0268,-1.066,-1.0514,-1.038,-1.0005,-0.934,0.0,0.0,0.0,0.0,0.0,0.0,0.0,0.0,0.0,0.0,0.0,0.0,0.0,0.0,0.0,0.0,0.0,0.0,0.0,0.0,0.0,0.0,0.0,0.0,0.0,0.0,0.0,0.0,0.0,-1.2058,-1.3654,0.0,0.0,0.0,0.0,-0.982,-0.9394,-0.9632,-1.0496,-1.0573,-1.1001,-1.1906,-1.1589,-1.1361,-1.1414,-1.0306,-0.9747,-0.9762,-0.9093,-0.8791,-0.8804,-0.8804,-0.8758,-0.8771,-0.9044,-0.9101,-0.9026,-0.8027,-0.8178,-0.8967,-0.7604,-0.7344,-0.7682,-0.7218,-0.7131,-0.738,-0.8339,-0.8666,-0.8672,-0.8732,-0.9131,-0.9504,-0.9025,-0.8853,0.0,0.0,-0.855,-0.9717,-1.0849,-1.2355,-1.3671,-1.3994,-1.4379,-1.4554,-1.4165,-1.4048,-1.3902,-1.3462,-1.3114,-1.2838,-1.2874,0.0,-1.228,-1.1088,-1.106,-1.0868,-0.9989,-0.9252,-0.8835,-0.8835,-0.8247,-0.8276,-0.9234,-0.9354,-0.9779,-1.0638,-1.1323,-1.144,-1.0788,-1.1358,-1.1366,-1.0712,-1.0277,0.0,0.0,0.0,0.0,0.0,0.0,0.0,0.0,0.0,0.0,0.0,0.0,0.0,0.0,0.0,0.0,0.0,0.0,0.0,0.0,0.0,0.0,0.0,0.0,0.0,0.0,0.0,0.0,-1.4825,-1.5491,0.0,-1.5566,-1.5198,-1.4404,-1.3103,-1.3893,-1.428,-1.3947,-1.4177,-1.4297,-1.4106,-1.3527,-1.3037,-1.2537,-1.1706,-1.1269,-1.1269,-1.0348,-0.9875,-0.9868,-0.915,-0.8804,-0.8824,-0.9057,-0.9183,-0.919,-0.9045,-0.9199,-0.9449,-0.8994,-0.8863,-0.9058,-0.9419,-0.9596,-0.9726,-1.0623,-1.074,-1.0514,-1.0185,-1.0269,-1.0533,-1.1073,-1.1251,-1.1319,-1.1686,-1.2132,-1.2662,-1.336,-1.3998,-1.4524,-1.4865,-1.4863,-1.4814,-1.4932,-1.4521,-1.417,-1.4307,-1.3769,-1.3221,-1.2962,-1.2879,-1.2744,-1.228,-1.1899,-1.1504,-1.1169,-1.0531,-0.9951,-0.9512,-0.927,-0.9271,-0.9634,-1.0031,-1.0631,-1.1408,-1.2089,-1.2403,-1.2157,-1.1931,-1.1665,-1.1466,-1.1325,-0.9811,0.0,0.0,0.0,0.0,0.0,0.0,0.0,0.0,0.0,0.0,0.0,0.0,0.0,0.0,0.0,0.0,0.0,0.0,0.0,0.0,0.0,0.0,0.0,0.0,0.0,0.0,-1.5146,-1.7036,-1.7801,-1.8286,-1.8481,-1.7891,-1.7289,-1.6858,-1.7291,-1.731,-1.6715,-1.7008,-1.6785,-1.6019,-1.5403,-1.475,-1.4035,-1.2976,-1.2427,-1.2427,-1.1516,-1.102,-1.1013,-1.0255,-0.9897,-0.9911,-1.0231,-1.02,-0.9938,-1.0537,-1.0673,-1.0415,-1.0154,-0.9966,-0.9931,-1.0666,-1.0736,-1.0629,-1.1415,-1.1707,-1.1676,-1.1582,-1.1558,-1.1757,-1.272,-1.3023,-1.3212,-1.4067,-1.4355,-1.4453,-1.4883,-1.5,-1.5068,-1.5342,-1.5205,-1.5068,-1.5352,-1.4961,-1.4609,-1.4756,-1.4092,-1.3423,-1.3233,-1.2485,-1.184,-1.1592,-1.0777,-1.0165,-1.0216,-1.0196,-1.0,-0.9535,-0.9859,-1.0218,-1.0466,-1.0817,-1.1378,-1.2098,-1.2622,-1.2881,-1.2891,-1.1805,-1.148,-1.2172,-1.1274,-0.9631,-0.7182,0.0,0.0,0.0,0.0,0.0,0.0,0.0,0.0,0.0,0.0,0.0,0.0,0.0,0.0,0.0,0.0,0.0,0.0,0.0,0.0,0.0,0.0,0.0,-1.4087,-1.6297,-1.7923,-1.8517,-2.0706,-2.1945,-2.131,-2.0661,-2.0481,-2.1055,-1.9321,-1.8406,-1.8792,-1.873,-1.8374,-1.7689,-1.7101,-1.6496,-1.5932,-1.4074,-1.3177,-1.3177,-1.2508,-1.2167,-1.2167,-1.2103,-1.2095,-1.212,-1.2447,-1.2129,-1.1435,-1.2575,-1.2544,-1.1796,-1.1193,-1.0675,-1.0268,-1.0827,-1.0552,-0.999,-1.0758,-1.1535,-1.2278,-1.2922,-1.3141,-1.3259,-1.3936,-1.4107,-1.4268,-1.4697,-1.4834,-1.4941,-1.5352,-1.5439,-1.543,-1.543,-1.542,-1.541,-1.541,-1.541,-1.5293,-1.4939,-1.4174,-1.3595,-1.3699,-1.1638,-0.9798,-0.9234,-0.8019,0.0,-0.7245,-0.8331,-0.9004,-0.896,-1.0113,-1.1091,-1.1751,-1.1651,-1.1932,-1.2842,-1.2894,-1.2878,-1.292,-1.1011,-1.0897,-1.2867,-1.0333,-0.9188,-0.975,0.0,0.0,0.0,0.0,0.0,0.0,0.0,0.0,0.0,0.0,0.0,0.0,0.0,0.0,0.0,0.0,0.0,0.0,0.0,0.0,0.0,0.0,-1.6775,-1.7322,-1.8988,-2.0811,-2.2658,-2.3935,-2.4555,-2.4378,-2.3803,-2.328,-2.2926,-2.1943,-2.1192,-2.0729,-2.0699,-2.0362,-1.9641,-1.8589,-1.766,-1.7005,-1.5541,-1.4764,-1.4764,-1.3771,-1.3352,-1.3286,-1.25,-1.2095,-1.2128,-1.2764,-1.292,-1.2712,-1.3592,-1.3404,-1.2568,-1.2443,-1.235,-1.23,-1.3033,-1.3521,-1.3834,-1.3725,-1.3858,-1.4044,-1.3905,-1.3809,-1.392,-1.4457,-1.4814,-1.5156,-1.5586,-1.5947,-1.6221,-1.6338,-1.6123,-1.5889,-1.5889,-1.5644,-1.5526,-1.6093,-1.5748,-1.5545,-1.594,-1.5605,-1.4877,-1.3763,-1.2707,-1.1998,-1.1852,-1.1778,0.0,-1.1353,-1.1851,-1.1842,-1.0865,-1.1523,-1.1895,-1.1595,-1.1964,-1.2437,-1.2861,-1.2886,-1.2915,-1.2891,-1.237,-1.2354,-1.2886,-1.115,-1.0352,0.0,0.0,0.0,0.0,0.0,0.0,0.0,0.0,0.0,0.0,0.0,0.0,0.0,0.0,0.0,0.0,0.0,0.0,0.0,0.0,0.0,0.0,-1.8115,-2.0524,-2.1728,-2.2527,-2.3507,-2.485,-2.5869,-2.6318,-2.6048,-2.5443,-2.4883,-2.4387,-2.346,-2.262,-2.1889,-2.2058,-2.1786,-2.0905,-2.0052,-1.9134,-1.8099,-1.7015,-1.6307,-1.5967,-1.5286,-1.4993,-1.4984,-1.4319,-1.4042,-1.406,-1.4459,-1.4462,-1.424,-1.5014,-1.4811,-1.3975,0.0,0.0,0.0,0.0,-1.4493,-1.4923,-1.4857,-1.508,-1.5273,-1.5029,-1.4941,-1.5029,-1.5469,-1.5644,-1.5781,-1.6221,-1.6533,-1.6665,-1.6665,-1.6396,-1.6125,-1.6125,-1.5732,-1.5584,-1.6322,-1.6151,-1.6093,-1.681,-1.6645,0.0,-1.5153,-1.3949,-1.3124,-1.3204,-1.2388,-1.1712,-1.1479,-1.2086,-1.2192,-1.1195,-1.2223,-1.2666,-1.2156,-1.2413,0.0,0.0,0.0,-1.2619,-1.2018,-1.2604,0.0,0.0,0.0,-1.1369,-1.3077,-1.1226,0.0,0.0,-1.1318,-0.9695,0.0,0.0,0.0,0.0,0.0,0.0,0.0,0.0,0.0,0.0,0.0,0.0,0.0,0.0,0.0,0.0,-2.0823,-2.3964,-2.6497,-2.6474,-2.6083,-2.5839,-2.6931,-2.7455,-2.6871,-2.6344,-2.5921,-2.5619,-2.4471,-2.3459,-2.2644,0.0,0.0,0.0,0.0,-2.0557,-1.919,-1.8373,-1.7575,-1.6665,-1.6665,-1.6665,-1.6665,-1.6665,-1.6665,-1.6665,-1.6787,-1.6395,-1.5799,-1.6565,-1.6474,-1.5835,-1.5707,-1.4681,-1.3443,-1.4287,-1.4477,-1.445,-1.4921,0.0,0.0,-1.6123,-1.6143,-1.6211,-1.6611,-1.6494,-1.6299,-1.6689,-1.6836,-1.6875,-1.6875,-1.6543,-1.6272,-1.6272,-1.5879,-1.5771,-1.6519,-1.6665,-1.6903,-1.7667,-1.7583,-1.7376,-1.7376,-1.539,-1.3792,-1.3885,-1.1803,-1.0192,-1.0089,-1.1009,-1.1555,-1.11,-1.2589,0.0,-1.3005,-1.303,-1.3022,-1.2978,-1.3075,-1.2556,-1.1285,-1.2461,-1.2361,-1.0725,-1.0786,-1.2572,-1.6151,-1.4029,-1.4094,-1.6025,-1.158,-0.9922,0.0,0.0,0.0,0.0,0.0,0.0,0.0,0.0,0.0,0.0,0.0,0.0,0.0,0.0,0.0,-2.3302,-2.649,-2.8801,-2.895,-2.9379,-2.9035,-2.7405,-2.7904,-2.8353,-2.8233,-2.8576,-2.8294,-2.6951,-2.662,-2.5855,-2.4394,-2.4017,-2.374,-2.3514,-2.1982,-2.0733,-1.9767,-1.8595,-1.7575,-1.6665,-1.6665,0.0,-1.6665,-1.6665,-1.6665,-1.6748,-1.7109,-1.7181,-1.7098,-1.792,-1.8123,-1.7879,-1.686,-1.6265,-1.601,-1.6138,-1.6004,-1.5814,-1.6196,-1.6234,-1.6123,-1.6484,-1.6602,-1.6621,-1.6709,-1.6924,0.0,-1.7227,-1.75,-1.7764,-1.7764,-1.7451,-1.7129,-1.7129,-1.6797,-1.6727,-1.7752,-1.7804,-1.8024,-1.8995,-1.9518,-1.9743,-1.9743,-1.7577,-1.584,-1.587,-1.5698,-1.5154,-1.4176,-1.459,-1.4705,-1.3941,-1.4279,-1.4285,-1.3614,-1.3745,-1.3789,-1.3652,-1.4053,-1.4227,-1.3941,-1.4236,-1.4174,-1.3836,-1.432,-1.4957,-1.5729,-1.5747,-1.5757,-1.567,-1.419,-1.36,0.0,0.0,0.0,0.0,0.0,0.0,0.0,0.0,0.0,0.0,0.0,-1.7958,0.0,0.0,-2.5185,-2.6119,-2.8822,-3.0667,-3.0117,-3.036,-2.9932,-2.8284,-2.8682,-2.9086,-2.9086,-2.9385,-2.9098,-2.7882,-2.7429,-2.6668,-2.5534,-2.4798,-2.4406,-2.4406,-2.3467,-2.2585,-2.1737,-2.0573,-1.9552,-1.8731,-1.8269,-1.8008,-1.8008,-1.8008,-1.8008,-1.8018,-1.8242,-1.834,-1.8369,-1.8789,-1.8668,-1.8087,-1.7479,-1.714,-1.708,-1.7295,-1.6963,-1.6465,-1.6904,-1.6914,-1.6758,-1.6982,-1.7061,-1.71,-1.7305,-1.7373,-1.7471,-1.7891,-1.8164,-1.832,-1.832,-1.8008,-1.7646,-1.7432,-1.7051,-1.6974,-1.786,-1.8289,-1.8806,-1.9724,-2.0471,-2.0962,-2.0962,-1.9849,-1.8879,-1.8562,-1.8637,-1.8386,-1.7481,-1.6983,-1.6389,-1.5703,-1.5145,-1.4559,-1.3933,-1.4145,-1.4114,-1.381,-1.4376,-1.4835,-1.5141,-1.488,-1.4971,-1.5611,-1.5599,-1.5764,-1.6051,-1.6051,-1.5908,-1.5588,-1.4944,-1.4642,0.0,0.0,0.0,0.0,0.0,0.0,0.0,0.0,-1.7082,-1.8679,-2.0643,-2.2537,-2.4071,-2.6551,-2.8437,-2.8661,-3.0593,-3.1734,-3.0825,-3.0693,-3.0238,-2.8936,-2.937,-2.9759,-2.9759,-2.9879,-2.9648,-2.8828,-2.8015,-2.725,-2.6463,-2.5512,-2.4971,-2.4971,-2.487,-2.4406,-2.3501,-2.2525,-2.1563,-2.0755,-1.9775,-1.9287,-1.9287,-1.9287,-1.9287,-1.9287,-1.9287,-1.9336,-1.9404,-1.9316,-1.8813,-1.8108,-1.7812,-1.771,-1.7793,-1.7919,-1.7417,-1.6833,-1.7531,-1.7695,-1.7637,-1.7725,-1.7754,-1.7812,-1.8154,-1.8018,-1.7891,-1.8574,-1.876,-1.876,-1.876,-1.8447,-1.8047,-1.7705,-1.7295,-1.7135,-1.7771,-1.8729,-1.961,-2.0217,-2.1125,-2.1807,-2.1807,-2.1807,-2.1581,-2.097,-2.0736,-2.0394,-1.9849,-1.8576,-1.752,-1.6924,-1.5786,-1.4841,-1.435,-1.4622,-1.4628,-1.4165,-1.4744,-1.5287,-1.5764,-1.5287,-1.5522,-1.6466,-1.6008,-1.5996,-1.6522,-1.6118,-1.5872,-1.5776,-1.5497,-1.5176,-1.2035,-1.1013,-1.0953,-1.157,-1.3643,-1.6424,0.0,0.0,-2.3533,-2.6332,-2.8518,-3.0791,-3.3511,-3.3801,-3.3661,-3.3775,-3.405,-3.3593,-3.1731,-3.148,-3.0983,-2.9657,-3.0028,-3.0402,-3.0402,-3.0956,-3.0939,-3.0172,-2.9307,-2.8416,-2.7538,-2.6215,-2.5511,-2.5511,-2.5059,-2.4406,-2.3501,-2.2525,-2.1563,-2.0755,-1.9775,-1.9287,-1.9287,-1.9287,-1.9287,-1.9287,-1.9287,-1.9502,-1.9814,-1.9443,-1.9428,-1.9495,-1.8219,-1.8303,-1.901,-1.8082,-1.7442,-1.7188,-1.8629,-1.8818,-1.8555,-1.8945,-1.9072,-1.9082,-1.9131,-1.9111,-1.9102,-1.9189,-1.9219,-1.9219,-1.9219,-1.8896,-1.8484,-1.8506,-1.8174,-1.7955,-1.8307,-1.9488,-2.054,-2.0828,-2.1981,-2.289,-2.289,-2.289,-2.2598,-2.1556,-2.1387,-2.1107,-2.0409,-1.9505,-1.8478,-1.7424,-1.6526,-1.5662,-1.5038,-1.5706,-1.595,-1.5433,-1.5964,-1.6337,-1.638,-1.6337,-1.638,-1.6522,-1.6423,-1.6423,-1.6522,-1.6979,-1.6923,-1.6405,-1.7355,-1.6967,-1.5271,-1.4755,-1.5046,0.0,-1.9682,-2.1168,-2.4254,-2.5741,-2.6848,-2.842,-3.0103,-3.1823,-3.3479,-3.3892,-3.3853,0.0,-3.3435,-3.3006,-3.1728,-3.1192,-3.0652,-2.9708,-2.9804,-3.0103,-3.0477,-3.1135,-3.1351,-3.1029,-2.9766,-2.8812,-2.8492,-2.7307,-2.6578,-2.6578,-2.6364,-2.6102,-2.5733,-2.4696,-2.361,-2.2346,-2.168,-2.108,-2.042,-2.042,-2.042,-2.042,-2.042,-2.0518,-2.0664,-2.0498,-2.0119,-1.9645,-1.8779,-1.8306,-1.8089,-1.7796,-1.7972,-1.8445,-1.9073,-1.917,-1.9043,-1.9228,-1.9287,-1.9287,-1.9287,-1.9287,-1.9336,-1.958,-1.9648,-1.9648,-1.9648,-1.9512,-1.9316,-1.9072,-1.8691,-1.8389,-1.8534,-1.9605,-2.0651,-2.0762,-2.2283,-2.3527,-2.3128,-2.3414,-2.3364,-2.2573,-2.2447,-2.2205,-2.1592,-2.0819,-1.9838,-1.8629,-1.791,-1.7288,-1.6742,-1.703,-1.7062,-1.6645,-1.7156,-1.7501,-1.7501,-1.7501,-1.7501,-1.7501,-1.7501,-1.7501,-1.7501,-1.7739,-1.7739,-1.7513,-1.799,-1.7943,-1.7348,-1.787,0.0,-2.3913,-2.5609,-2.6597,-2.8526,-2.9717,-3.0435,-3.0567,-3.1643,-3.2773,-3.3288,-3.3658,-3.3704,-3.299,-3.2715,-3.2257,-3.1357,-3.0507,-2.9804,-2.937,-2.9146,-2.9355,-3.0163,-3.0851,-3.133,-3.1467,-3.0291,-2.9491,-2.9251,-2.8392,-2.7703,-2.7281,-2.7281,-2.7281,-2.7281,-2.6275,-2.5183,-2.3929,-2.3242,-2.2364,-2.1416,-2.1416,-2.1416,-2.1416,-2.1416,-2.1416,-2.1416,-2.1416,-2.09,-2.0181,-1.9552,-1.9039,-1.8562,-1.8398,-1.8757,-1.9257,-1.9564,-1.9639,-1.9639,-1.9639,-1.9639,-1.9639,-1.9639,-1.9727,-1.9863,-2.0049,-2.0176,-2.0244,-2.0127,-2.0,-1.9844,-1.9531,-1.9131,-1.8818,-1.8818,-1.9813,-2.0792,-2.0792,-2.2408,-2.3627,-2.3213,-2.3477,-2.3615,-2.3201,-2.3078,-2.2987,-2.2585,-2.1726,-2.0759,-1.961,-1.9181,-1.8737,-1.8073,-1.8265,-1.8186,-1.7581,-1.7954,-1.8204,-1.8204,-1.8204,-1.8204,-1.8204,-1.8204,-1.8204,-1.8204,-1.8355,-1.8355,-1.8216,-1.8505,-1.8781,-1.6992,0.0,-2.0669,-2.5989,-3.0234,-3.3128,-3.3212,-3.4361,-3.5188,-3.4479,-3.4971,-3.5597,-3.5613,-3.5112,-3.4467,-3.3768,-3.3023,-3.2018,-3.0717,-2.946,-2.8652,-2.8637,-2.8038,-2.821,0.0,-3.0163,-3.0806,-3.1422,-3.1258,-3.0757,-2.9807,-2.9577,-2.8768,-2.7364,-2.7281,-2.7281,-2.7281,-2.6275,-2.5546,-2.4948,-2.3565,-2.2528,-2.1865,-2.1865,-2.1865,-2.1865,-2.1865,-2.1865,-2.1865,-2.1865,-2.1865,-2.169,-2.0606,-2.0792,-2.1671,-2.0495,-1.9652,-1.9158,-2.0207,-2.0527,-2.0527,-2.0527,-2.0527,-2.0527,-2.0527,-2.083,-2.1084,-2.0664,-2.0859,-2.1094,-2.0654,-2.0234,-1.9912,-1.9893,-1.957,-1.9268,-1.9268,-2.0285,-2.1152,-2.1152,-2.221,-2.309,-2.3078,-2.309,-2.309,-2.3078,-2.3078,-2.3065,-2.3053,-2.1957,-2.0828,-2.0014,-2.0169,-1.9912,-1.8744,-1.9347,-1.9271,-1.8219,-1.8204,-1.8204,-1.8204,-1.8204,-1.8204,-1.8204,-1.8204,-1.8204,-1.8204,-1.8744,-1.8731,-1.8229,-1.9271,-1.9497,-2.1042,-2.3871,-2.6671,-3.1018,-3.3477,-3.4863,-3.4935,-3.4941,-3.449,-3.2884,-3.1041,-2.9456,-2.863,-2.6553,-2.5751,-2.8064,-2.8319,-2.8852,-3.0889,-3.0821,-3.0073,-2.8757,-2.9146,0.0,0.0,0.0,0.0,-3.1422,-3.1333,-3.0771,-2.9835,-3.0006,-2.9548,-2.8373,-2.8373,-2.8373,-2.8373,-2.8052,-2.7245,-2.606,-2.4519,-2.3656,-2.3412,-2.2621,-2.2305,-2.2305,-2.2305,-2.2305,-2.2305,-2.2305,-2.2305,-2.2275,-2.1547,-2.1534,-2.1885,-2.1441,-2.1177,-2.0938,-2.1354,-2.1445,-2.1445,-2.1445,-2.1445,-2.1445,-2.1445,-2.1553,-2.1631,-2.1484,-2.1553,-2.1562,-2.1123,-2.0898,-2.0713,-2.042,-2.0019,-1.9846,-2.0563,-2.1242,-2.1925,-2.2619,-2.3831,-2.4544,-2.3828,-2.4004,-2.3942,-2.3178,-2.3078,-2.3078,-2.3078,-2.2722,-2.2358,-2.2031,-2.1489,-2.0983,-2.06,-2.0067,-1.9648,-1.9284,-1.9258,-1.9258,-1.9258,-1.9258,-1.9258,-1.9258,-1.9258,-1.9258,-1.9258,-1.9447,-1.9447,-1.9271,-2.0078,-2.0105,-2.4632,-2.8008,-3.0895,-3.5048,-3.6654,-3.7101,-3.6586,-3.5937,-3.4493,-3.1278,-2.969,-2.7748,-2.4169,-2.0879,-2.0135,-2.4379,-2.5177,-2.642,-2.9959,-3.0268,-2.9909,-2.934,-2.9804,-3.0133,0.0,0.0,0.0,-3.1437,-3.2031,-3.1878,-3.069,-3.0978,-3.0619,-2.9436,-2.9076,-2.8925,-2.8925,-2.8925,-2.8262,-2.69,-2.5594,-2.477,-2.4209,-2.3561,-2.3057,-2.2734,-2.2734,-2.2734,-2.2734,-2.2734,-2.2734,-2.2715,-2.2441,-2.2334,-2.2334,-2.2334,-2.2334,-2.2295,-2.1992,-2.1885,-2.1885,-2.1885,-2.1885,-2.1885,-2.1885,-2.1992,-2.208,-2.1924,-2.1992,-2.2012,-2.1582,-2.1465,-2.1396,-2.1103,-2.0703,-2.0535,-2.1202,-2.1782,-2.2443,-2.3086,-2.4232,-2.487,-2.4381,-2.4418,-2.428,-2.3552,-2.3439,-2.3439,-2.3439,-2.3203,-2.3153,-2.3427,-2.2623,-2.1995,-2.1794,-2.0941,-2.0326,-2.0125,-1.9911,-1.9798,-1.9798,-1.9798,-1.9798,-1.9798,-2.0055,-2.0156,-2.0156,-2.0383,-2.0471,-2.0471,-2.0917,-2.0868,-2.7749,-3.1227,-3.3421,-3.7933,-3.9512,-3.9597,-3.8176,-3.7097,-3.4935,-2.98,-3.0418,-2.9601,0.0,0.0,-1.7709,-2.276,-2.3758,-2.508,-2.8343,-2.8293,-2.8592,0.0,0.0,0.0,0.0,0.0,0.0,-3.1571,0.0,-3.375,-3.2227,-3.2442,-3.2003,-3.0559,-2.9535,-2.9038,-2.9038,-2.8976,-2.8496,-2.7615,-2.6898,-2.5815,-2.4405,-2.4766,-2.4296,-2.3222,-2.3222,-2.3135,-2.3135,-2.3135,-2.3135,-2.3135,-2.3135,-2.3135,-2.3135,-2.3135,-2.3135,-2.3027,-2.2227,-2.1953,-2.1953,-2.1953,-2.1953,-2.1953,-2.1953,-2.2227,-2.2461,-2.206,-2.2236,-2.2451,-2.2031,-2.1924,-2.1914,-2.1894,-2.1553,-2.123,-2.123,-2.2038,-2.2749,-2.2831,-2.3501,-2.4243,-2.477,-2.4406,-2.4042,-2.4042,-2.4042,-2.4029,-2.4004,-2.354,-2.3427,-2.3941,-2.3477,-2.2852,-2.2359,-2.1807,-2.1267,-2.0794,-2.024,-1.9938,-1.9938,-1.9989,-1.9977,-1.9977,-2.0638,-2.0938,-2.0938,-2.1492,-2.1752,-2.1752,-2.1758,-2.1744,-3.3433,-3.6111,-3.7634,-3.9378,-3.9123,-3.821,-3.728,-3.3975,-3.0163,-2.7102,-2.2791,-1.8678,0.0,0.0,0.0,-2.0085,-2.3428,0.0,-3.0908,-3.2213,0.0,-3.2063,0.0,-3.3036,-3.2557,-3.3245,0.0,0.0,-3.3469,-3.3484,-3.2861,-3.3325,-3.317,-3.2102,-3.1103,-3.0598,-3.0598,-2.991,-2.9489,-2.9167,-2.8207,-2.7452,-2.7082,-2.6405,-2.5462,-2.4382,-2.4382,-2.3877,-2.3135,-2.3135,-2.3135,-2.3135,-2.3135,-2.3135,-2.3135,-2.3135,-2.3135,-2.3105,-2.2891,-2.2822,-2.2822,-2.2822,-2.2822,-2.2822,-2.2822,-2.2891,-2.2959,-2.2852,-2.2891,-2.2881,-2.2461,-2.2353,-2.2275,-2.1963,-2.1553,-2.1381,-2.2135,-2.28,-2.3553,-2.4294,-2.4828,-2.5234,-2.5372,-2.4958,-2.4619,-2.4619,-2.4619,-2.4456,-2.4054,-2.423,-2.4293,-2.4029,-2.3477,-2.2852,-2.2359,-2.1807,-2.143,-2.1292,-2.1648,-2.1864,-2.1864,-2.2427,-2.2722,-2.2722,-2.2889,-2.294,-2.294,-2.2636,-2.2464,-2.245,-2.2433,-2.2193,-3.6511,-3.8599,-3.9563,-3.9969,-3.9225,-3.7694,-3.4951,-3.3076,-3.0101,-2.3481,-1.9445,0.0,-1.3543,0.0,0.0,0.0,0.0,0.0,-3.0938,-3.2527,-3.323,0.0,-3.4023,0.0,-3.3873,-3.4218,-3.4457,0.0,-3.4382,-3.4207,-3.3739,-3.3912,-3.3739,-3.3241,-3.2321,-3.1609,-3.118,-3.0279,-2.9792,-2.9792,-2.9118,-2.8597,-2.8096,-2.7452,-2.6625,-2.5546,-2.5546,-2.4882,-2.3887,-2.3887,-2.3551,-2.3135,-2.3135,-2.3135,-2.3135,-2.3135,-2.3135,-2.3135,-2.3135,-2.3135,-2.3135,-2.3135,-2.3135,-2.3135,-2.3135,-2.3135,-2.3135,-2.3135,-2.3135,-2.3086,-2.2852,-2.2783,-2.2734,-2.249,-2.2109,-2.1952,-2.2483,-2.2892,-2.342,-2.446,-2.5387,-2.59,-2.5636,-2.536,-2.5159,-2.5159,-2.5159,-2.5046,-2.4732,-2.477,-2.4707,-2.4393,-2.3853,-2.3288,-2.2723,-2.2433,-2.2326,-2.2326,-2.2817,-2.3094,-2.3094,-2.3496,-2.3701,-2.3701,-2.4005,-2.412,-2.412,-2.374,-2.3536,-2.3521,-2.3211,-2.2905,-3.8119,-3.9665,-4.0189,-3.9986,-3.9309,-3.73,-3.2077,-3.2353,-3.0529,-1.9485,0.0,-1.7127,-1.3691,-1.3201,-1.519,-2.1091,0.0,-2.497,-3.0152,-3.1495,-3.2602,-3.4397,-3.4607,-3.4846,-3.5444,-3.4966,-3.4861,-3.5459,-3.5504,-3.525,-3.4637,-3.4369,-3.4163,-3.4027,-3.3101,-3.2177,-3.118,-3.0279,-2.9792,-2.9792,-2.9792,-2.9287,-2.8347,-2.8347,-2.7775,-2.6719,-2.6719,-2.6047,-2.5041,-2.5041,-2.4467,-2.356,-2.3387,-2.3299,-2.3299,-2.3135,-2.3135,-2.3135,-2.3135,-2.3135,-2.3135,-2.3135,-2.3135,-2.3135,-2.3135,-2.3135,-2.3135,-2.3135,-2.3135,-2.3135,-2.3135,-2.3135,-2.3135,-2.3135,-2.2822,-2.251,-2.251,-2.2605,-2.3004,-2.4085,-2.5416,-2.6152,-2.5799,-2.5711,-2.5711,-2.5711,-2.5711,-2.5711,-2.5711,-2.5322,-2.4983,-2.4845,-2.4393,-2.3841,-2.3188,-2.3347,-2.35,-2.35,-2.3875,-2.4054,-2.4054,-2.4156,-2.4207,-2.4207,-2.4776,-2.5087,-2.5087,-2.4875,-2.4761,-2.4821,-2.3999,-2.3655,-3.9815,-4.0443,-4.0713,-3.9495,-3.8159,-3.576,-3.037,-2.6344,0.0,0.0,-1.2419,-1.0854,-1.2014,-1.2511,-1.5032,-2.2069,0.0,0.0,0.0,0.0,-3.4307,0.0,0.0,0.0,0.0,0.0,0.0,0.0,-3.5504,-3.5444,-3.5325,-3.5285,-3.4839,-3.4027,-3.3101,-3.2177,-3.118,-3.0279,-2.9792,-2.9792,-2.9792,-2.9714,-2.9534,-2.9534,-2.8858,-2.7844,-2.7844,-2.7197,-2.6224,-2.6224,-2.6058,-2.5808,-2.4882,-2.4542,-2.4372,-2.3464,-2.3135,-2.3135,-2.3135,-2.3135,-2.3135,-2.3135,-2.3135,-2.3135,-2.3135,-2.3135,-2.3135,-2.3135,-2.3135,-2.3135,-2.3135,-2.3135,-2.3135,-2.3135,-2.2822,-2.251,-2.251,-2.2605,-2.3101,-2.4552,-2.5098,-2.5487,-2.6246,-2.6314,-2.6314,-2.6314,-2.6314,-2.6314,-2.6314,-2.6239,-2.5824,-2.4921,-2.4745,-2.4255,-2.3165,-2.3735,-2.4134,-2.4134,-2.5299,-2.6007,-2.6007,-2.6594,-2.6899,-2.6899,-2.7065,-2.7116,-2.7116,-2.5971,-2.5719,-2.6213,-2.4433,-2.3909,-3.7286,-3.8756,-4.0933,-3.9834,-3.7855,-3.4442,-2.7875,0.0,0.0,0.0,-0.9777,-0.8896,-1.0127,0.0,0.0,0.0,0.0,0.0,0.0,0.0,0.0,0.0,0.0,0.0,0.0,0.0,0.0,-3.5504,-3.5504,-3.5504,-3.5504,-3.5504,-3.5279,-3.4773,-3.3394,-3.2393,-3.196,-3.0495,-2.9792,-2.9792,-2.9792,-2.9792,-2.9792,-2.9792,-2.9534,-2.8937,-2.8937,-2.8359,-2.7371,-2.7371,-2.6964,-2.6483,-2.5891,-2.5294,-2.4702,-2.4211,-2.3637,-2.3135,-2.3135,-2.3135,-2.3135,-2.3135,-2.3135,-2.3135,-2.3135,-2.3135,-2.3135,-2.3135,-2.3135,-2.3135,-2.3135,-2.3135,-2.3135,-2.3135,-2.2988,-2.2783,-2.2559,-2.3185,-2.4029,-2.4871,-2.5672,-2.6461,-2.7185,-2.7318,-2.7318,-2.7318,-2.7067,-2.6892,-2.6892,-2.664,-2.6138,-2.531,-2.4983,-2.4494,-2.3653,-2.4405,-2.4851,-2.4851,-2.6269,-2.7086,-2.7086,-2.7408,-2.7625,-2.7625,-2.7625,-2.7625,-2.7625,-2.6587,-2.6288,-2.6557,-2.5255,-2.4822,-3.5777,-3.7965,-4.1221,-4.0307,-3.7702,-3.3412,-2.5864,-2.0903,0.0,0.0,-0.8692,-0.8806,-0.9539,0.0,0.0,0.0,0.0,0.0,0.0,0.0,0.0,0.0,0.0,0.0,0.0,0.0,0.0,-3.5504,-3.5504,-3.5504,-3.5504,-3.5504,-3.5504,-3.5504,-3.3837,-3.282,-3.2593,-3.0908,-2.9998,-2.9792,-2.9792,-2.9792,-2.9792,-2.9792,-2.9792,-2.9792,-2.9792,-2.9275,-2.8426,-2.8426,-2.7947,-2.7221,-2.6964,-2.6295,-2.5452,-2.4957,-2.4211,-2.3474,-2.3222,-2.3135,-2.3135,-2.3135,-2.3135,-2.3135,-2.3135,-2.3135,-2.3135,-2.3135,-2.3135,-2.3135,-2.3135,-2.3135,-2.3135,-2.3135,-2.3135,-2.3027,-2.2607,-2.3669,-2.4724,-2.4937,-2.6143,-2.7354,-2.8021,-2.8109,-2.8109,-2.8109,-2.7733,-2.7419,-2.7293,-2.6904,-2.6414,-2.585,-2.531,-2.4784,-2.4291,-2.5079,-2.5592,-2.5632,-2.6864,-2.7625,-2.7625,-2.7625,-2.7625,-2.7625,-2.7625,-2.7625,-2.7625,-2.6916,-2.6759,-2.6962,-2.6148,-2.5939,-3.9648,-4.1268,-4.1847,-4.0426,-3.7313,-3.2718,-2.5648,0.0,0.0,-1.0229,-0.9066,-0.9987,-1.2118,-1.0889,0.0,0.0,0.0,-1.7917,0.0,0.0,0.0,0.0,0.0,0.0,0.0,0.0,0.0,-3.5504,-3.5504,-3.5504,-3.5504,-3.5504,-3.5504,-3.5504,-3.4461,-3.3449,-3.2593,-3.1609,-3.062,-2.9792,-2.9792,-2.9792,-2.9792,-2.9792,-2.9792,-2.9792,-2.9792,-2.9714,-2.9624,-2.9624,-2.9624,-2.9378,-2.8359,-2.7924,-2.751,-2.5525,-2.4702,-2.4542,-2.3474,-2.3135,-2.3135,-2.3135,-2.3135,-2.3135,-2.3135,-2.3135,-2.3135,-2.3135,-2.3135,-2.3135,-2.3135,-2.3135,-2.3135,-2.3135,-2.3135,-2.3027,-2.2607,-2.3441,-2.4416,-2.4926,-2.5872,-2.694,-2.7938,-2.8109,-2.8109,-2.8109,-2.8059,-2.7846,-2.7344,-2.7243,-2.6992,-2.6508,-2.5862,-2.5408,-2.5014,-2.5675,-2.6204,-2.6379,-2.7137,-2.7625,-2.7625,-2.7625,-2.7625,-2.7625,-2.7625,-2.7625,-2.7625,-2.6916,-2.7164,-2.8292,-2.7009,-2.7042,-3.2273,-3.6569,-4.139,-4.0341,-3.6924,-3.2172,-2.5696,0.0,-1.6998,-1.0334,-0.9055,-0.9434,-1.0557,-0.9802,-0.991,-1.277,-1.2305,0.0,0.0,0.0,0.0,0.0,0.0,0.0,0.0,0.0,-3.5504,-3.5504,-3.5504,-3.5504,-3.5504,-3.5504,-3.5504,-3.5504,-3.4543,-3.3808,-3.3449,-3.2536,-3.1536,-3.062,-3.062,-3.0343,-2.9792,-2.9792,-2.9792,-2.9792,-2.9792,-2.9792,-2.9792,-2.9792,-2.9792,-2.9792,-2.9275,-2.8688,-2.7924,-2.6378,-2.5378,-2.4628,-2.3464,-2.3135,-2.3135,-2.3135,-2.3135,-2.3135,-2.3135,-2.3135,-2.3135,-2.3135,-2.3135,-2.3135,-2.3135,-2.3135,-2.3135,-2.3135,-2.3135,-2.326,-2.374,-2.4471,-2.5422,-2.6655,-2.7459,-2.8225,-2.8975,-2.9114,-2.9114,-2.9114,-2.8825,-2.8398,-2.7846,-2.7494,-2.7067,-2.6584,-2.5937,-2.5416,-2.4975,-2.5694,-2.6104,-2.5825,-2.6982,-2.7625,-2.7625,-2.7625,-2.7625,-2.7625,-2.7625,-2.7625,-2.7625,-2.7686,-2.801,-2.8511,-2.8353,-2.8542,-2.8106,-3.324,-3.921,-3.9919,-3.7047,-3.2044,0.0,0.0,-1.6313,-1.0448,-0.9227,-0.9217,-0.9247,-0.9285,-0.9437,-0.9802,-0.9775,-1.1935,-1.8302,0.0,0.0,0.0,0.0,0.0,0.0,-3.4851,-3.5504,-3.5504,-3.5504,-3.5504,-3.5504,-3.5504,-3.5504,-3.5504,-3.4839,-3.4312,-3.4027,-3.331,-3.2393,-3.118,-3.118,-3.0696,-2.9792,-2.9792,-2.9792,-2.9792,-2.9792,-2.9792,-2.9792,-2.9792,-2.9792,-2.9792,-2.9792,-2.9287,-2.8438,-2.7046,-2.5975,-2.5126,-2.3637,-2.3135,-2.3135,-2.3135,-2.3135,-2.3135,-2.3135,-2.3135,-2.3135,-2.3135,-2.3135,-2.3135,-2.3135,-2.3135,-2.3135,-2.3135,-2.3135,-2.3387,-2.4542,-2.5359,-2.6289,-2.7773,-2.8697,-2.9315,-2.9729,-2.9792,-2.9792,-2.9792,-2.9453,-2.8925,-2.8197,-2.777,-2.7256,-2.6596,-2.6101,-2.5757,-2.5396,-2.6008,-2.6295,-2.5966,-2.7018,-2.7625,-2.7625,-2.7625,-2.7625,-2.7625,-2.7625,-2.7625,-2.7625,-2.8189,-2.8606,-2.8779,-2.9406,-2.9761,-3.0623,-3.3534,-3.4857,-3.9059,-3.7829,-3.259,0.0,0.0,-1.5105,-1.0542,-0.9744,-0.9703,-0.9025,-0.9715,-1.0403,-1.0468,-1.0204,-1.1392,-1.5313,0.0,0.0,0.0,0.0,0.0,0.0,-3.3347,-3.5504,-3.5504,-3.5504,0.0,-3.5504,-3.5504,-3.5504,-3.5504,-3.5504,-3.4986,-3.4027,-3.4027,-3.3031,-3.118,-3.118,-3.0696,-2.9792,-2.9792,-2.9792,-2.9792,-2.9792,-2.9792,-2.9792,-2.9792,-2.9792,-2.9792,-2.9792,-2.9792,-2.9546,-2.7302,-2.6472,-2.6141,-2.3897,-2.3135,-2.3135,-2.3135,-2.3135,-2.3135,-2.3135,-2.3135,-2.3135,-2.3135,-2.3135,-2.3135,-2.3135,-2.3135,-2.3135,-2.3135,-2.3135,-2.3387,-2.4542,-2.5714,-2.6789,-2.7924,-2.9028,-2.9779,-2.9792,-2.9792,-2.9792,-2.9792,-2.9779,-2.9377,-2.8247,-2.8097,-2.767,-2.6647,-2.6521,-2.6527,-2.6686,-2.6891,-2.7051,-2.7252,-2.7476,-2.7625,-2.7625,-2.7625,-2.7625,-2.7625,-2.7625,-2.7625,-2.7625,-2.8189,-2.8826,-2.9406,-3.0038,-3.0617,-2.1538,-2.4927,-2.8451,-3.2096,-3.0828,-2.7146,-2.124,0.0,-1.545,-1.0988,-1.0525,-1.071,-0.9968,-1.0171,-1.0648,-1.1107,-1.1036,-1.2004,0.0,0.0,0.0,0.0,0.0,0.0,0.0,0.0,-3.5504,-3.5504,-3.5504,-3.5504,-3.5504,-3.4839,-3.4758,-3.5504,-3.5504,-3.5359,-3.5052,-3.4327,-3.338,-3.2177,-3.1536,-3.0696,-2.9792,-2.9792,-2.9792,-2.9792,-2.9792,-2.9792,-2.9792,-2.9792,-2.9792,-2.9792,-2.9792,-2.9287,-2.8438,-2.7046,-2.5975,-2.5126,-2.3637,-2.3135,-2.3135,-2.3135,-2.3135,-2.3135,-2.3135,-2.3135,-2.3135,-2.3135,-2.3135,-2.3135,-2.3135,-2.3135,-2.3135,-2.3135,-2.3135,-2.3387,-2.4542,-2.5714,-2.6801,-2.7936,-2.9028,-2.9792,-2.9792,-2.9792,-2.9792,-2.9792,-2.9792,-2.939,-2.8247,-2.8109,-2.7682,-2.6647,-2.6973,-2.7183,-2.6841,-2.7358,-2.7611,-2.7449,-2.7986,-2.8068,-2.764,-2.7625,-2.7625,-2.7625,-2.7625,-2.781,-2.8238,-2.8826,-2.9629,-3.0617,-3.0838,-3.1015,0.0,-1.9524,-2.2863,-2.6566,-2.5576,0.0,0.0,0.0,-1.4138,-1.1516,-1.1318,-1.1412,-1.0674,-1.0724,-1.1137,-1.1907,-1.1697,-1.2078,0.0,0.0,0.0,0.0,0.0,0.0,0.0,-3.4579,-3.5504,-3.5504,-3.5133,-3.492,-3.492,-3.4027,-3.3754,-3.4409,-3.4423,-3.4423,-3.4423,-3.3754,-3.3031,-3.2033,-3.1462,-3.0696,-2.9792,-2.9792,-2.9792,-2.9792,-2.9792,-2.9792,0.0,-2.9792,-2.9792,-2.9792,-2.9792,-2.9365,-2.853,-2.7046,-2.6058,-2.521,-2.3637,-2.3135,-2.3135,-2.3135,-2.3135,-2.3135,-2.3135,-2.3135,-2.3135,-2.3135,-2.3135,-2.3135,-2.3135,-2.3135,-2.3135,-2.3135,-2.3135,-2.3551,-2.5136,-2.5964,-2.6964,-2.8438,-2.9275,-2.9792,-2.9792,-2.9792,-2.9792,-2.9792,-2.9792,-2.9465,-2.8536,-2.8235,-2.7978,-2.7677,-2.7678,-2.7919,-2.8466,-2.8477,-2.8387,-2.8209,-2.8459,-2.8412,-2.7979,-2.7709,-2.7625,-2.7625,-2.781,-2.814,-2.8511,-2.9316,-3.0251,-3.119,-3.119,-3.119,0.0,-1.6579,0.0,0.0,0.0,0.0,0.0,0.0,0.0,-1.1985,-1.2044,-1.181,-1.1105,-1.1297,-1.186,-1.2783,-1.2271,0.0,0.0,0.0,0.0,0.0,0.0,0.0,-2.99,-3.3267,-3.5504,-3.5504,-3.4543,-3.4027,-3.4027,-3.3031,-3.2536,-3.2536,-3.2464,-3.2464,-3.2593,-3.2522,-3.2033,-3.118,-3.1106,-3.062,-2.9792,-2.9792,-2.9792,-2.9792,-2.9792,-2.9792,-2.9792,-2.9792,-2.9792,-2.9792,-2.9792,-2.9714,-2.93,-2.7221,-2.64,-2.5975,-2.38,-2.3135,-2.3135,-2.3135,-2.3135,-2.3135,-2.3135,-2.3135,-2.3135,-2.3135,-2.3135,-2.3135,-2.3135,-2.3135,-2.3135,-2.3135,-2.3135,-2.3724,-2.5891,-2.6472,-2.7139,-2.9287,-2.9714,-2.9792,-2.9792,-2.9792,-2.9792,-2.9792,-2.9792,-2.9566,-2.895,-2.8423,-2.8409,-2.9276,-2.8437,-2.8709,-3.0984,-3.0053,-2.9376,-2.9377,-2.8961,-2.8652,-2.8607,-2.7934,-2.7625,-2.7625,-2.8222,-2.8622,-2.8716,-2.9886,-3.0758,-3.136,-3.1292,-3.1275,-1.1751,0.0,-1.1624,-1.2754,-1.2968,-1.2786,0.0,0.0,0.0,0.0,0.0,-1.2239,-1.1632,-1.1887,-1.2381,-1.2947,-1.2853,0.0,0.0,0.0,0.0,0.0,0.0,-3.395,-3.3353,-3.4669,-3.5504,-3.5504,-3.4543,-3.4027,-3.4027,-3.2464,-3.1536,-3.1536,-3.0846,-3.1132,-3.2593,-3.1888,-3.1389,-3.118,-3.0482,-2.9998,-2.9792,-2.9792,-2.9792,-2.9792,-2.9792,-2.9792,-2.9792,-2.9792,-2.9792,-2.9792,-2.9792,-2.8791,-2.7221,-2.673,-2.54,-2.38,-2.3309,-2.3135,-2.3135,-2.3135,-2.3135,-2.3135,-2.3135,-2.3135,-2.3135,-2.3135,-2.3135,-2.3135,-2.3135,-2.3135,-2.3135,-2.3135,-2.3135,-2.3474,-2.4882,-2.588,-2.6883,-2.8267,-2.9197,-2.9792,-2.9792,-2.9792,-2.9792,-2.9792,-2.9792,-2.9428,-2.8436,-2.8185,-2.8117,-2.8103,-2.8473,-2.9184,-3.0395,-3.0211,-3.0133,-3.0241,-2.9665,-2.9131,-2.8622,-2.7934,-2.7625,-2.7625,-2.8638,-2.9707,-3.0733,-3.1474,-3.2184,-3.2882,-3.229,-3.2019,-1.0878,-1.0273,-0.979,-0.9844,-1.0233,-1.0615,0.0,0.0,0.0,0.0,0.0,0.0,-1.2016,0.0,0.0,-1.341,-1.4518,0.0,0.0,0.0,0.0,0.0,0.0,-3.5768,0.0,-3.5619,-3.5831,-3.5504,-3.4192,-3.338,-3.338,-3.1549,-3.0558,-3.0558,-3.0075,-3.0292,-3.1341,-3.0846,-3.0558,-3.0558,-3.0075,-2.9792,-2.9792,-2.9792,-2.9792,-2.9792,-2.9792,-2.9792,-2.9792,-2.9792,-2.9792,-2.9792,-2.9197,-2.8279,-2.7128,-2.613,-2.4967,-2.38,-2.3299,-2.3135,-2.3135,-2.3135,-2.3135,-2.3135,-2.3135,-2.3135,-2.3135,-2.3135,-2.3135,-2.3135,-2.3135,-2.3135,-2.3135,-2.3135,-2.3464,-2.4221,-2.5294,-2.6461,-2.7533,-2.8688,-2.9365,-2.9792,-2.9792,-2.9792,-2.9792,-2.9792,-2.9792,-2.9578,-2.8963,-2.8423,-2.8439,-2.9416,-2.9176,-2.9617,-3.1187,-3.1013,-3.0866,-3.0944,-3.0357,-2.9849,-2.949,-2.8828,-2.8578,-2.8857,-2.9496,-3.0467,-3.1809,-3.2133,-3.2662,-3.3389,-3.2983,-3.2797,-1.1442,-1.0878,-1.0302,-1.0157,-1.039,-1.0687,-1.0753,0.0,0.0,0.0,0.0,0.0,0.0,0.0,0.0,0.0,0.0,0.0,0.0,0.0,0.0,0.0,0.0,0.0,-3.5761,-3.6229,-3.6337,-3.5733,-3.3891,-3.2749,-3.2593,-3.0996,-2.9934,-2.9792,-2.9792,-2.9792,-2.9792,-2.9792,-2.9792,-2.9792,-2.9792,-2.9792,-2.9792,-2.9792,-2.9792,-2.9792,-2.9792,-2.9792,-2.9792,-2.9792,-2.9792,-2.9702,-2.8518,-2.8016,-2.7602,-2.5535,-2.4702,-2.4372,-2.3474,-2.3135,-2.3135,-2.3135,-2.3135,-2.3135,-2.3135,-2.3222,-2.3387,-2.3387,-2.3222,-2.3135,-2.3135,-2.3222,-2.3387,-2.3387,-2.4211,-2.5378,-2.6472,-2.7441,-2.8426,-2.9611,-2.9792,-2.9792,-2.9792,-2.9792,-2.9792,-2.9792,-2.9792,-2.9767,-2.9666,-2.8886,-2.9067,-3.1103,-3.0034,-3.004,-3.2184,-3.1854,-3.1482,-3.1482,-3.0881,-3.0473,-3.0373,-2.9792,-2.9737,-3.0309,-3.0408,-3.1133,-3.2459,-3.256,-3.3,-3.3744,-3.3626,-3.3575,-1.2258,-1.1799,-1.1169,-1.0302,-1.0534,-1.0981,-1.1169,0.0,0.0,0.0,0.0,0.0,0.0,0.0,0.0,0.0,0.0,0.0,0.0,0.0,0.0,0.0,0.0,-3.7339,-3.6657,-3.662,-3.6554,-3.6446,-3.4802,-3.3449,-3.2664,-3.1536,-3.062,-2.9869,-2.9792,-2.9792,-2.9792,-2.9792,-2.9792,-2.9792,-2.9792,-2.9792,-2.9792,-2.9792,-2.9792,-2.9792,-2.9792,-2.9792,-2.9792,-2.9792,-2.9792,-2.9702,-2.8518,-2.7533,-2.6554,-2.5294,-2.4211,-2.3299,-2.3135,-2.3135,-2.3135,-2.3135,-2.3135,-2.3135,-2.3135,-2.38,-2.4542,-2.4542,-2.3877,-2.3135,-2.3135,-2.38,-2.4542,-2.4542,-2.5378,-2.6554,-2.7602,-2.8004,-2.8426,-2.9611,-2.9792,-2.9792,-2.9792,-2.9792,-2.9792,-2.9792,-2.9792,-2.9616,-2.9126,-2.9108,-2.9432,-3.0019,-3.0108,-3.0493,-3.1558,-3.1541,-3.1482,-3.1482,-3.0881,-3.0271,-2.9689,-2.9486,-2.9697,-3.0293,-3.0929,-3.1881,-3.3237,-3.3846,-3.4539,-3.5267,-3.4624,-3.432,-1.1963,-1.1722,-1.1708,-1.2854,-1.2249,-1.1389,-1.1404,0.0,0.0,0.0,0.0,0.0,0.0,0.0,0.0,0.0,0.0,0.0,0.0,0.0,0.0,0.0,0.0,-3.8166,-3.7423,-3.725,-3.71,-3.66,-3.4999,-3.3808,-3.338,-3.196,-3.097,-3.0558,-2.9771,-2.9478,-2.9792,-2.9478,-2.9478,-2.9792,-2.9792,-2.9792,-2.9792,-2.9792,-2.9792,-2.9792,-2.9792,-2.9792,-2.9792,-2.9792,-2.9792,-2.9624,-2.7867,-2.6964,-2.6307,-2.4553,-2.3551,-2.3222,-2.38,-2.4049,-2.4135,-2.4723,-2.4978,-2.4978,-2.4978,-2.5305,-2.5724,-2.5724,-2.4882,-2.4135,-2.4808,-2.4882,-2.4957,-2.5546,-2.6543,-2.7522,-2.8004,-2.8597,-2.9197,-2.9714,-2.9792,-2.9792,-2.9792,-2.9792,-2.9792,-2.9792,-2.9792,-2.9909,-3.0108,-2.9732,-2.9818,-3.0951,-3.0583,-3.0644,-3.1409,-3.1482,-3.1482,-3.1482,-3.1607,-3.1497,-3.1155,-3.1421,-3.1724,-3.1984,-3.2302,-3.2966,-3.3998,-3.432,-3.4878,-3.5605,-3.5267,-3.5098,-1.1757,-1.1773,-1.2241,-1.4464,-1.376,-1.2794,-1.3871,0.0,0.0,0.0,0.0,0.0,0.0,0.0,0.0,0.0,0.0,0.0,0.0,-3.6671,-3.7158,-3.7434,-3.8405,-3.8773,-3.8137,-3.7882,-3.7451,-3.6685,-3.5185,-3.4187,-3.3825,-3.24,-3.1342,-3.0784,-2.9658,-2.9163,-2.939,-2.9089,-2.9214,-2.9792,-2.9792,-2.9792,-2.9792,-2.9792,-2.9792,-2.9792,-2.9792,-2.9792,-2.9792,-2.9534,-2.9365,-2.9197,-2.6964,-2.5975,-2.5557,-2.4049,-2.3299,-2.3222,-2.4125,-2.4542,-2.4957,-2.5797,-2.6307,-2.6483,-2.6483,-2.6637,-2.6883,-2.6883,-2.6213,-2.5703,-2.6307,-2.6047,-2.5786,-2.6625,-2.7695,-2.8518,-2.8518,-2.9197,-2.9792,-2.9792,-2.9792,-2.9792,-2.9792,-2.9792,-2.9792,-2.9792,-3.0011,-3.0304,-3.0921,-3.0428,-3.0473,-3.1732,-3.113,-3.0837,-3.1467,-3.164,-3.1739,-3.1739,-3.2283,-3.2568,-3.249,-3.3123,-3.3451,-3.3423,-3.3575,-3.3931,-3.4489,-3.4675,-3.5064,-3.5622,-3.5622,-3.5622,-1.2443,-1.2714,-1.2988,-1.2992,-1.3931,0.0,-2.083,-2.1144,0.0,0.0,0.0,0.0,0.0,0.0,0.0,0.0,0.0,0.0,-3.7516,0.0,-3.8345,-3.9682,-3.936,-3.8956,-3.8907,-3.8221,-3.7476,-3.6765,-3.5875,-3.4735,-3.3235,-3.3059,-3.1886,-2.9597,-2.9403,-2.9003,-2.8222,-2.8687,-2.9214,-2.9792,-2.9792,-2.9792,-2.9792,-2.9792,-2.9792,-2.9792,-2.9792,-2.9792,-2.9702,-2.8688,-2.8255,-2.8004,-2.5786,-2.4296,-2.3474,-2.4382,-2.4049,-2.3135,-2.3222,-2.3877,-2.4787,-2.4872,-2.563,-2.6483,-2.6483,-2.7209,-2.8004,-2.8004,-2.7924,-2.7683,-2.6719,-2.7209,-2.7844,-2.7936,-2.8858,-2.9702,-2.9702,-2.9714,-2.9792,-2.9792,-2.9792,-2.9792,-2.9792,-2.9792,-2.9792,-2.9792,-3.0558,-3.0921,-3.0309,-3.1198,-3.1718,-3.1194,-3.1322,-3.1409,-3.1482,-3.212,-3.2547,-3.2547,-3.2494,-3.2522,-3.2524,-3.3077,-3.3415,-3.3406,-3.4066,-3.4438,-3.4489,-3.5199,-3.5571,-3.5622,-3.5622,-3.5622,-1.1987,-1.3303,-1.5062,-1.6477,0.0,0.0,0.0,0.0,0.0,0.0,0.0,0.0,0.0,0.0,0.0,0.0,0.0,-3.6163,-3.7686,-3.7905,-3.8108,-3.8667,-3.807,-3.7653,-3.7653,-3.6554,-3.575,-3.5483,-3.4744,-3.4003,-3.3357,-3.2788,-3.206,-3.1079,-2.9618,-2.8874,-2.8912,-2.8248,-2.8185,-2.875,-2.9453,-2.9792,-2.9792,-2.9792,-2.9591,-2.9252,-2.9252,-2.9063,-2.8737,-2.8249,-2.7758,-2.699,-2.5137,-2.3727,-2.2859,-2.4279,-2.4542,-2.4382,-2.5703,-2.6521,-2.693,-2.7695,-2.8211,-2.8542,-2.8542,-2.887,-2.9197,-2.9197,-2.9197,-2.9028,-2.8633,-2.8359,-2.8255,-2.9015,-2.9456,-2.9792,-2.9792,-2.9792,-2.9792,-2.9792,-3.0279,-3.0495,-2.9934,-3.0784,-3.1328,-3.0771,-3.1083,-3.155,-3.1972,-3.1664,-3.1604,-3.1955,-3.1679,-3.1482,-3.1482,-3.1739,-3.212,-3.2586,-3.3342,-3.3795,-3.3795,-3.443,-3.4793,-3.4793,-3.5047,-3.5199,-3.5199,-3.547,-3.5622,-3.5622,-3.5622,-3.5622,-1.184,-1.3703,-1.616,0.0,0.0,0.0,0.0,0.0,0.0,0.0,0.0,0.0,0.0,0.0,0.0,0.0,-3.4307,-3.5791,-3.7347,-3.733,-3.7253,-3.7498,-3.6887,-3.6353,-3.6133,-3.5253,-3.4596,-3.4364,-3.3818,-3.341,-3.32,-3.2588,-3.2019,-3.1565,-2.9933,-2.9146,-2.9308,-2.8231,-2.7857,-2.8239,-2.8949,-2.9352,-2.9515,-2.9515,-2.9302,-2.8925,-2.875,-2.8448,-2.8109,-2.7717,-2.7013,-2.5942,-2.4875,-2.3987,-2.3401,-2.466,-2.5069,-2.533,-2.6966,-2.7844,-2.8255,-2.9028,-2.9534,-2.9792,-2.9792,-2.9792,-2.9792,-2.9792,-2.9792,-2.9869,-3.0139,-2.9406,-2.8858,-2.9624,-2.9792,-2.9792,-2.9792,-2.9792,-2.9792,-2.9792,-3.0355,-3.0558,-2.9934,-3.1119,-3.196,-3.1315,-3.1823,-3.2551,-3.3016,-3.2376,-3.1936,-3.2184,-3.1735,-3.1482,-3.1482,-3.1682,-3.2064,-3.2586,-3.3836,-3.4576,-3.4576,-3.5253,-3.5622,-3.5622,-3.5622,-3.5622,-3.5622,-3.5622,-3.5622,-3.5622,-3.5622,-3.5622,-1.2236,-1.3898,0.0,0.0,0.0,0.0,0.0,0.0,0.0,0.0,0.0,0.0,0.0,0.0,0.0,-3.0067,-3.251,-3.5013,-3.6552,-3.6096,-3.59,-3.6654,-3.6091,-3.5413,-3.4743,-3.4651,-3.4322,-3.3537,-3.347,-3.3185,-3.2542,-3.2497,-3.1812,-3.0358,-3.0329,-2.9889,-2.9002,-2.8652,-2.8473,-2.8486,-2.8214,-2.8386,-2.8925,-2.8925,-2.8925,-2.8888,-2.8335,-2.8097,-2.8011,-2.695,-2.5842,-2.4804,-2.4904,-2.4904,-2.4882,-2.5542,-2.571,-2.5697,-2.6281,-2.7186,-2.8072,-2.8072,-2.8846,-2.9779,-2.9779,-2.9779,-2.9779,-2.9779,-2.9779,-2.9998,-3.097,-3.0482,-2.9792,-2.9792,-2.9792,-2.9792,-2.9792,-2.9792,-2.9869,-2.9869,-2.9869,-2.9869,-2.9869,-3.062,-3.1254,-3.1254,-3.2806,-3.3797,-3.3206,-3.3294,-3.2991,-3.1616,-3.1482,-3.1482,-3.1482,-3.2176,-3.2586,-3.2586,-3.3836,-3.4576,-3.4576,-3.5253,-3.5622,-3.5622,-3.5622,-3.5622,-3.5622,-3.5622,-3.5622,-3.5622,-3.5622,-3.5622,-1.4244,-1.6727,0.0,0.0,0.0,0.0,0.0,0.0,0.0,0.0,0.0,0.0,-2.8746,0.0,0.0,-3.2303,-3.3144,-3.4088,-3.5121,-3.5044,-3.4805,-3.457,-3.3926,-3.3445,-3.3246,-3.2747,-3.2352,-3.2083,-3.2105,-3.2033,-3.1839,-3.1824,-3.1603,-3.1161,-3.0584,-3.0208,-2.995,-2.9232,-2.8866,-2.8879,-2.8541,-2.8402,-2.8348,-2.8348,-2.8134,-2.7758,-2.7595,-2.7306,-2.6872,-2.5841,-2.525,-2.4908,-2.4582,-2.4401,-2.4534,-2.5824,-2.6252,-2.6352,-2.7284,-2.78,-2.8113,-2.8113,-2.8363,-2.8747,-2.9357,-2.9502,-2.9712,-3.0743,-3.1079,-3.1245,-3.1996,-3.1974,-3.1623,-3.0908,-3.0758,-3.0758,-3.0758,-3.1328,-3.1756,-3.1756,-3.2335,-3.255,-3.1901,-3.3129,-3.3973,-3.3241,-3.3854,-3.412,-3.3469,-3.3017,-3.2662,-3.2273,-3.175,-3.1482,-3.1482,-3.1697,-3.2064,-3.2586,-3.2986,-3.3649,-3.4576,-3.5253,-3.5622,-3.5622,-3.5622,-3.5622,-3.5622,-3.5622,-3.5622,-3.5622,-3.5622,-3.5622,-1.5345,0.0,0.0,0.0,0.0,0.0,0.0,0.0,0.0,0.0,0.0,0.0,-2.9812,-3.0818,0.0,-3.2831,-3.2949,-3.3229,-3.4018,-3.4122,-3.3892,-3.321,-3.2565,-3.2081,-3.1781,-3.1177,-3.0761,-3.0761,-3.0761,-3.0761,-3.0761,-3.0761,-3.0866,-3.112,-3.0616,-3.0499,-3.0763,-2.995,-2.9504,-2.9518,-2.8665,-2.8199,-2.8053,-2.7842,-2.7595,-2.7268,-2.7055,-2.6766,-2.6452,-2.5873,-2.5594,-2.5548,-2.483,-2.48,-2.5201,-2.5689,-2.6308,-2.687,-2.7553,-2.7921,-2.8109,-2.8109,-2.8303,-2.871,-2.9254,-2.9591,-3.0062,-3.0966,-3.1199,-3.142,-3.2513,-3.2278,-3.1789,-3.178,-3.1742,-3.1742,-3.1742,-3.2177,-3.2593,-3.2593,-3.3031,-3.3241,-3.2678,-3.3891,-3.4691,-3.4095,-3.4486,-3.4637,-3.3963,-3.3305,-3.2811,-3.2542,-3.1928,-3.1482,-3.1482,-3.1482,-3.1697,-3.2104,-3.2437,-3.2933,-3.3786,-3.4704,-3.5207,-3.5207,-3.547,-3.5622,-3.5622,-3.5622,-3.5622,-3.5622,-3.5622,-3.5622,0.0,0.0,0.0,0.0,0.0,0.0,0.0,0.0,0.0,0.0,0.0,-2.9172,-3.1395,-3.1506,-3.1495,-3.2087,-3.2239,-3.251,-3.3119,-3.3271,-3.3074,-3.2377,-3.1788,-3.1146,-3.0541,-2.9963,-2.9549,-2.949,-2.9549,-2.9549,-2.949,-2.9549,-2.9834,-3.0402,-3.0417,-3.0717,-3.1287,-3.0602,-3.023,-3.0216,-2.8713,-2.8022,-2.7988,-2.7494,-2.7253,-2.7227,-2.679,-2.6561,-2.6561,-2.6625,-2.6544,-2.637,-2.5484,-2.5624,-2.6233,-2.5296,-2.5893,-2.7183,-2.7183,-2.7511,-2.8012,-2.8012,-2.8544,-2.9217,-2.934,-2.9889,-3.051,-3.0687,-3.0782,-3.1135,-3.2743,-3.2033,-3.1263,-3.25,-3.2695,-3.2639,-3.2582,-3.2639,-3.2779,-3.2709,-3.2653,-3.2667,-3.2793,-3.3516,-3.4105,-3.4163,-3.4905,-3.525,-3.4562,-3.3903,-3.3245,-3.2587,-3.1928,-3.1482,-3.1482,-3.1482,-3.1524,-3.1582,-3.2231,-3.2641,-3.2695,-3.3937,-3.4576,-3.4576,-3.5253,-3.5622,-3.5622,-3.5622,-3.5622,-3.5622,-3.5622,-3.5622,0.0,0.0,0.0,0.0,0.0,0.0,0.0,0.0,0.0,0.0,0.0,-3.1324,-2.8372,-3.0129,-3.1918,-3.1495,-3.1901,-3.216,-3.1812,-3.2255,-3.2377,-3.1693,-3.1063,-3.0678,-3.049,-2.9963,-2.937,-2.8846,-2.928,-2.9355,-2.8831,-2.9295,-2.9639,-2.9774,-2.9774,-2.9849,-2.9998,-2.9818,-2.9763,-2.9748,-2.8713,-2.8239,-2.8239,-2.7393,-2.7072,-2.7072,-2.6937,-2.6883,-2.6924,-2.7471,-2.7027,-2.6087,-2.6349,-2.5959,-2.5106,-2.4896,-2.5393,-2.6231,-2.6231,-2.6678,-2.726,-2.726,-2.7385,-2.7714,-2.8965,-2.9426,-2.9958,-3.1594,-3.2071,-3.2279,-3.3206,-3.3561,-3.3743,-3.4046,-3.3523,-3.2829,-3.2319,-3.3191,-3.3953,-3.3406,-3.3309,-3.3456,-3.4036,-3.4268,-3.4589,-3.5124,-3.5359,-3.525,-3.4562,-3.3903,-3.3245,-3.2587,-3.1928,-3.1482,-3.1482,-3.1482,-3.1739,-3.2327,-3.2492,-3.2841,-3.3339,-3.4186,-3.4576,-3.4576,-3.5253,-3.5622,-3.5622,-3.5622,-3.5622,-3.5622,-3.5622,-3.5827,0.0,0.0,0.0,0.0,0.0,0.0,0.0,0.0,0.0,0.0,0.0,-3.0353,-2.8588,-2.9895,-3.1123,-3.0734,-3.1275,-3.155,-3.0799,-3.1341,-3.1705,-3.1342,-3.0771,-3.0273,-2.9922,-2.9117,-2.8282,-2.758,-2.762,-2.753,-2.7186,-2.75,-2.7979,-2.8592,-2.8622,-2.8936,-2.9564,-2.9579,-2.9579,-2.9579,-2.8518,-2.7817,-2.7501,-2.7171,-2.6973,-2.6973,-2.6973,-2.6973,-2.7061,-2.7391,-2.7094,-2.6472,-2.6795,-2.6494,-2.5831,-2.5581,-2.5879,-2.6405,-2.6136,-2.6457,-2.6973,-2.6973,-2.7284,-2.7764,-2.8598,-2.9116,-2.9748,-3.1155,-3.1769,-3.2281,-3.3239,-3.3785,-3.4156,-3.4486,-3.439,-3.4201,-3.3878,-3.4423,-3.4815,-3.4147,-3.3969,-3.409,-3.444,-3.4501,-3.4623,-3.4988,-3.504,-3.4771,-3.4098,-3.3709,-3.3245,-3.2587,-3.1928,-3.164,-3.2007,-3.2007,-3.2312,-3.3039,-3.3093,-3.3251,-3.3582,-3.4235,-3.4576,-3.4576,-3.5253,-3.5622,-3.5622,-3.5622,-3.5739,-3.5968,-3.5968,-3.6249,0.0,0.0,0.0,0.0,0.0,0.0,0.0,0.0,0.0,0.0,-2.844,-2.8558,-2.9681,-2.9922,-2.9871,-2.9736,-3.0328,-3.0598,-3.0006,-3.0548,-3.1004,-3.1004,-3.0475,-2.9774,-2.8952,-2.7926,-2.6963,-2.6164,-2.5803,-2.5555,-2.545,-2.5555,-2.6108,-2.72,-2.723,-2.7769,-2.8891,-2.8891,-2.8891,-2.8891,-2.7754,-2.6946,-2.6419,-2.6631,-2.6872,-2.7081,-2.7081,-2.7081,-2.7139,-2.7251,-2.712,-2.692,-2.7017,-2.6945,-2.6675,-2.6208,-2.6434,-2.6837,-2.6424,-2.662,-2.7081,-2.7081,-2.7613,-2.8192,-2.8307,-2.888,-2.9589,-3.0313,-3.0914,-3.1741,-3.299,-3.3456,-3.3735,-3.4442,-3.5122,-3.5519,-3.5304,-3.5358,-3.5234,-3.4498,-3.4421,-3.4499,-3.4499,-3.4592,-3.4685,-3.4685,-3.4681,-3.447,-3.3804,-3.3713,-3.3455,-3.2788,-3.217,-3.2104,-3.2734,-3.2788,-3.3039,-3.3735,-3.3871,-3.3955,-3.4054,-3.4686,-3.5061,-3.5061,-3.5509,-3.5739,-3.5739,-3.581,-3.6079,-3.6539,-3.6539,-3.6843,0.0,0.0,0.0,0.0,0.0,0.0,0.0,0.0,0.0,0.0,-2.7656,-2.839,-2.9042,-2.9127,-2.8907,-2.823,-2.8772,-2.9282,-2.9144,-2.9786,-3.026,-3.026,-2.9709,-2.8878,-2.7669,-2.6926,-2.606,-2.4927,-2.5332,-2.536,-2.4746,-2.53,-2.5689,-2.5869,-2.5869,-2.5959,-2.6138,-2.6138,-2.6138,-2.6138,-2.5959,-2.5824,-2.5749,-2.5749,-2.6426,-2.7543,-2.7543,-2.7543,-2.7536,-2.8142,-2.7652,-2.6637,-2.7181,-2.6665,-2.5619,-2.555,-2.5965,-2.658,-2.6494,-2.6948,-2.7543,-2.7543,-2.7609,-2.778,-2.8375,-2.8621,-2.8952,-3.0149,-3.0577,-3.0954,-3.2285,-3.3064,-3.3709,-3.4414,-3.5127,-3.5257,-3.4127,-3.4313,-3.4513,-3.3854,-3.4192,-3.4622,-3.4622,-3.5077,-3.5451,-3.5451,-3.5475,-3.5213,-3.4539,-3.446,-3.4191,-3.3546,-3.3387,-3.3391,-3.3443,-3.3495,-3.3735,-3.4431,-3.4918,-3.5419,-3.5985,-3.6551,-3.6829,-3.6829,-3.6481,-3.6291,-3.6291,-3.6764,-3.702,-3.7097,-3.7097,-3.736,0.0,0.0,0.0,0.0,0.0,0.0,0.0,0.0,0.0,-2.6838,-2.659,-2.6893,-2.8076,-2.8332,-2.8213,-2.784,-2.8484,-2.8822,-2.8399,-2.8991,-2.9482,-2.9482,-2.9244,-2.8583,-2.732,-2.6677,-2.5853,-2.4579,-2.4475,-2.4358,-2.4073,-2.4328,-2.4657,-2.5046,-2.5061,-2.5241,-2.5615,-2.5615,-2.542,-2.5061,-2.5349,-2.5304,-2.5061,-2.5349,-2.6045,-2.7021,-2.7021,-2.723,-2.764,-2.7904,-2.7675,-2.7181,-2.7461,-2.7179,-2.664,-2.664,-2.6811,-2.71,-2.71,-2.7306,-2.7625,-2.7625,-2.7625,-2.772,-2.8358,-2.8549,-2.8836,-3.0063,-3.072,-3.1212,-3.2174,-3.2945,-3.364,-3.4359,-3.4465,-3.4297,-3.415,-3.4343,-3.4343,-3.3648,-3.412,-3.4592,-3.4592,-3.4818,-3.5045,-3.5045,-3.5021,-3.4809,-3.4142,-3.4398,-3.4366,-3.3662,-3.3582,-3.3855,-3.4525,-3.462,-3.504,-3.6019,-3.6295,-3.6533,-3.6843,-3.7058,-3.719,-3.719,-3.696,-3.6843,-3.6843,-3.7058,-3.7323,-3.7578,-3.7578,-3.7959,0.0,0.0,0.0,0.0,0.0,0.0,0.0,0.0,0.0,0.0,-2.5289,-2.5426,-2.6708,-2.7283,-2.7537,-2.7537,-2.801,-2.8264,-2.784,-2.8332,-2.8687,-2.8687,-2.8687,-2.8149,-2.6738,-2.6257,-2.5504,-2.4271,-2.3837,-2.3595,-2.3595,-2.3595,-2.3834,-2.4358,-2.4373,-2.4597,-2.5091,-2.5091,-2.4777,-2.4133,-2.4706,-2.4724,-2.4358,-2.4767,-2.5378,-2.6093,-2.6273,-2.6617,-2.7081,-2.726,-2.732,-2.732,-2.732,-2.732,-2.732,-2.732,-2.732,-2.735,-2.7565,-2.7625,-2.7625,-2.776,-2.781,-2.7944,-2.8559,-2.8732,-2.8983,-3.003,-3.0733,-3.1292,-3.2139,-3.2746,-3.3305,-3.4049,-3.3795,-3.3558,-3.41,-3.4218,-3.4122,-3.3827,-3.42,-3.4615,-3.4797,-3.483,-3.483,-3.483,-3.4841,-3.4688,-3.4152,-3.4558,-3.4722,-3.435,-3.4301,-3.4731,-3.5797,-3.5882,-3.6236,-3.7135,-3.7323,-3.736,-3.736,-3.7524,-3.756,-3.756,-3.756,-3.7524,-3.736,-3.7524,-3.7738,-3.8099,-3.8176,-3.8536,0.0,0.0,0.0,0.0,0.0,0.0,0.0,0.0,0.0,-2.2886,-2.3596,-2.4543,-2.4644,-2.5795,-2.6759,-2.6759,-2.6776,-2.7046,-2.7688,-2.7823,-2.784,-2.784,-2.784,-2.72,-2.5464,-2.5269,-2.4823,-2.3724,-2.3595,-2.3595,-2.3595,-2.3595,-2.361,-2.3655,-2.3655,-2.367,-2.3699,-2.3699,-2.3385,-2.2828,-2.3413,-2.3698,-2.3655,-2.3698,-2.4044,-2.4716,-2.539,-2.5674,-2.5749,-2.6378,-2.6632,-2.6632,-2.6632,-2.6632,-2.6632,-2.6632,-2.6632,-2.6722,-2.74,-2.7625,-2.771,-2.8286,-2.8463,-2.8559,-2.918,-2.9361,-2.9512,-3.013,-3.0316,-3.065,-3.1958,-3.2341,-3.2527,-3.3288,-3.344,-3.3423,-3.3457,-3.3457,-3.366,-3.431,-3.4479,-3.4732,-3.5442,-3.556,-3.556,-3.556,-3.5549,-3.552,-3.5515,-3.5503,-3.5711,-3.6207,-3.6232,-3.6481,-3.7058,-3.7097,-3.7135,-3.719,-3.7614,-3.7859,-3.7859,-3.835,-3.8627,-3.8627,-3.8627,-3.8382,-3.7859,-3.8382,-3.8627,-3.8658,-3.8915,-3.9053,0.0,0.0,0.0,0.0,0.0,0.0,0.0,0.0,-2.2161,-2.2861,-2.3424,-2.3934,-2.4421,-2.5304,-2.5998,-2.5998,-2.6387,-2.6623,-2.6437,-2.6404,-2.6218,-2.5727,-2.5676,-2.5313,-2.4337,-2.4019,-2.3559,-2.2806,-2.2908,-2.3011,-2.3011,-2.3385,-2.3595,-2.3595,-2.3206,-2.2802,-2.2383,-2.2802,-2.2892,-2.2724,-2.3999,-2.443,-2.4116,-2.4471,-2.457,-2.4456,-2.4384,-2.4807,-2.563,-2.5869,-2.5959,-2.5959,-2.5959,-2.5959,-2.5959,-2.5959,-2.5959,-2.5989,-2.6228,-2.6587,-2.7079,-2.7657,-2.8139,-2.8685,-2.9673,-2.9995,-3.0107,-3.0699,-3.0878,-3.0986,-3.1472,-3.1579,-3.1647,-3.1935,-3.2341,-3.2544,-3.2087,-3.273,-3.3339,-3.3119,-3.3846,-3.4421,-3.4235,-3.4201,-3.4353,-3.4827,-3.4895,-3.5196,-3.6002,-3.6097,-3.6333,-3.6843,-3.6921,-3.7097,-3.7614,-3.7649,-3.7808,-3.8135,-3.8318,-3.8415,-3.8415,-3.8596,-3.8707,-3.8707,-3.8707,-3.8627,-3.8415,-3.8778,-3.8961,-3.8961,-3.9282,-3.9552,-1.417,0.0,0.0,0.0,0.0,0.0,0.0,0.0,-2.0619,-2.181,-2.2573,-2.3173,-2.3663,-2.4357,-2.4949,-2.5186,-2.5642,-2.5778,-2.5304,-2.5236,-2.505,-2.4574,-2.4506,-2.4303,-2.3753,-2.3452,-2.3016,-2.2353,-2.2452,-2.2486,-2.2379,-2.2742,-2.2951,-2.2951,-2.2562,-2.2024,-2.138,-2.2024,-2.2233,-2.2064,-2.3606,-2.4184,-2.3836,-2.4602,-2.4752,-2.4374,-2.3953,-2.4182,-2.4956,-2.5349,-2.5531,-2.5531,-2.5741,-2.5786,-2.5786,-2.5621,-2.5531,-2.5515,-2.5571,-2.6161,-2.6974,-2.7595,-2.8383,-2.9271,-3.0293,-3.0601,-3.0699,-3.1095,-3.119,-3.119,-3.119,-3.119,-3.119,-3.119,-3.1562,-3.1782,-3.1309,-3.1968,-3.2594,-3.2364,-3.3271,-3.3981,-3.3491,-3.3812,-3.4218,-3.4455,-3.4865,-3.5446,-3.6264,-3.6374,-3.662,-3.7135,-3.7038,-3.721,-3.7825,-3.7893,-3.8132,-3.8676,-3.8707,-3.8707,-3.8707,-3.8707,-3.8707,-3.8707,-3.8707,-3.8707,-3.8707,-3.899,-3.9099,-3.9125,-3.9552,-3.9943,0.0,0.0,0.0,0.0,0.0,0.0,0.0,0.0,-1.9954,-1.9538,-2.0945,-2.2265,-2.2282,-2.2885,-2.3596,-2.4337,-2.4472,-2.4506,-2.4472,-2.4472,-2.4472,-2.4455,-2.4455,-2.4236,-2.372,-2.3654,-2.325,-2.2366,-2.2269,-2.211,-2.1704,-2.168,-2.168,-2.1665,-2.1665,-2.135,-2.0692,-2.1335,-2.135,-2.0737,-2.2079,-2.2709,-2.275,-2.3876,-2.4384,-2.4337,-2.4151,-2.3881,-2.3666,-2.4848,-2.5354,-2.5439,-2.5955,-2.6158,-2.6118,-2.5581,-2.5385,-2.5392,-2.553,-2.6412,-2.7578,-2.8188,-2.9231,-3.0402,-3.1015,-3.119,-3.119,-3.119,-3.119,-3.119,-3.119,-3.119,-3.119,-3.119,-3.119,-3.119,-3.119,-3.119,-3.141,-3.2121,-3.2848,-3.3372,-3.3339,-3.4556,-3.5284,-3.46,-3.5582,-3.6399,-3.6457,-3.6416,-3.6643,-3.719,-3.6764,-3.6865,-3.7825,-3.7928,-3.815,-3.8676,-3.8707,-3.8707,-3.8707,-3.8707,-3.8707,-3.8707,-3.8707,-3.8707,-3.8707,-3.899,-3.9125,-3.9133,-3.9797,-4.025,-1.4013,0.0,0.0,0.0,0.0,0.0,0.0,0.0,-1.7377,-1.9891,-2.1012,-2.1658,-2.2209,-2.2479,-2.2682,-2.2885,-2.3799,-2.432,-2.3765,-2.3697,-2.3511,-2.297,-2.2919,-2.2844,-2.271,-2.2391,-2.2081,0.0,-2.1654,-2.1522,-2.1427,-2.159,-2.1485,-2.0991,-2.0991,-2.0662,-1.9974,-2.0647,-2.0902,-2.0737,-2.2391,-2.2939,-2.2532,-2.366,-2.3897,-2.3444,-2.3358,-2.3264,-2.3246,-2.4106,-2.4467,-2.453,-2.5217,-2.5486,-2.5408,-2.4889,-2.4914,-2.5187,-2.4859,-2.5539,-2.6761,-2.7891,-2.8829,-2.974,-3.0847,-3.119,-3.119,-3.119,-3.119,-3.119,-3.119,-3.119,-3.119,-3.119,-3.119,-3.119,-3.119,-3.119,-3.1258,-3.1444,-3.2087,-3.2425,-3.1901,-3.2577,-3.3471,-3.4186,-3.5036,-3.6038,-3.7307,-3.721,-3.7285,-3.8201,-3.7808,-3.7755,-3.8415,-3.8465,-3.8546,-3.8707,-3.8707,-3.8707,-3.8707,-3.8707,-3.8707,-3.8707,-3.8707,-3.8707,-3.8707,-3.899,-3.9212,-3.9481,-4.0101,-4.0441,-1.3848,-1.3967,0.0,0.0,0.0,0.0,-1.5086,-1.5576,-1.671,-1.9108,-1.972,-2.0161,-2.128,-2.1414,-2.1406,-2.1466,-2.2412,-2.312,-2.2958,-2.2936,-2.2784,-2.2361,-2.231,-2.231,-2.231,-2.2032,-2.1794,-2.1612,-2.1472,-2.1282,-2.0903,-2.0864,-2.0677,-2.0303,-2.0288,-2.0094,-1.969,-2.0094,-2.0288,-2.0303,-2.1811,-2.2355,-2.2141,-2.3374,-2.379,-2.3519,-2.3288,-2.3161,-2.3211,-2.3636,-2.4056,-2.4499,-2.5432,-2.5819,-2.5746,-2.5243,-2.5259,-2.5465,-2.491,-2.5759,-2.7169,-2.7948,-2.9025,-3.0172,-3.096,-3.119,-3.119,-3.119,-3.119,-3.119,-3.119,-3.119,-3.119,-3.119,-3.119,-3.119,-3.119,-3.119,-3.119,-3.119,-3.2036,-3.2425,-3.1376,-3.2491,-3.3551,-3.3675,-3.4666,-3.5864,-3.7248,-3.7165,-3.7344,-3.8281,-3.7911,-3.7808,-3.83,-3.8382,-3.8465,-3.8676,-3.8707,-3.8707,-3.8707,-3.8707,-3.8707,-3.8707,-3.8707,-3.8707,-3.8707,-3.899,-3.9339,-3.9819,-4.0266,-4.0489,-1.3741,-1.3894,-1.4065,0.0,0.0,0.0,-1.4615,-1.5717,-1.6965,-1.7576,-1.7783,-1.8338,-1.9915,-2.013,-2.0087,-2.0215,-2.0803,-2.1519,-2.2209,-2.231,-2.231,-2.231,-2.231,-2.231,-2.231,-2.231,-2.2135,-2.1718,-2.1628,-2.1228,-2.0416,-2.0,-1.9782,-1.9782,-1.9711,-1.969,-1.969,-1.969,-1.969,-1.9726,-2.0778,-2.1384,-2.1614,-2.2978,-2.3679,-2.3855,-2.3433,-2.3274,-2.3291,-2.3444,-2.3957,-2.4761,-2.6068,-2.6573,-2.6539,-2.6158,-2.6049,-2.5997,-2.5486,-2.6482,-2.8058,-2.8141,-2.9381,-3.0835,-3.092,-3.0954,-3.097,-3.1055,-3.114,-3.119,-3.119,-3.119,-3.119,-3.119,-3.119,-3.119,-3.119,-3.119,-3.119,-3.119,-3.2256,-3.2747,-3.1427,-3.3271,-3.4444,-3.3211,-3.4411,-3.5795,-3.6597,-3.6744,-3.7068,-3.7907,-3.7542,-3.747,-3.7946,-3.798,-3.8183,-3.8658,-3.8707,-3.8707,-3.8707,-3.8707,-3.8707,-3.8707,-3.8707,-3.8707,-3.8707,-3.899,-3.9432,-4.0042,-4.0339,-4.0511,-1.3615,0.0,0.0,0.0,0.0,0.0,-1.5739,-1.5665,-1.5538,-1.5839,-1.6832,-1.8033,-1.933,-1.9676,-1.9771,-1.9722,-2.0478,-2.1348,-2.2163,-2.231,-2.231,-2.231,-2.231,-2.231,-2.231,-2.231,-2.2254,-2.218,-2.1794,-2.1399,-2.0894,-2.0416,-2.0193,-2.0193,-1.9874,-1.969,-1.969,-1.969,-1.969,-1.9726,-2.0778,-2.1155,-2.094,-2.2239,-2.2687,-2.2415,-2.2468,-2.2513,-2.2615,-2.3799,-2.4056,-2.3813,-2.5255,-2.5812,-2.5831,-2.594,-2.6227,-2.6505,-2.5997,-2.6358,-2.7077,-2.7683,-2.8159,-2.8586,-2.9228,-2.9414,-2.9533,-3.0159,-3.0734,-3.119,-3.119,-3.119,-3.119,-3.119,-3.119,-3.119,-3.119,-3.119,-3.119,-3.119,-3.1427,-3.1529,-3.1241,-3.2116,-3.2901,-3.3055,-3.4394,-3.568,-3.6654,-3.697,-3.747,-3.8446,-3.8083,-3.7998,-3.8496,-3.8546,-3.8578,-3.8707,-3.8707,-3.8707,-3.8707,-3.8707,-3.8707,-3.8707,-3.8707,-3.8707,-3.8707,-3.899,-3.9289,-3.9709,-4.0042,-4.0668,0.0,0.0,0.0,-1.3974,0.0,0.0,0.0,-1.5294,-1.5483,-1.6078,-1.6239,-1.6648,-1.7928,-1.818,-1.8302,-1.8548,-1.9346,-2.0159,-2.0895,-2.1761,-2.231,-2.231,-2.231,-2.231,-2.231,-2.231,-2.231,-2.231,-2.1869,-2.1521,-2.1306,-2.0878,-2.055,-2.0314,-2.0089,-1.9909,-1.969,-1.969,-1.969,-1.9726,-2.0686,-2.1097,-2.1042,-2.2005,-2.2417,-2.2297,-2.2291,-2.231,-2.2395,-2.3477,-2.3714,-2.3579,-2.5423,-2.615,-2.6151,-2.6302,-2.6521,-2.6657,-2.6436,-2.6757,-2.7317,-2.7689,-2.8078,-2.8467,-2.8873,-2.9011,-2.9144,-2.9888,-3.0378,-3.0734,-3.1106,-3.119,-3.119,-3.119,-3.119,-3.119,-3.119,-3.119,-3.119,-3.119,-3.119,-3.119,-3.119,-3.202,-3.2616,-3.2466,-3.3591,-3.487,-3.6056,-3.6626,-3.7394,-3.8572,-3.8465,-3.8415,-3.8676,-3.8707,-3.8707,-3.8707,-3.8707,-3.8707,-3.8707,-3.8707,-3.8707,-3.8707,-3.8707,-3.8707,-3.8707,-3.8844,-3.9054,-3.9364,-3.988,-4.0425,0.0,0.0,0.0,0.0,0.0,-1.4761,0.0,0.0,0.0,-1.6401,0.0,0.0,0.0,0.0,0.0,-1.7186,0.0,0.0,0.0,-2.0847,0.0,-2.1853,-2.1882,-2.1957,-2.2077,-2.2209,-2.231,-2.231,-2.1957,-2.1718,-2.1718,-2.1337,-2.0943,-2.0567,-2.0382,-2.0158,-1.9818,-1.9747,-1.969,-1.9726,-2.0565,-2.1128,-2.1341,-2.2005,-2.2404,-2.2586,-2.2396,-2.231,-2.2378,-2.3241,-2.3613,-2.3799,-2.5727,-2.6488,-2.6505,-2.664,-2.6691,-2.6691,-2.6691,-2.7097,-2.757,-2.757,-2.8027,-2.8535,-2.8535,-2.8636,-2.8873,-2.9499,-2.9888,-3.0243,-3.0835,-3.1089,-3.119,-3.119,-3.119,-3.119,-3.119,-3.119,-3.119,-3.119,-3.119,-3.119,-3.119,-3.2,-3.2421,-3.1783,-3.2648,-3.3864,-3.5292,-3.6134,-3.7112,-3.8554,-3.8707,-3.8707,-3.8707,-3.8707,-3.8707,-3.8707,-3.8707,-3.8707,-3.8707,-3.8707,-3.8707,-3.8707,-3.8707,-3.8707,-3.8707,-3.8707,-3.8844,-3.9125,-3.9645,-4.0038,0.0,0.0,0.0,0.0,-1.3814,0.0,0.0,0.0,-1.4218,-1.5059,0.0,0.0,0.0,0.0,0.0,0.0,0.0,0.0,-1.8569,-1.9617,-2.0322,-2.0175,-2.0325,-2.0653,-2.1274,-2.1928,-2.231,-2.231,-2.2237,-2.2209,-2.2209,-2.1794,-2.1521,-2.1444,-2.0699,-2.028,-2.0212,-1.9874,-1.969,-1.9726,-2.0565,-2.1128,-2.1341,-2.2005,-2.2404,-2.2586,-2.2396,-2.231,-2.2412,-2.3799,-2.4388,-2.4441,-2.5372,-2.5727,-2.5812,-2.6454,-2.6691,-2.6691,-2.6691,-2.6742,-2.6826,-2.6826,-2.6877,-2.6962,-2.6962,-2.7418,-2.7941,-2.8026,-2.9059,-3.0125,-3.0209,-3.0717,-3.119,-3.119,-3.119,-3.119,-3.119,-3.119,-3.119,-3.119,-3.119,-3.119,-3.119,-3.1297,-3.1353,-3.1269,-3.1941,-3.3072,-3.4765,-3.5634,-3.6753,-3.8504,-3.8707,-3.8707,-3.8707,-3.8707,-3.8707,-3.8707,-3.8707,-3.8707,-3.8707,-3.8707,-3.8707,-3.8707,-3.8707,-3.8707,-3.8707,-3.8707,-3.8844,-3.908,-3.916,-3.9802,0.0,0.0,0.0,0.0,0.0,0.0,-1.3868,0.0,-1.4856,0.0,0.0,0.0,0.0,0.0,0.0,0.0,-1.6104,0.0,0.0,0.0,-1.8484,-1.9737,0.0,0.0,-2.1133,-2.1101,-2.1195,-2.1612,-2.1642,-2.1642,-2.1642,-2.1899,-2.1899,-2.1628,-2.1259,-2.0943,-2.0715,-2.0532,-2.0447,-2.0481,-2.1055,-2.139,-2.1488,-2.2049,-2.2348,-2.2408,-2.2343,-2.231,-2.2395,-2.3427,-2.4103,-2.456,-2.5321,-2.5862,-2.6285,-2.659,-2.6691,-2.6691,-2.6691,-2.6691,-2.6691,-2.6691,-2.6691,-2.6691,-2.6691,-2.6911,-2.7249,-2.7689,-2.8281,-2.8991,-2.9888,-3.0345,-3.0666,-3.1089,-3.119,-3.119,-3.119,-3.119,-3.119,-3.119,-3.119,-3.119,-3.119,-3.119,-3.119,-3.119,-3.1816,-3.2679,-3.3736,-3.4491,-3.5506,-3.7,-3.7428,-3.7758,-3.818,-3.8515,-3.8707,-3.8707,-3.8707,-3.8707,-3.8707,-3.8707,-3.8707,-3.8707,-3.8707,-3.8707,-3.8707,-3.8707,-3.8762,-3.8884,-3.9036,-3.9373,-1.769,0.0,0.0,0.0,0.0,0.0,0.0,0.0,0.0,0.0,0.0,0.0,0.0,0.0,-1.4537,-1.4988,0.0,-1.5354,0.0,-1.5954,0.0,0.0,0.0,0.0,0.0,-2.0304,-2.0304,-2.0847,-2.0895,-2.099,-2.1195,-2.1718,-2.1928,-2.1794,-2.1658,-2.146,-2.115,-2.1071,-2.0991,-2.0991,-2.1399,-2.1582,-2.1628,-2.2077,-2.231,-2.231,-2.231,-2.231,-2.2361,-2.3105,-2.3714,-2.4272,-2.5236,-2.593,-2.642,-2.6623,-2.6691,-2.6691,-2.6691,-2.6691,-2.6691,-2.6691,-2.6691,-2.6691,-2.6691,-2.6691,-2.681,-2.7351,-2.762,-2.8043,-2.9194,-2.9634,-2.9973,-3.0717,-3.0903,-3.0954,-3.1157,-3.119,-3.119,-3.119,-3.119,-3.119,-3.119,-3.119,-3.119,-3.119,-3.1647,-3.2275,-3.3006,-3.3581,-3.4449,-3.5863,-3.6344,-3.6944,-3.7821,-3.8267,-3.8546,-3.8707,-3.8707,-3.8707,-3.8707,-3.8707,-3.8707,-3.8707,-3.8707,-3.8707,-3.8707,-3.8707,-3.8707,-3.8707,-3.8894,-3.8999,0.0,0.0,0.0,-1.6539,0.0,0.0,0.0,0.0,-1.4581,0.0,0.0,0.0,-1.3952,-1.3881,-1.4031,-1.4372,-1.4628,0.0,0.0,0.0,0.0,0.0,0.0,0.0,0.0,-1.9738,-2.01,-2.0135,-2.0135,-2.0438,-2.1164,-2.1227,-2.1552,-2.2254,-2.184,-2.1582,-2.1582,-2.1181,-2.0991,-2.0991,-2.1399,-2.1582,-2.1628,-2.2077,-2.231,-2.231,-2.231,-2.231,-2.2361,-2.3105,-2.341,-2.3579,-2.5033,-2.5625,-2.5727,-2.6437,-2.6691,-2.6691,-2.6691,-2.6691,-2.6691,-2.6691,-2.6691,-2.6691,-2.6691,-2.6691,-2.6691,-2.6725,-2.7249,-2.7806,-2.784,-2.845,-2.9211,-2.9973,-3.0142,-3.0345,-3.1055,-3.119,-3.119,-3.119,-3.119,-3.119,-3.119,-3.119,-3.119,-3.119,-3.1207,-3.1696,-3.2954,-3.3132,-3.3855,-3.581,-3.6006,-3.6542,-3.7787,-3.7911,-3.815,-3.8676,-3.8707,-3.8707,-3.8707,-3.8707,-3.8707,-3.8707,-3.8707,-3.8707,-3.8707,-3.8707,-3.8707,-3.8707,-3.8707,-3.8719,-2.1786,-2.1927,-2.1374,-1.892,-1.87,0.0,0.0,0.0,0.0,0.0,0.0,0.0,0.0,-1.4104,-1.3887,-1.3981,-1.4075,-1.4175,0.0,-1.4924,0.0,0.0,0.0,0.0,0.0,0.0,-1.8864,-1.9339,-1.9375,-1.9682,-2.0438,-2.0927,-2.1552,-2.2282,-2.2152,-2.2061,-2.2061,-2.1915,-2.1857,-2.1857,-2.2003,-2.2061,-2.2077,-2.2237,-2.231,-2.231,-2.231,-2.231,-2.2327,-2.2581,-2.3241,-2.4171,-2.4661,-2.5456,-2.6353,-2.6607,-2.6691,-2.6691,-2.6691,-2.6691,-2.6691,-2.6691,-2.6691,-2.6691,-2.6691,-2.6691,-2.6691,-2.6691,-2.6877,-2.7182,-2.7654,-2.801,-2.8535,-2.9803,-3.0108,-3.0311,-3.1038,-3.119,-3.119,-3.119,-3.119,-3.119,-3.119,-3.119,-3.119,-3.119,-3.119,-3.1353,-3.1786,-3.1842,-3.2295,-3.3429,-3.3862,-3.4458,-3.5359,-3.6504,-3.7588,-3.864,-3.8707,-3.8707,-3.8707,-3.8707,-3.8707,-3.8707,-3.8707,-3.8707,-3.8707,-3.8707,-3.8707,-3.8707,-3.8707,-3.8707,-2.344,-2.3831,-2.3612,-2.1824,-2.1405,-2.093,-1.9161,-1.8651,-1.8218,0.0,0.0,0.0,0.0,-1.4843,-1.4125,-1.3847,-1.3741,-1.3741,0.0,-1.4393,0.0,0.0,0.0,0.0,0.0,-1.7694,-1.7862,-1.8574,-1.8612,-1.9074,-2.0066,-2.0553,-2.1274,-2.2282,-2.231,-2.231,-2.231,-2.231,-2.231,-2.231,-2.231,-2.231,-2.231,-2.231,-2.231,-2.231,-2.231,-2.231,-2.231,-2.231,-2.3004,-2.412,-2.4404,-2.5236,-2.6336,-2.659,-2.6691,-2.6691,-2.6691,-2.6691,-2.6691,-2.6691,-2.6691,-2.6691,-2.6691,-2.6691,-2.681,-2.7351,-2.7114,-2.6928,-2.796,-2.7824,-2.7807,-2.9347,-2.9702,-2.9973,-3.097,-3.119,-3.119,-3.119,-3.119,-3.119,-3.119,-3.119,-3.119,-3.119,-3.119,-3.119,-3.119,-3.119,-3.1461,-3.2205,-3.2615,-3.3381,-3.4693,-3.6291,-3.7606,-3.864,-3.8707,-3.8707,-3.8707,-3.8707,-3.8836,-3.9129,-3.8854,-3.8836,-3.9129,-3.8836,-3.8732,-3.8844,-3.8844,-3.8913]}]]